Date StartTime U_cm/s V_cm/s W_cm/s Ustd_cm/s Vstd_cm/s Wstd_cm/s Uvar_(cm/s)^2 Vvar_(cm/s)^2 Wvar_(cm/s)^2 KE_(m/s)^2 TurbulentKE_(m/s)^2 HorizWindSpeed_cm/s FrictionSpeec_cm/s DragCoef SpeedOfSound_m/s SonicTemperature_C Pressure_mb 
11/05/2014  00:00:00      -84.945      -28.797      -10.810       14.919       13.278       12.141      222.587      176.316      147.406        0.435        0.027       89.693       10.400        0.013      335.223        5.712      871.523
11/05/2014  00:01:00      -76.406      -41.067       -8.174       15.628       17.244       11.819      244.232      297.343      139.687        0.414        0.034       86.743        9.434        0.012      335.288        5.821      871.519
11/05/2014  00:02:00      -81.338      -35.607      -15.001       15.107       13.120        9.697      228.234      172.129       94.024        0.430        0.025       88.791        8.073        0.008      335.266        5.784      871.517
11/05/2014  00:03:00      -98.634      -39.289      -16.010       14.782       20.350       11.239      218.511      414.125      126.309        0.614        0.038      106.172        5.345        0.003      335.280        5.810      871.513
11/05/2014  00:04:00     -113.247      -33.261      -13.586       21.891       19.137       13.479      479.235      366.238      181.672        0.757        0.051      118.031        9.263        0.006      335.306        5.850      871.514
11/05/2014  00:05:00     -116.458      -37.977      -13.933       24.969       12.419       12.100      623.429      154.236      146.415        0.806        0.046      122.494        9.193        0.006      335.343        5.914      871.519
11/05/2014  00:06:00     -110.550      -53.983      -11.095       15.135       15.891       10.751      229.057      252.524      115.578        0.793        0.030      123.026        5.283        0.002      335.358        5.936      871.522
11/05/2014  00:07:00     -114.987      -56.396       -6.321       19.549       17.963       12.352      382.167      322.682      152.565        0.865        0.043      128.072        8.523        0.004      335.317        5.868      871.530
11/05/2014  00:08:00      -87.898      -39.659        1.968       25.762       22.347       17.013      663.685      499.396      289.436        0.538        0.073       96.430       13.392        0.019      335.314        5.864      871.524
11/05/2014  00:09:00      -73.517      -33.295        5.760       37.024       21.395       17.527     1370.796      457.729      307.191        0.434        0.107       80.705       21.038        0.068      335.296        5.834      871.527
11/05/2014  00:10:00      -93.817      -41.676       -0.991       11.535       10.929        9.566      133.049      119.436       91.504        0.544        0.017      102.658        7.998        0.006      335.281        5.809      871.522
11/05/2014  00:11:00      -95.158      -41.106       -1.312       16.091       12.305        9.855      258.913      151.403       97.129        0.563        0.025      103.657        9.492        0.008      335.237        5.737      871.526
11/05/2014  00:12:00     -101.059      -45.825       -9.980       12.358       13.995        9.772      152.715      195.866       95.490        0.643        0.022      110.964        4.781        0.002      335.211        5.693      871.541
11/05/2014  00:13:00      -87.356      -57.916       -4.726       24.828       13.174       15.955      616.415      173.558      254.559        0.603        0.052      104.811       11.395        0.012      335.262        5.777      871.547
11/05/2014  00:14:00      -94.824      -45.985       -5.994       16.349       16.627       12.649      267.286      276.453      159.988        0.592        0.035      105.386        9.515        0.008      335.263        5.779      871.550
11/05/2014  00:15:00      -84.352      -33.919      -12.505       13.716       11.235        6.940      188.117      126.215       48.167        0.439        0.018       90.916        4.478        0.002      335.274        5.798      871.550
11/05/2014  00:16:00      -89.354      -30.277      -11.883       13.715       13.697       11.551      188.113      187.610      133.437        0.478        0.025       94.344        8.708        0.009      335.311        5.860      871.549
11/05/2014  00:17:00      -90.916      -35.044       -1.282       17.975       13.133       10.794      323.101      172.485      116.514        0.505        0.031       97.436        6.525        0.004      335.334        5.897      871.554
11/05/2014  00:18:00      -98.049      -32.571       -9.388       19.453       10.450       11.241      378.401      109.200      126.364        0.569        0.031      103.318       10.986        0.011      335.298        5.838      871.543
11/05/2014  00:19:00     -103.495      -33.968      -12.220       12.201       15.266       10.992      148.857      233.040      120.817        0.626        0.025      108.927        7.658        0.005      335.315        5.866      871.526
11/05/2014  00:20:00     -104.332      -57.096       -7.646        9.413       10.120        8.933       88.606      102.405       79.790        0.724        0.014      118.933        5.983        0.003      335.315        5.865      871.505
11/05/2014  00:21:00     -114.540      -62.463      -11.579       11.377        9.556        9.686      129.433       91.319       93.823        0.873        0.016      130.465        7.130        0.003      335.361        5.941      871.490
11/05/2014  00:22:00     -122.077      -54.517       -8.929       13.589       13.641       10.538      184.667      186.074      111.050        0.922        0.024      133.697        6.126        0.002      335.285        5.815      871.471
11/05/2014  00:23:00     -102.974      -52.678       -8.456       10.573       11.307       10.468      111.794      127.858      109.578        0.690        0.017      115.666        5.593        0.002      335.305        5.849      871.455
11/05/2014  00:24:00      -97.953      -45.339       -8.019       11.582       10.950        8.397      134.132      119.897       70.516        0.602        0.016      107.937        6.457        0.004      335.309        5.856      871.445
11/05/2014  00:25:00     -114.228      -31.903      -12.071       16.427       14.194       13.823      269.845      201.472      191.072        0.744        0.033      118.600       10.510        0.008      335.233        5.729      871.437
11/05/2014  00:26:00      -92.604      -37.592      -16.245       18.880       10.153        9.103      356.473      103.077       82.859        0.540        0.027       99.943        7.129        0.005      335.156        5.603      871.426
11/05/2014  00:27:00      -72.935      -48.159      -13.254       14.537        9.970        9.820      211.328       99.401       96.439        0.411        0.020       87.400        5.899        0.005      335.227        5.719      871.415
11/05/2014  00:28:00      -86.755      -30.938      -10.551       12.131       10.797        8.127      147.164      116.578       66.051        0.446        0.016       92.107        5.634        0.004      335.207        5.687      871.423
11/05/2014  00:29:00      -89.400      -23.384       -9.893       13.186       10.652       11.600      173.875      113.465      134.555        0.453        0.021       92.408        8.882        0.009      335.287        5.819      871.430
11/05/2014  00:30:00      -71.257      -24.755       -3.791       10.971       15.146       11.481      120.359      229.386      131.821        0.309        0.024       75.434        9.227        0.015      335.320        5.875      871.435
11/05/2014  00:31:00      -80.384      -28.049       -9.124        9.045       12.769        7.894       81.820      163.037       62.307        0.382        0.015       85.137        1.515        0.000      335.382        5.978      871.436
11/05/2014  00:32:00      -79.803      -16.504       -8.372        7.884       11.806        7.408       62.151      139.383       54.879        0.348        0.013       81.492        5.340        0.004      335.352        5.928      871.443
11/05/2014  00:33:00      -63.090      -25.624      -11.542        9.788        9.542        7.050       95.799       91.055       49.707        0.250        0.012       68.095        2.290        0.001      335.363        5.945      871.448
11/05/2014  00:34:00      -52.708      -29.084       -7.471        7.863        5.622        6.125       61.829       31.602       37.521        0.191        0.007       60.199        2.237        0.001      335.364        5.947      871.463
11/05/2014  00:35:00      -61.471      -30.881      -11.773        5.994        6.636        5.851       35.923       44.032       34.237        0.249        0.006       68.792        2.119        0.001      335.326        5.884      871.458
11/05/2014  00:36:00      -55.831      -20.879       -9.274        5.895       10.268        5.590       34.748      105.440       31.245        0.191        0.009       59.607        4.572        0.006      335.341        5.910      871.446
11/05/2014  00:37:00      -54.335      -22.099       -7.384        5.964        6.874        5.500       35.574       47.258       30.245        0.180        0.006       58.657        1.975        0.001      335.396        6.000      871.433
11/05/2014  00:38:00      -38.696      -25.173       -4.371       12.215        6.764        7.196      149.202       45.746       51.778        0.120        0.012       46.163        5.066        0.012      335.274        5.799      871.417
11/05/2014  00:39:00      -40.963      -24.902        0.020       16.933        7.913       10.395      286.733       62.615      108.064        0.138        0.023       47.938        8.264        0.030      335.291        5.825      871.408
11/05/2014  00:40:00      -51.668      -29.427       -2.905        9.998        9.393        7.520       99.967       88.230       56.547        0.189        0.012       59.460        4.622        0.006      335.262        5.776      871.418
11/05/2014  00:41:00      -61.038      -36.997       -4.986       19.280       13.921        5.874      371.718      193.799       34.507        0.286        0.030       71.375        1.643        0.001      335.310        5.858      871.418
11/05/2014  00:42:00      -52.450      -31.049       -1.760       16.753       13.931       11.281      280.671      194.081      127.255        0.216        0.030       60.951       10.504        0.030      335.290        5.824      871.425
11/05/2014  00:43:00      -28.342      -13.723        1.799       17.496       10.321       10.497      306.111      106.532      110.183        0.076        0.026       31.489       11.591        0.135      335.294        5.830      871.427
11/05/2014  00:44:00       -7.012      -10.426        0.954       10.101        9.314        4.581      102.034       86.751       20.984        0.018        0.010       12.564        2.290        0.033      335.292        5.829      871.432
11/05/2014  00:45:00        2.196      -11.887        1.447        4.737        8.162        6.555       22.438       66.620       42.962        0.014        0.007       12.088        4.702        0.151      335.361        5.944      871.444
11/05/2014  00:46:00      -16.436       -4.972        2.834       12.859       11.870        9.904      165.343      140.901       98.080        0.035        0.020       17.171        9.309        0.294      335.297        5.836      871.446
11/05/2014  00:47:00      -36.470      -24.015       -0.790       19.505       11.607        9.156      380.449      134.725       83.827        0.125        0.030       43.666        7.195        0.027      335.341        5.909      871.451
11/05/2014  00:48:00      -52.643      -16.558       -1.623       13.896       13.370        6.778      193.089      178.767       45.947        0.173        0.021       55.186        4.970        0.008      335.259        5.773      871.461
11/05/2014  00:49:00      -69.844      -22.911       -5.251       15.092       11.405        9.211      227.761      130.083       84.849        0.294        0.022       73.506        6.583        0.008      335.245        5.751      871.464
11/05/2014  00:50:00      -78.243      -37.809       -2.779       17.401       14.169       10.567      302.780      200.769      111.657        0.409        0.031       86.900        7.298        0.007      335.238        5.737      871.457
11/05/2014  00:51:00      -72.681      -41.581       -2.970       18.520       10.451       11.651      342.978      109.219      135.750        0.380        0.029       83.734        9.327        0.012      335.152        5.595      871.453
11/05/2014  00:52:00      -76.955      -49.050       -7.547       18.079       17.278       13.326      326.837      298.537      177.579        0.459        0.040       91.258        9.188        0.010      335.147        5.588      871.445
11/05/2014  00:53:00      -66.876      -53.679       -5.226       28.887       24.269       17.843      834.481      589.006      318.378        0.456        0.087       85.755        9.380        0.012      335.050        5.426      871.428
11/05/2014  00:54:00      -99.201      -78.889       -7.150       29.416       27.031       18.798      865.293      730.651      353.347        0.903        0.097      126.745       11.824        0.009      335.076        5.473      871.414
11/05/2014  00:55:00      -81.262      -52.788        4.312       48.174       29.538       21.803     2320.686      872.499      475.379        0.654        0.183       96.903       23.748        0.060      335.018        5.375      871.409
11/05/2014  00:56:00      -76.202      -48.628        3.224       38.095       24.623       19.962     1451.212      606.269      398.470        0.532        0.123       90.396       11.756        0.017      335.059        5.443      871.410
11/05/2014  00:57:00      -76.534      -60.528        5.672       40.856       28.641       22.637     1669.238      820.307      512.444        0.628        0.150       97.576       21.230        0.047      335.071        5.462      871.424
11/05/2014  00:58:00      -58.286      -41.148        8.961       36.007       27.535       21.441     1296.480      758.177      459.725        0.384        0.126       71.347       18.266        0.066      335.029        5.393      871.434
11/05/2014  00:59:00      -78.428      -43.236        9.906       46.512       29.733       27.487     2163.409      884.065      755.517        0.596        0.190       89.556       26.518        0.088      334.998        5.341      871.450
11/05/2014  01:00:00      -85.564      -74.665        4.512       48.260       35.572       22.170     2329.001     1265.388      491.499        0.850        0.204      113.561       21.092        0.034      335.042        5.414      871.454
11/05/2014  01:01:00      -85.003      -66.869        6.216       43.036       34.335       23.134     1852.055     1178.887      535.167        0.765        0.178      108.153       20.696        0.037      335.051        5.428      871.452
11/05/2014  01:02:00     -101.620      -79.216        1.501       38.175       28.864       23.284     1457.296      833.153      542.166        0.972        0.142      128.848       24.375        0.036      334.988        5.325      871.439
11/05/2014  01:03:00     -119.041      -87.451       -3.684       32.847       26.975       18.141     1078.909      727.643      329.078        1.198        0.107      147.710       16.522        0.013      335.012        5.364      871.421
11/05/2014  01:04:00      -89.345      -84.768        5.240       39.697       33.626       25.442     1575.873     1130.735      647.301        0.927        0.168      123.159       24.095        0.038      334.998        5.342      871.412
11/05/2014  01:05:00     -111.806      -66.641       -0.820       30.207       28.762       19.722      912.475      827.259      388.974        0.954        0.106      130.160       14.745        0.013      334.966        5.287      871.404
11/05/2014  01:06:00     -123.879      -55.513       -3.769       46.566       29.508       16.587     2168.395      870.732      275.136        1.088        0.166      135.749       19.011        0.020      335.035        5.402      871.393
11/05/2014  01:07:00     -108.177      -56.744        6.253       43.504       35.963       21.248     1892.591     1293.311      451.476        0.930        0.182      122.156       20.797        0.029      335.054        5.433      871.372
11/05/2014  01:08:00     -101.023      -68.239        4.486       45.048       34.011       24.249     2029.304     1156.739      588.034        0.933        0.189      121.910       26.495        0.047      335.117        5.540      871.356
11/05/2014  01:09:00     -143.041      -65.941       -8.402       34.912       35.084       21.195     1218.862     1230.880      449.211        1.389        0.145      157.509       20.068        0.016      335.157        5.606      871.342
11/05/2014  01:10:00      -97.093      -51.268        5.957       47.125       28.094       25.128     2220.758      789.274      631.437        0.787        0.182      109.797       26.777        0.059      335.133        5.564      871.343
11/05/2014  01:11:00     -142.998      -56.222       -5.929       27.702       24.317       17.353      767.376      591.339      301.116        1.265        0.083      153.653       13.850        0.008      335.055        5.437      871.337
11/05/2014  01:12:00     -104.442      -52.088        1.645       35.509       30.131       21.906     1260.894      907.886      479.868        0.814        0.132      116.710       19.165        0.027      335.092        5.498      871.331
11/05/2014  01:13:00     -102.627      -45.294       -0.872       42.110       28.886       21.186     1773.263      834.386      448.868        0.782        0.153      112.178       14.765        0.017      335.089        5.492      871.328
11/05/2014  01:14:00     -123.272      -51.364       -3.798       27.846       21.802       14.910      775.385      475.339      222.315        0.966        0.074      133.545       11.562        0.007      335.070        5.461      871.325
11/05/2014  01:15:00     -119.610      -62.683       -5.402       27.150       25.869       18.460      737.097      669.229      340.767        1.001        0.087      135.040       11.473        0.007      335.121        5.545      871.320
11/05/2014  01:16:00      -88.467      -78.735       -0.889       42.383       35.798       21.473     1796.351     1281.478      461.111        0.878        0.177      118.430       20.694        0.031      335.090        5.493      871.309
11/05/2014  01:17:00      -98.785      -57.629       -7.215       23.061       19.493       15.678      531.797      379.971      245.793        0.714        0.058      114.366       13.204        0.013      335.028        5.391      871.293
11/05/2014  01:18:00      -89.584      -38.874       -7.942       21.699       15.902       11.696      470.863      252.876      136.793        0.523        0.043       97.655        9.549        0.010      334.992        5.332      871.283
11/05/2014  01:19:00     -106.854      -23.232      -10.089       14.811       14.143       11.869      219.357      200.038      140.876        0.631        0.028      109.351        7.328        0.004      334.920        5.210      871.276
11/05/2014  01:20:00     -103.395      -25.940       -8.536       28.932       17.358       15.679      837.048      301.317      245.834        0.641        0.069      106.600       12.141        0.013      334.884        5.151      871.279
11/05/2014  01:21:00     -130.959      -31.711       -8.792       20.482       18.200       13.915      419.494      331.255      193.615        0.959        0.047      134.744        9.517        0.005      334.870        5.128      871.280
11/05/2014  01:22:00     -108.167      -27.119       -7.608       29.241       26.650       13.080      855.057      710.225      171.093        0.711        0.087      111.515       11.481        0.011      334.794        5.001      871.274
11/05/2014  01:23:00      -74.685      -26.570       -3.192       38.641       18.218       16.157     1493.089      331.887      261.042        0.419        0.104       79.271       19.993        0.064      334.737        4.908      871.273
11/05/2014  01:24:00      -68.143      -19.488       -1.476       21.956       14.832       12.703      482.077      219.994      161.368        0.294        0.043       70.875       10.870        0.024      334.734        4.904      871.273
11/05/2014  01:25:00      -92.454      -34.753      -11.982       14.253       11.418       11.835      203.145      130.371      140.064        0.519        0.024       98.770        7.800        0.006      334.816        5.036      871.278
11/05/2014  01:26:00      -76.718      -52.286       -5.613       25.036       15.240       10.736      626.792      232.249      115.252        0.481        0.049       92.842        9.627        0.011      334.778        4.975      871.272
11/05/2014  01:27:00      -58.655      -29.519       -1.493       23.173       27.709       15.441      536.965      767.776      238.410        0.293        0.077       65.664        5.768        0.008      334.833        5.066      871.275
11/05/2014  01:28:00      -27.510      -42.921        5.723       41.078       26.350       16.105     1687.410      694.305      259.374        0.264        0.132       50.980       22.386        0.193      334.798        5.009      871.275
11/05/2014  01:29:00       -5.162      -29.825        6.958       31.051       21.281       15.462      964.144      452.896      239.063        0.131        0.083       30.269       14.525        0.230      334.781        4.980      871.280
11/05/2014  01:30:00        9.747       -6.957        2.967       14.168       14.642       13.453      200.725      214.390      180.984        0.037        0.030       11.975        9.393        0.615      334.771        4.963      871.298
11/05/2014  01:31:00      -29.289      -28.394       -0.092       27.724       14.572       11.337      768.612      212.347      128.529        0.139        0.055       40.793       13.330        0.107      334.788        4.992      871.299
11/05/2014  01:32:00      -26.814      -29.825       -0.125       19.220       10.660       10.226      369.400      113.637      104.574        0.110        0.029       40.106       11.010        0.075      334.810        5.029      871.301
11/05/2014  01:33:00      -37.998      -33.894       -1.135       17.146       18.222       12.143      293.980      332.042      147.463        0.168        0.039       50.918       11.676        0.053      334.843        5.082      871.290
11/05/2014  01:34:00      -62.157      -32.540      -10.848       11.497       10.596        9.931      132.190      112.272       98.633        0.269        0.017       70.159        5.131        0.005      334.883        5.150      871.275
11/05/2014  01:35:00      -62.326      -39.174       -9.410       11.713       13.015        8.594      137.197      169.383       73.858        0.294        0.019       73.615        4.994        0.005      334.942        5.248      871.260
11/05/2014  01:36:00      -66.090      -30.893      -11.499       13.354       11.233       11.525      178.316      126.172      132.819        0.295        0.022       72.953        9.435        0.017      334.875        5.138      871.243
11/05/2014  01:37:00      -69.422      -16.790       -8.857       18.201        9.420       10.708      331.292       88.729      114.667        0.286        0.027       71.423       11.457        0.026      334.851        5.098      871.236
11/05/2014  01:38:00      -79.725       -9.406      -10.176       13.612        9.824        7.635      185.280       96.511       58.294        0.344        0.017       80.278        6.526        0.007      334.815        5.037      871.232
11/05/2014  01:39:00      -68.187       -4.663       -8.293        9.985        9.512        7.472       99.704       90.479       55.828        0.249        0.012       68.347        4.917        0.005      334.833        5.068      871.226
11/05/2014  01:40:00      -96.508        0.008      -12.093       18.026       13.871       10.538      324.928      192.399      111.058        0.504        0.031       96.508        8.418        0.008      334.851        5.095      871.220
11/05/2014  01:41:00      -91.274       -8.963       -7.700       30.042       14.519       17.835      902.513      210.805      318.090        0.495        0.072       91.713       19.520        0.045      334.862        5.113      871.212
11/05/2014  01:42:00      -93.517      -11.727       -8.838       29.617       16.513       14.718      877.139      272.685      216.633        0.516        0.068       94.249       16.604        0.031      334.809        5.027      871.206
11/05/2014  01:43:00     -117.693      -23.921      -12.161       18.665       11.751       10.876      348.399      138.089      118.285        0.759        0.030      120.099        8.494        0.005      334.732        4.898      871.203
11/05/2014  01:44:00     -110.388      -33.654      -14.295       12.364       14.167       10.087      152.878      200.710      101.748        0.699        0.023      115.404        8.009        0.005      334.740        4.910      871.205
11/05/2014  01:45:00      -98.169      -17.606      -14.406       20.103       13.509       11.977      404.114      182.480      143.451        0.544        0.037       99.735       12.321        0.015      334.623        4.716      871.203
11/05/2014  01:46:00      -77.663      -21.073       -9.306       23.813       19.606       12.693      567.070      384.397      161.123        0.384        0.056       80.471       10.025        0.016      334.532        4.567      871.207
11/05/2014  01:47:00     -121.905      -10.713      -19.002       26.112       17.433       14.592      681.844      303.894      212.913        0.827        0.060      122.375       11.479        0.009      334.498        4.509      871.203
11/05/2014  01:48:00     -105.159      -23.837      -18.961       18.757       14.001       13.816      351.832      196.038      190.874        0.636        0.037      107.826       11.454        0.011      334.515        4.539      871.193
11/05/2014  01:49:00     -104.402      -34.368      -20.195       16.300       17.180       10.887      265.680      295.142      118.535        0.658        0.034      109.913        9.748        0.008      334.476        4.475      871.178
11/05/2014  01:50:00     -108.548      -51.411      -15.403       16.606       22.349       12.416      275.773      499.472      154.147        0.780        0.046      120.108        8.294        0.005      334.476        4.474      871.162
11/05/2014  01:51:00     -139.803      -43.061      -17.478       16.121       12.725       13.093      259.900      161.920      171.416        1.115        0.030      146.284        9.357        0.004      334.532        4.568      871.145
11/05/2014  01:52:00     -115.644      -34.761       -5.866       22.280       17.161       16.038      496.400      294.516      257.204        0.783        0.052      120.755       13.539        0.013      334.612        4.699      871.121
11/05/2014  01:53:00      -98.744      -40.118       -4.107       28.574       14.181       12.368      816.494      201.106      152.959        0.627        0.059      106.583       13.211        0.015      334.686        4.822      871.103
11/05/2014  01:54:00      -98.779      -39.861       -7.150       13.015       12.607        9.759      169.390      158.947       95.231        0.591        0.021      106.519        7.203        0.005      334.690        4.829      871.100
11/05/2014  01:55:00     -104.687      -41.541      -13.611       13.860       14.847        9.733      192.091      220.442       94.734        0.669        0.025      112.628        6.589        0.003      334.716        4.873      871.087
11/05/2014  01:56:00     -103.776      -36.644       -9.603       18.975       13.798       12.332      360.056      190.398      152.085        0.645        0.035      110.055        9.107        0.007      334.683        4.818      871.086
11/05/2014  01:57:00     -107.124      -33.141       -8.151       22.060       13.464       11.677      486.646      181.290      136.358        0.672        0.040      112.134        6.978        0.004      334.632        4.731      871.091
11/05/2014  01:58:00     -128.384      -27.725      -14.719       13.402       13.134       13.326      179.623      172.495      177.594        0.900        0.026      131.344        9.803        0.006      334.516        4.541      871.114
11/05/2014  01:59:00     -124.685      -28.450      -16.499       26.627       19.910       17.593      708.986      396.411      309.499        0.902        0.071      127.890       17.525        0.019      334.445        4.423      871.139
11/05/2014  02:00:00     -107.160      -33.199       -3.032       36.008       22.364       18.352     1296.611      500.133      336.804        0.736        0.107      112.185       13.971        0.016      334.456        4.441      871.160
11/05/2014  02:01:00      -63.963       -6.392       -5.449       34.936       29.884       18.146     1220.516      893.044      329.294        0.330        0.122       64.282       17.835        0.077      334.507        4.525      871.166
11/05/2014  02:02:00      -86.896       -0.120      -14.082       34.675       26.381       22.647     1202.338      695.936      512.903        0.508        0.121       86.896       17.500        0.041      334.559        4.611      871.167
11/05/2014  02:03:00      -65.112       16.885       -4.603       37.505       30.562       22.532     1406.643      934.024      507.673        0.370        0.142       67.266       19.906        0.088      334.551        4.596      871.161
11/05/2014  02:04:00      -72.517      -17.391       -5.329       26.414       23.906       15.191      697.688      571.517      230.755        0.354        0.075       74.573       12.593        0.029      334.539        4.578      871.160
11/05/2014  02:05:00      -36.295      -25.716       -8.054       30.691       15.869       16.730      941.937      251.810      279.908        0.176        0.074       44.482        9.418        0.045      334.489        4.495      871.158
11/05/2014  02:06:00       -9.637       -9.253        5.499       26.187       12.757       14.270      685.735      162.751      203.628        0.063        0.053       13.360       11.083        0.688      334.410        4.366      871.156
11/05/2014  02:07:00      -34.779      -18.416       -4.065       31.716       14.475       16.645     1005.895      209.538      277.069        0.153        0.075       39.354       17.506        0.198      334.401        4.351      871.163
11/05/2014  02:08:00      -74.735      -41.302      -13.202       24.630       25.756       21.203      606.658      663.347      449.565        0.459        0.086       85.388       14.542        0.029      334.432        4.402      871.166
11/05/2014  02:09:00      -72.032      -30.266      -11.183       26.611       17.390       16.696      708.172      302.399      278.744        0.376        0.064       78.132       12.949        0.027      334.479        4.479      871.165
11/05/2014  02:10:00      -76.308      -32.592      -16.983       21.069       21.347       15.413      443.910      455.716      237.559        0.416        0.057       82.976       11.178        0.018      334.488        4.494      871.161
11/05/2014  02:11:00      -73.169      -27.523      -16.509       25.739       18.525       17.165      662.498      343.170      294.632        0.384        0.065       78.174        8.966        0.013      334.540        4.579      871.149
11/05/2014  02:12:00      -52.155      -23.102       -3.139       33.654       15.590       14.241     1132.592      243.044      202.797        0.242        0.079       57.042        8.310        0.021      334.463        4.452      871.147
11/05/2014  02:13:00     -112.270      -41.750       -9.239       17.160       16.857        9.278      294.459      284.159       86.083        0.755        0.033      119.782        7.083        0.003      334.367        4.295      871.157
11/05/2014  02:14:00     -110.741      -32.623       -7.187       12.811       14.389       11.266      164.130      207.037      126.931        0.694        0.025      115.447        6.062        0.003      334.360        4.282      871.170
11/05/2014  02:15:00      -97.314      -33.467       -6.442       12.882       15.168       10.143      165.940      230.057      102.878        0.557        0.025      102.908        7.895        0.006      334.423        4.387      871.184
11/05/2014  02:16:00     -101.467      -41.139       -9.881       17.962       12.963       11.303      322.642      168.035      127.765        0.635        0.031      109.490        7.586        0.005      334.520        4.546      871.187
11/05/2014  02:17:00      -85.732      -38.356      -10.001       11.754       13.268        9.238      138.166      176.050       85.349        0.466        0.020       93.921        7.530        0.006      334.523        4.551      871.194
11/05/2014  02:18:00      -95.184      -45.734       -7.636       10.258       14.313        9.030      105.234      204.875       81.546        0.580        0.020      105.601        5.831        0.003      334.647        4.757      871.195
11/05/2014  02:19:00      -88.760      -39.394       -6.491       20.955       15.230        9.388      439.127      231.949       88.125        0.512        0.038       97.109       10.252        0.011      334.641        4.748      871.195
11/05/2014  02:20:00      -84.907      -36.126       -7.189        9.923       11.489        9.438       98.457      131.991       89.078        0.444        0.016       92.273        4.952        0.003      334.663        4.784      871.208
11/05/2014  02:21:00      -97.988      -36.261       -6.922       12.195       14.902        7.969      148.722      222.077       63.509        0.570        0.022      104.482        4.777        0.002      334.794        5.001      871.213
11/05/2014  02:22:00      -93.157      -18.950       -8.320        9.763       13.305        7.011       95.311      177.020       49.159        0.471        0.016       95.065        4.037        0.002      334.781        4.980      871.212
11/05/2014  02:23:00      -52.428      -22.087        4.414       22.873       13.805       11.190      523.179      190.586      125.221        0.205        0.042       56.890       10.144        0.032      334.604        4.686      871.206
11/05/2014  02:24:00      -75.587      -18.273       -6.690        8.962       12.852        9.496       80.326      165.161       90.170        0.321        0.017       77.765        6.317        0.007      334.624        4.720      871.196
11/05/2014  02:25:00      -89.015      -23.840       -9.520        9.329       14.423        9.310       87.039      208.029       86.677        0.448        0.019       92.152        6.379        0.005      334.603        4.683      871.194
11/05/2014  02:26:00      -82.309      -13.436       -9.030       16.114       16.000       11.478      259.648      256.009      131.752        0.384        0.032       83.398        9.213        0.012      334.605        4.687      871.195
11/05/2014  02:27:00      -86.901      -16.838       -5.375        9.371       11.714        9.470       87.814      137.216       89.687        0.409        0.016       88.517        5.153        0.003      334.651        4.764      871.184
11/05/2014  02:28:00      -82.605      -28.709       -0.126       26.355       14.927       14.845      694.609      222.822      220.363        0.439        0.057       87.452       15.132        0.030      334.626        4.723      871.188
11/05/2014  02:29:00      -75.207      -40.900       -0.969       24.661       17.946       14.325      608.144      322.065      205.213        0.423        0.057       85.609       12.285        0.021      334.493        4.504      871.193
11/05/2014  02:30:00      -96.875      -55.201       -9.795       28.076       18.193       16.186      788.269      330.984      261.983        0.695        0.069      111.499       12.066        0.012      334.508        4.526      871.188
11/05/2014  02:31:00     -112.096      -53.022       -5.550       16.298       15.220       15.293      265.615      231.657      233.890        0.807        0.037      124.003        9.505        0.006      334.500        4.515      871.194
11/05/2014  02:32:00      -93.198      -40.512       -9.417       12.694       12.177        8.981      161.142      148.289       80.653        0.540        0.020      101.622        5.191        0.003      334.469        4.463      871.194
11/05/2014  02:33:00      -95.328      -36.767      -13.957       14.290       13.739        9.355      204.215      188.772       87.523        0.556        0.024      102.173        6.517        0.004      334.512        4.532      871.199
11/05/2014  02:34:00      -84.203      -24.527      -10.542       15.072       18.818        8.933      227.153      354.127       79.796        0.423        0.033       87.702        5.991        0.005      334.548        4.593      871.202
11/05/2014  02:35:00     -104.221      -22.010      -12.684       17.348       13.430       11.085      300.963      180.361      122.886        0.606        0.030      106.520       10.534        0.010      334.528        4.560      871.202
11/05/2014  02:36:00     -123.005      -28.798      -14.274        9.640        9.171        8.425       92.932       84.113       70.984        0.821        0.012      126.331        4.825        0.001      334.514        4.538      871.189
11/05/2014  02:37:00     -104.969      -33.518       -7.910       16.432       13.255       11.741      270.017      175.707      137.857        0.639        0.029      110.191        8.752        0.006      334.521        4.547      871.184
11/05/2014  02:38:00      -82.822      -35.604       -1.328       17.035       11.862       10.219      290.181      140.713      104.433        0.433        0.027       90.150        6.401        0.005      334.501        4.515      871.176
11/05/2014  02:39:00      -80.112      -36.715      -15.083        8.797       10.433        7.854       77.387      108.840       61.683        0.412        0.012       88.124        4.072        0.002      334.467        4.459      871.174
11/05/2014  02:40:00      -85.628      -33.191      -12.424        8.816        8.756        6.994       77.721       76.670       48.917        0.440        0.010       91.836        4.412        0.002      334.453        4.434      871.184
11/05/2014  02:41:00      -97.704      -39.924      -11.866       10.447        9.791        8.483      109.129       95.855       71.955        0.578        0.014      105.546        3.983        0.001      334.470        4.464      871.186
11/05/2014  02:42:00     -112.663      -28.915      -13.549       11.929       12.784        8.825      142.301      163.430       77.880        0.705        0.019      116.314        5.765        0.002      334.414        4.372      871.192
11/05/2014  02:43:00     -114.813      -39.249      -12.245       10.395       11.945        8.781      108.049      142.680       77.113        0.760        0.016      121.337        6.503        0.003      334.393        4.337      871.192
11/05/2014  02:44:00     -109.225      -26.803       -9.011       22.850       17.127       13.981      522.142      293.332      195.457        0.687        0.051      112.466       13.749        0.015      334.320        4.214      871.190
11/05/2014  02:45:00      -89.337      -44.036       -9.992       29.143       21.856       20.310      849.310      477.678      412.481        0.588        0.087       99.601       18.141        0.033      334.278        4.146      871.190
11/05/2014  02:46:00      -92.621      -25.522       -5.556       28.506       26.793       15.498      812.579      717.840      240.195        0.552        0.089       96.073       14.333        0.022      334.259        4.114      871.188
11/05/2014  02:47:00     -107.216      -12.205       -8.175       25.070       16.086       15.408      628.488      258.761      237.401        0.642        0.056      107.909       15.620        0.021      334.206        4.026      871.197
11/05/2014  02:48:00      -90.465      -26.183      -11.088       26.710       18.651       11.289      713.440      347.864      127.446        0.509        0.059       94.177       10.466        0.012      334.240        4.083      871.210
11/05/2014  02:49:00     -101.184      -28.889      -14.081       26.933       19.634       15.779      725.409      385.508      248.962        0.632        0.068      105.227       14.558        0.019      334.210        4.032      871.230
11/05/2014  02:50:00     -102.273      -44.524      -16.346       20.747       17.914       11.976      430.420      320.921      143.417        0.680        0.045      111.544        9.027        0.007      334.238        4.079      871.233
11/05/2014  02:51:00      -84.963      -53.002       -9.543       27.909       21.358       13.529      778.900      456.176      183.023        0.577        0.071      100.140       14.054        0.020      334.238        4.080      871.232
11/05/2014  02:52:00     -111.643      -60.931      -10.548       18.277       18.935       15.221      334.031      358.541      231.672        0.861        0.046      127.188        8.505        0.004      334.212        4.034      871.216
11/05/2014  02:53:00      -97.619      -51.494       -8.733       18.107       21.124       15.177      327.874      446.240      230.353        0.663        0.050      110.368       11.319        0.011      334.229        4.065      871.191
11/05/2014  02:54:00     -112.643      -50.357      -21.514       13.108       14.739        8.500      171.814      217.251       72.253        0.807        0.023      123.387        5.524        0.002      334.237        4.077      871.165
11/05/2014  02:55:00     -121.910      -44.332      -13.878       15.447       14.128       11.094      238.601      199.588      123.086        0.879        0.028      129.720        7.744        0.004      334.220        4.050      871.157
11/05/2014  02:56:00     -113.415      -37.913      -14.451       14.430       17.161       14.816      208.236      294.516      219.517        0.762        0.036      119.584        4.396        0.001      334.223        4.054      871.165
11/05/2014  02:57:00     -106.013      -45.531      -12.518       13.839       12.793       10.161      191.505      163.658      103.238        0.696        0.023      115.377        5.813        0.003      334.293        4.171      871.187
11/05/2014  02:58:00      -86.590      -47.616      -10.776       11.050       17.411        9.016      122.105      303.141       81.286        0.519        0.025       98.819        4.804        0.002      334.324        4.222      871.213
11/05/2014  02:59:00      -89.231      -35.656      -17.128       12.916       13.355        9.539      166.822      178.356       90.986        0.498        0.022       96.091        7.571        0.006      334.292        4.170      871.228
11/05/2014  03:00:00      -96.641      -24.079      -17.230       11.240        9.908       10.036      126.346       98.160      100.724        0.527        0.016       99.596        3.608        0.001      334.300        4.182      871.238
11/05/2014  03:01:00      -90.556      -22.606       -3.467       18.924       15.867       10.194      358.117      251.756      103.912        0.472        0.036       93.335        9.098        0.010      334.330        4.233      871.240
11/05/2014  03:02:00      -77.908      -21.571       -9.173       12.900       12.235        9.585      166.400      149.691       91.865        0.351        0.020       80.840        8.373        0.011      334.362        4.286      871.238
11/05/2014  03:03:00      -85.205      -25.895       -8.260       11.186        8.247        7.692      125.119       68.009       59.168        0.413        0.013       89.053        5.004        0.003      334.385        4.324      871.211
11/05/2014  03:04:00      -75.664      -21.645      -12.274        9.966        9.774        6.761       99.318       95.530       45.713        0.329        0.012       78.699        5.206        0.004      334.424        4.388      871.178
11/05/2014  03:05:00      -68.115      -22.147       -8.863        8.127        7.891        6.920       66.048       62.266       47.893        0.269        0.009       71.625        3.279        0.002      334.411        4.365      871.146
11/05/2014  03:06:00      -77.342      -17.371      -12.128        9.832        8.603        7.623       96.671       74.003       58.110        0.333        0.011       79.269        3.802        0.002      334.391        4.332      871.111
11/05/2014  03:07:00      -87.789      -24.360      -14.086        7.835        8.936        5.634       61.389       79.854       31.744        0.434        0.009       91.106        2.359        0.001      334.363        4.287      871.082
11/05/2014  03:08:00      -95.260      -24.230       -9.684       13.545       12.546        7.392      183.472      157.415       54.649        0.508        0.020       98.294        3.392        0.001      334.404        4.356      871.073
11/05/2014  03:09:00     -105.904      -27.038      -15.412       11.916       12.948        9.364      141.991      167.648       87.679        0.629        0.020      109.301        4.301        0.002      334.367        4.295      871.071
11/05/2014  03:10:00      -99.394      -28.848      -10.973       17.298       14.544       11.781      299.236      211.538      138.781        0.574        0.032      103.496        8.449        0.007      334.333        4.236      871.085
11/05/2014  03:11:00      -94.025      -27.560       -2.843       18.263       14.863       11.612      333.539      220.898      134.837        0.515        0.034       97.981       10.343        0.011      334.312        4.204      871.099
11/05/2014  03:12:00      -99.807      -46.819       -5.097       14.684       19.849       11.480      215.622      393.997      131.792        0.646        0.037      110.243        8.609        0.006      334.224        4.055      871.114
11/05/2014  03:13:00      -86.534      -53.762       -2.127       20.170       21.604       17.686      406.816      466.715      312.810        0.578        0.059      101.875       12.526        0.015      334.239        4.081      871.113
11/05/2014  03:14:00      -62.584      -42.446        2.832       30.050       23.430       15.515      903.027      548.979      240.722        0.371        0.085       75.621       13.574        0.032      334.269        4.130      871.114
11/05/2014  03:15:00      -84.796      -45.084       -4.006       21.719       17.116       14.981      471.697      292.971      224.445        0.511        0.049       96.036        8.433        0.008      334.224        4.056      871.111
11/05/2014  03:16:00      -57.819      -37.821       -0.554       21.969       13.895       13.579      482.647      193.074      184.390        0.282        0.043       69.091       11.217        0.026      334.250        4.099      871.102
11/05/2014  03:17:00      -54.997      -31.242       -2.084       31.125       12.150        9.494      968.784      147.623       90.137        0.261        0.060       63.251       12.697        0.040      334.274        4.140      871.098
11/05/2014  03:18:00      -23.618      -37.916       -4.145       19.728       16.184       12.483      389.180      261.919      155.813        0.141        0.040       44.670       10.116        0.051      334.382        4.319      871.105
11/05/2014  03:19:00      -47.865      -37.898       -5.155       17.611       10.171       11.124      310.133      103.457      123.749        0.215        0.027       61.052        6.654        0.012      334.405        4.357      871.126
11/05/2014  03:20:00      -59.589      -30.638        2.582       28.379       13.507       16.862      805.343      182.430      284.342        0.288        0.064       67.004       16.208        0.059      334.391        4.333      871.155
11/05/2014  03:21:00      -95.501      -49.734       -6.938       14.727       17.985       14.548      216.878      323.478      211.642        0.620        0.038      107.675        9.067        0.007      334.328        4.229      871.185
11/05/2014  03:22:00      -76.032      -52.589       -1.894       27.988       27.536       22.354      783.304      758.236      499.693        0.530        0.102       92.447       18.607        0.041      334.310        4.199      871.210
11/05/2014  03:23:00      -71.575      -55.278       -4.955       24.238       16.249       11.084      587.466      264.041      122.858        0.459        0.049       90.436        9.081        0.010      334.321        4.217      871.228
11/05/2014  03:24:00      -39.436      -54.845        1.677       28.741       24.026       15.009      826.034      577.267      225.281        0.310        0.081       67.551       15.001        0.049      334.465        4.454      871.243
11/05/2014  03:25:00      -48.768      -44.413        2.290       29.153       15.179       14.013      849.886      230.388      196.377        0.282        0.064       65.961       15.520        0.055      334.374        4.305      871.233
11/05/2014  03:26:00      -45.489      -37.139       -0.857       31.028       17.919       14.894      962.745      321.095      221.833        0.248        0.075       58.724       15.322        0.068      334.374        4.306      871.216
11/05/2014  03:27:00      -64.205      -38.458       -6.458       26.233       16.900       12.951      688.151      285.603      167.724        0.339        0.057       74.842        9.595        0.016      334.325        4.224      871.200
11/05/2014  03:28:00     -102.328      -59.950       -5.749       13.011       12.820        8.078      169.279      164.365       65.252        0.725        0.020      118.596        3.998        0.001      334.406        4.358      871.194
11/05/2014  03:29:00      -81.012      -49.248        1.915       23.631       17.972       16.616      558.448      322.998      276.100        0.507        0.058       94.807       13.506        0.020      334.358        4.277      871.193
11/05/2014  03:30:00      -59.102      -33.695        0.902       21.933       13.224       13.515      481.042      174.884      182.657        0.273        0.042       68.032       13.895        0.042      334.339        4.248      871.208
11/05/2014  03:31:00      -31.717      -18.802        6.479       21.530       12.668       11.181      463.556      160.485      125.011        0.108        0.037       36.871       11.539        0.098      334.358        4.278      871.231
11/05/2014  03:32:00      -17.925       -9.545        2.446       11.973       17.144       10.505      143.346      293.934      110.352        0.048        0.027       20.308       10.576        0.271      334.398        4.344      871.254
11/05/2014  03:33:00      -35.901      -18.516       -4.060        9.004        7.896        7.522       81.073       62.341       56.586        0.092        0.010       40.395        4.599        0.013      334.443        4.419      871.280
11/05/2014  03:34:00      -64.474       -6.102       -6.289       14.601        9.447        7.321      213.193       89.245       53.599        0.229        0.018       64.762        6.177        0.009      334.416        4.373      871.296
11/05/2014  03:35:00      -83.619      -22.504       -9.942        9.635       12.523        7.258       92.837      156.838       52.685        0.395        0.015       86.594        5.928        0.005      334.365        4.290      871.315
11/05/2014  03:36:00     -120.585      -19.435      -18.030       18.429       13.070       12.383      339.616      170.819      153.351        0.795        0.033      122.141       11.119        0.008      334.268        4.129      871.329
11/05/2014  03:37:00     -130.280      -19.273      -15.098       31.675       15.444       17.041     1003.296      238.512      290.393        0.955        0.077      131.698       17.625        0.018      334.182        3.984      871.345
11/05/2014  03:38:00     -112.963      -17.428       -9.324       29.558       24.731       17.577      873.664      611.625      308.944        0.747        0.090      114.299       17.531        0.024      334.131        3.901      871.347
11/05/2014  03:39:00      -89.455      -13.452       -9.640       28.842       19.899       15.381      831.854      395.969      236.586        0.487        0.073       90.461       15.925        0.031      334.077        3.812      871.329
11/05/2014  03:40:00      -68.384      -19.246       -8.803       25.339       17.390       10.714      642.060      302.419      114.794        0.309        0.053       71.041       11.437        0.026      334.075        3.807      871.303
11/05/2014  03:41:00      -67.236      -21.058      -11.416       16.685       12.290        8.582      278.380      151.049       73.657        0.280        0.025       70.457        3.795        0.003      334.062        3.786      871.265
11/05/2014  03:42:00      -73.232      -11.642      -10.289        7.216        8.463        5.966       52.065       71.616       35.592        0.288        0.008       74.152        3.495        0.002      334.090        3.832      871.247
11/05/2014  03:43:00      -78.841      -10.135      -12.965        9.535       11.480        6.295       90.916      131.797       39.621        0.337        0.013       79.490        4.484        0.003      334.101        3.851      871.236
11/05/2014  03:44:00      -69.444      -18.390       -9.630       12.263       12.219        7.901      150.385      149.315       62.431        0.281        0.018       71.837        5.023        0.005      334.111        3.868      871.237
11/05/2014  03:45:00      -88.760      -10.950      -16.752        7.439        8.583        7.126       55.333       73.671       50.777        0.423        0.009       89.433        5.315        0.004      334.090        3.833      871.250
11/05/2014  03:46:00      -80.265      -16.196      -12.357       16.375       12.879       10.367      268.157      165.880      107.483        0.370        0.027       81.883        7.720        0.009      334.082        3.823      871.272
11/05/2014  03:47:00      -85.399      -26.016      -14.111        6.803        6.924        6.799       46.283       47.942       46.221        0.415        0.007       89.274        4.098        0.002      334.127        3.894      871.284
11/05/2014  03:48:00      -93.199      -25.954       -7.992       15.793       11.065        9.479      249.413      122.437       89.858        0.494        0.023       96.745        8.318        0.007      334.196        4.010      871.285
11/05/2014  03:49:00      -81.047      -25.454       -1.704       18.823       14.891       11.392      354.293      221.754      129.785        0.396        0.035       84.950        8.325        0.010      334.165        3.957      871.287
11/05/2014  03:50:00      -96.907      -27.479       -4.539       20.929       15.292       13.521      438.039      233.845      182.822        0.551        0.043      100.728       12.689        0.016      334.196        4.008      871.279
11/05/2014  03:51:00     -100.174      -16.444       -7.094       17.179       11.115       10.486      295.134      123.547      109.949        0.544        0.026      101.515        9.353        0.008      334.227        4.062      871.266
11/05/2014  03:52:00      -87.141       -7.720       -4.802       22.421       13.531       15.040      502.723      183.084      226.207        0.429        0.046       87.482       13.469        0.024      334.176        3.976      871.258
11/05/2014  03:53:00     -112.800       -6.052      -11.226       20.064       10.787        9.764      402.576      116.368       95.327        0.675        0.031      112.962        9.847        0.008      334.140        3.915      871.257
11/05/2014  03:54:00     -132.187       -5.700      -17.059       14.571        9.536        8.535      212.304       90.944       72.843        0.909        0.019      132.309        7.686        0.003      334.124        3.889      871.256
11/05/2014  03:55:00     -113.537       -7.901      -13.549       20.092       10.927       13.422      403.701      119.392      180.162        0.692        0.035      113.811       11.042        0.009      334.117        3.878      871.262
11/05/2014  03:56:00     -114.494      -19.225      -15.766       13.032        7.830        8.457      169.842       61.304       71.527        0.701        0.015      116.097        5.359        0.002      334.121        3.884      871.263
11/05/2014  03:57:00      -91.372      -26.317      -10.465       17.193       13.202       11.621      295.594      174.295      135.059        0.488        0.030       95.086       10.356        0.012      334.132        3.903      871.259
11/05/2014  03:58:00      -86.499      -30.780       -7.476       18.645       11.270       10.160      347.649      127.021      103.219        0.453        0.029       91.812        9.721        0.011      334.214        4.039      871.248
11/05/2014  03:59:00      -99.237      -14.860      -10.825       11.309       10.252        6.774      127.902      105.100       45.883        0.523        0.014      100.343        4.450        0.002      334.241        4.083      871.245
11/05/2014  04:00:00     -101.045       -2.105      -13.830       10.639        9.625        9.409      113.195       92.634       88.532        0.535        0.015      101.067        4.154        0.002      334.103        3.855      871.239
11/05/2014  04:01:00      -91.533       -3.460       -7.395       22.569       17.804       14.015      509.363      316.981      196.409        0.473        0.051       91.598       13.889        0.023      334.104        3.856      871.246
11/05/2014  04:02:00     -113.948       -7.905      -12.244       18.996       10.099       10.327      360.866      101.981      106.650        0.688        0.028      114.222        7.794        0.005      334.088        3.831      871.258
11/05/2014  04:03:00      -70.901      -19.164       -9.928       18.874       16.140       11.124      356.212      260.497      123.749        0.312        0.037       73.445       11.358        0.024      334.007        3.698      871.266
11/05/2014  04:04:00      -70.157      -33.166      -10.697       13.647       13.747        9.713      186.250      188.980       94.339        0.330        0.023       77.602        8.268        0.011      333.905        3.528      871.271
11/05/2014  04:05:00      -43.363      -42.264       -8.419       19.780       17.546       22.081      391.253      307.858      487.555        0.246        0.059       60.553       14.027        0.054      333.887        3.497      871.267
11/05/2014  04:06:00      -38.081      -39.909       -0.659       21.108       21.740       17.656      445.542      472.618      311.724        0.214        0.061       55.162       11.432        0.043      333.899        3.517      871.253
11/05/2014  04:07:00      -68.895      -23.593      -12.963       21.798       15.402       13.495      475.145      237.228      182.107        0.318        0.045       72.823       11.370        0.024      333.887        3.498      871.234
11/05/2014  04:08:00      -73.651      -28.074      -18.417       17.843       21.425       12.307      318.367      459.026      151.457        0.374        0.046       78.820       10.138        0.017      333.913        3.541      871.216
11/05/2014  04:09:00      -71.914      -33.142       -7.958       20.255       20.827       20.317      410.265      433.757      412.780        0.379        0.063       79.184       10.746        0.018      333.940        3.584      871.206
11/05/2014  04:10:00     -104.016      -21.389      -11.119       21.262       18.858       12.529      452.088      355.630      156.969        0.618        0.048      106.193       13.848        0.017      333.878        3.482      871.207
11/05/2014  04:11:00      -95.466      -23.840      -16.262       17.548       16.340       12.669      307.929      267.007      160.507        0.534        0.037       98.398       11.388        0.013      333.901        3.520      871.211
11/05/2014  04:12:00      -97.439      -32.285       -9.677        9.079       10.305        6.609       82.428      106.189       43.681        0.543        0.012      102.649        2.676        0.001      333.936        3.579      871.216
11/05/2014  04:13:00      -83.769      -16.242      -15.552       13.298       13.616        9.997      176.840      185.384       99.941        0.399        0.023       85.329        8.654        0.010      333.926        3.562      871.218
11/05/2014  04:14:00      -84.684      -22.224      -11.330       14.881        8.017        7.674      221.449       64.279       58.886        0.407        0.017       87.552        5.173        0.003      333.957        3.613      871.219
11/05/2014  04:15:00      -87.859      -17.871      -11.292       15.724       10.530       10.860      247.260      110.874      117.947        0.432        0.024       89.658        5.614        0.004      333.979        3.650      871.219
11/05/2014  04:16:00      -85.547      -18.251      -10.511       13.640       13.401        9.975      186.040      179.590       99.492        0.411        0.023       87.473        7.574        0.007      333.987        3.663      871.228
11/05/2014  04:17:00     -102.788      -21.362      -11.740       10.681        9.373        7.885      114.076       87.845       62.167        0.571        0.013      104.984        5.574        0.003      334.060        3.784      871.242
11/05/2014  04:18:00      -81.263      -26.605       -7.804       24.859       18.365       12.927      617.950      337.273      167.120        0.425        0.056       85.507       12.800        0.022      333.986        3.661      871.261
11/05/2014  04:19:00     -106.204      -21.316      -14.523       13.589       12.948       11.200      184.660      167.643      125.440        0.621        0.024      108.322        7.186        0.004      334.008        3.697      871.295
11/05/2014  04:20:00      -92.936      -25.804       -8.162       10.023        8.315        7.424      100.453       69.145       55.118        0.480        0.011       96.452        4.324        0.002      334.022        3.721      871.326
11/05/2014  04:21:00      -84.782      -33.695      -10.874       12.529       11.489        9.873      156.964      131.994       97.476        0.441        0.019       91.233        4.003        0.002      334.052        3.771      871.352
11/05/2014  04:22:00      -72.718      -35.990       -9.802        9.935        8.394        6.944       98.697       70.457       48.223        0.345        0.011       81.136        3.319        0.002      334.058        3.781      871.364
11/05/2014  04:23:00      -59.489      -29.913       -0.902       19.992       11.108       13.122      399.693      123.381      172.199        0.256        0.035       66.586       11.644        0.031      334.058        3.780      871.367
11/05/2014  04:24:00      -64.647      -23.138       -5.861        9.254       11.424        7.390       85.634      130.513       54.608        0.251        0.014       68.663        5.147        0.006      334.076        3.810      871.367
11/05/2014  04:25:00      -75.048      -20.994       -8.252        8.564       12.437        6.743       73.340      154.668       45.472        0.321        0.014       77.929        3.951        0.003      334.068        3.797      871.378
11/05/2014  04:26:00      -86.850      -23.837      -10.524       11.908       10.958        7.424      141.791      120.067       55.113        0.427        0.016       90.062        4.487        0.002      334.124        3.890      871.399
11/05/2014  04:27:00      -84.343      -12.527      -12.290        6.717        7.144        6.914       45.123       51.035       47.801        0.378        0.007       85.269        3.591        0.002      334.052        3.769      871.423
11/05/2014  04:28:00      -95.119      -28.239      -10.627        8.387        7.556        7.686       70.335       57.095       59.080        0.507        0.009       99.222        4.010        0.002      334.043        3.756      871.445
11/05/2014  04:29:00     -107.489      -23.951      -14.351        8.623       10.045        8.295       74.360      100.911       68.802        0.629        0.012      110.125        1.910        0.000      333.997        3.680      871.453
11/05/2014  04:30:00      -95.105      -23.618       -7.903       15.929       10.067       10.364      253.731      101.338      107.410        0.506        0.023       97.993        6.365        0.004      333.998        3.681      871.456
11/05/2014  04:31:00      -77.662      -27.522      -16.700       23.462       17.264       11.980      550.453      298.054      143.518        0.403        0.050       82.395        6.504        0.006      334.013        3.706      871.462
11/05/2014  04:32:00      -92.540       -8.415       -8.048       27.642       13.362       12.474      764.092      178.556      155.596        0.490        0.055       92.922       12.282        0.017      334.038        3.747      871.456
11/05/2014  04:33:00     -102.066      -16.320      -14.680       14.271       11.060        9.256      203.668      122.328       85.671        0.566        0.021      103.362        6.628        0.004      334.134        3.906      871.463
11/05/2014  04:34:00      -96.277      -22.720      -14.431        6.486        8.863        6.515       42.070       78.556       42.442        0.508        0.008       98.922        3.327        0.001      334.102        3.853      871.472
11/05/2014  04:35:00      -95.391      -21.439      -18.847        8.665       12.204        7.988       75.090      148.940       63.804        0.510        0.014       97.770        6.698        0.005      334.099        3.850      871.484
11/05/2014  04:36:00      -84.902      -31.782       -5.908       10.480       11.489       10.652      109.834      131.997      113.464        0.430        0.018       90.656        5.915        0.004      334.109        3.865      871.493
11/05/2014  04:37:00      -90.481      -22.446       -6.904       16.248       15.424       11.935      263.985      237.885      142.448        0.469        0.032       93.224       11.702        0.016      334.115        3.874      871.498
11/05/2014  04:38:00      -95.904      -31.510      -11.679       10.505        9.583        9.608      110.352       91.842       92.321        0.531        0.015      100.948        6.435        0.004      334.104        3.857      871.499
11/05/2014  04:39:00      -91.874      -31.003      -12.775        7.065        7.305        5.144       49.920       53.365       26.463        0.485        0.006       96.964        2.109        0.000      334.057        3.780      871.493
11/05/2014  04:40:00      -82.780      -18.778      -10.064        9.583        9.133        5.685       91.837       83.409       32.320        0.376        0.010       84.883        3.924        0.002      334.044        3.756      871.487
11/05/2014  04:41:00      -67.357      -12.755       -8.765       13.982        9.944        8.107      195.501       98.881       65.718        0.257        0.018       68.554        8.148        0.014      334.020        3.719      871.475
11/05/2014  04:42:00      -83.576      -11.078      -12.153       12.813       10.297        9.647      164.176      106.035       93.071        0.381        0.018       84.307        6.080        0.005      334.029        3.734      871.467
11/05/2014  04:43:00      -77.436      -21.161       -9.658       14.138       11.661        9.610      199.885      135.986       92.360        0.348        0.021       80.275        8.213        0.010      334.039        3.750      871.462
11/05/2014  04:44:00      -92.218      -35.913       -7.557        9.257       10.190        7.185       85.686      103.840       51.631        0.505        0.012       98.964        2.903        0.001      334.087        3.828      871.462
11/05/2014  04:45:00      -65.839      -24.703       -2.358       21.471       13.328        9.561      461.000      177.638       91.408        0.284        0.037       70.321       10.351        0.022      334.046        3.760      871.467
11/05/2014  04:46:00      -38.868      -18.486        3.743       23.421       13.086       11.514      548.522      171.233      132.566        0.136        0.043       43.040        9.066        0.044      333.987        3.663      871.484
11/05/2014  04:47:00       -9.990      -10.951        4.878       13.483        7.729        9.808      181.800       59.732       96.202        0.029        0.017       14.823        5.183        0.122      333.921        3.555      871.488
11/05/2014  04:48:00      -45.042      -25.473       -4.922       21.761       14.553        6.534      473.559      211.777       42.699        0.171        0.036       51.745        6.499        0.016      334.039        3.750      871.482
11/05/2014  04:49:00      -69.148      -33.838       -1.311       10.420       14.474        8.791      108.574      209.483       77.290        0.316        0.020       76.984        5.774        0.006      334.032        3.737      871.483
11/05/2014  04:50:00      -70.748      -39.399       -2.388       19.133       12.610       10.783      366.084      159.012      116.265        0.360        0.032       80.979       10.803        0.018      333.954        3.609      871.484
11/05/2014  04:51:00      -83.544      -12.546      -11.623       13.113       13.504       11.019      171.943      182.366      121.415        0.387        0.024       84.481        5.361        0.004      333.870        3.471      871.495
11/05/2014  04:52:00      -88.122      -13.199       -6.944       23.443       15.687       13.879      549.558      246.093      192.618        0.449        0.049       89.105       12.240        0.019      333.887        3.496      871.511
11/05/2014  04:53:00      -70.263      -14.395       -4.321       24.641       16.924       13.436      607.172      286.423      180.530        0.312        0.054       71.722       12.461        0.030      333.815        3.376      871.523
11/05/2014  04:54:00      -62.015      -19.943        2.367       21.581       18.005       10.994      465.757      324.197      120.872        0.258        0.046       65.143        9.599        0.022      333.756        3.280      871.535
11/05/2014  04:55:00      -70.726      -16.825        0.697       32.159       16.524       13.589     1034.194      273.055      184.658        0.339        0.075       72.700        6.001        0.007      333.703        3.191      871.532
11/05/2014  04:56:00      -72.341      -18.302       -0.031       26.871       19.586       15.351      722.048      383.613      235.653        0.345        0.067       74.621       13.419        0.032      333.766        3.296      871.520
11/05/2014  04:57:00      -75.356      -13.658       -1.078       28.580       19.113       15.135      816.836      365.300      229.054        0.364        0.071       76.583        9.146        0.014      333.751        3.271      871.516
11/05/2014  04:58:00      -80.943      -16.196       -6.055       21.786       15.976       10.442      474.613      255.232      109.033        0.384        0.042       82.548        9.087        0.012      333.707        3.199      871.512
11/05/2014  04:59:00      -81.625      -27.545        1.801       21.932       19.195       14.997      481.018      368.444      224.904        0.425        0.054       86.148        9.660        0.013      333.689        3.167      871.515
11/05/2014  05:00:00      -87.255      -28.255        1.708       28.400       24.635       13.696      806.576      606.859      187.591        0.501        0.080       91.715       12.361        0.018      333.741        3.255      871.512
11/05/2014  05:01:00      -88.260      -32.409       -0.861       28.582       24.746       16.482      816.951      612.368      271.669        0.527        0.085       94.022       15.159        0.026      333.733        3.241      871.523
11/05/2014  05:02:00      -96.499      -38.368        0.442       21.782       20.883       13.533      474.455      436.098      183.131        0.594        0.055      103.846       12.096        0.014      333.745        3.261      871.523
11/05/2014  05:03:00      -81.112      -41.909        4.209       35.108       23.798       19.039     1232.569      566.350      362.465        0.526        0.108       91.299       17.999        0.039      333.795        3.345      871.523
11/05/2014  05:04:00      -86.042      -27.627        5.407       39.483       26.251       16.894     1558.913      689.125      285.396        0.536        0.127       90.369       17.204        0.036      333.741        3.255      871.514
11/05/2014  05:05:00     -108.680      -49.507        1.183       33.652       24.934       15.271     1132.474      621.699      233.203        0.813        0.099      119.425       14.378        0.014      333.738        3.251      871.509
11/05/2014  05:06:00     -109.301      -38.054       -0.758       21.151       23.421       17.095      447.357      548.555      292.254        0.734        0.064      115.736       12.686        0.012      333.701        3.188      871.509
11/05/2014  05:07:00     -103.778      -33.736        0.215       26.153       22.675       16.998      684.005      514.143      288.928        0.670        0.074      109.123       14.813        0.018      333.642        3.091      871.509
11/05/2014  05:08:00     -112.636      -40.249        5.888       30.106       21.827       15.965      906.366      476.436      254.869        0.799        0.082      119.611       15.784        0.017      333.693        3.175      871.515
11/05/2014  05:09:00     -133.316      -47.092       -3.298       24.049       26.935       13.221      578.345      725.500      174.798        1.074        0.074      141.389       13.322        0.009      333.660        3.119      871.521
11/05/2014  05:10:00     -140.577      -38.283       -7.338       22.429       17.848       13.581      503.074      318.564      184.445        1.114        0.050      145.696       11.519        0.006      333.644        3.094      871.540
11/05/2014  05:11:00     -119.544      -26.731       -4.840       35.980       26.752       17.276     1294.559      715.646      298.451        0.867        0.115      122.497       17.793        0.021      333.605        3.029      871.547
11/05/2014  05:12:00     -104.601      -14.115       -1.264       35.374       17.200       19.138     1251.312      295.824      366.273        0.653        0.096      105.549       20.091        0.036      333.506        2.864      871.545
11/05/2014  05:13:00     -109.846      -14.671       -3.062       38.722       22.223       17.587     1499.362      493.859      309.308        0.730        0.115      110.822       20.324        0.034      333.465        2.795      871.544
11/05/2014  05:14:00     -121.605       -7.561       -3.396       29.047       20.328       21.128      843.751      413.213      446.388        0.828        0.085      121.840       18.879        0.024      333.470        2.804      871.539
11/05/2014  05:15:00     -107.892      -13.300       -6.995       30.667       18.629       18.487      940.454      347.030      341.756        0.675        0.081      108.709       13.720        0.016      333.528        2.901      871.530
11/05/2014  05:16:00      -90.741      -16.368       -5.295       34.247       20.296       13.976     1172.833      411.943      195.323        0.515        0.089       92.206       16.038        0.030      333.565        2.962      871.517
11/05/2014  05:17:00      -98.280      -11.070       -7.942       24.340       18.093       16.138      592.442      327.344      260.429        0.551        0.059       98.902       13.263        0.018      333.580        2.988      871.506
11/05/2014  05:18:00      -84.311      -27.601        0.286       20.993       22.334       14.963      440.695      498.818      223.901        0.452        0.058       88.714       13.444        0.023      333.701        3.189      871.499
11/05/2014  05:19:00      -85.890      -18.225       -7.930       33.381       26.261       16.770     1114.310      689.656      281.248        0.493        0.104       87.803       15.980        0.033      333.665        3.128      871.493
11/05/2014  05:20:00     -116.176      -20.831      -14.406       18.518       18.280       12.732      342.932      334.153      162.098        0.749        0.042      118.028        1.484        0.000      333.699        3.185      871.499
11/05/2014  05:21:00     -142.120      -14.116      -10.845       32.212       19.962       23.669     1037.608      398.490      560.200        1.126        0.100      142.820       22.737        0.025      333.620        3.055      871.505
11/05/2014  05:22:00     -145.554       -7.854       -5.775       34.715       24.237       20.025     1205.105      587.423      401.005        1.174        0.110      145.766       19.919        0.019      333.556        2.949      871.514
11/05/2014  05:23:00     -148.984       -8.809       -9.207       37.569       29.805       19.875     1411.409      888.344      395.027        1.253        0.135      149.245       18.142        0.015      333.622        3.057      871.520
11/05/2014  05:24:00     -131.205       -6.733      -13.100       39.410       25.248       21.576     1553.111      637.473      465.534        1.004        0.133      131.377       20.017        0.023      333.625        3.063      871.518
11/05/2014  05:25:00     -126.059       -2.555       -6.468       32.392       25.312       22.941     1049.222      640.690      526.275        0.908        0.111      126.085       17.396        0.019      333.628        3.068      871.507
11/05/2014  05:26:00     -119.619       -2.248       -8.669       39.224       27.100       23.594     1538.516      734.433      556.700        0.861        0.141      119.641       22.514        0.035      333.654        3.110      871.506
11/05/2014  05:27:00     -126.816        2.046      -13.209       23.822       27.817       19.771      567.487      773.771      390.874        0.900        0.087      126.832       13.749        0.012      333.637        3.083      871.503
11/05/2014  05:28:00     -125.887        7.224      -10.627       26.765       27.349       18.384      716.372      747.978      337.970        0.891        0.090      126.094       14.504        0.013      333.663        3.125      871.512
11/05/2014  05:29:00     -125.054       10.166       -5.983       33.559       21.594       17.347     1126.199      466.294      300.912        0.884        0.095      125.467       13.799        0.012      333.694        3.176      871.511
11/05/2014  05:30:00      -99.994        2.835       -4.414       41.435       33.922       19.517     1716.882     1150.715      380.899        0.664        0.162      100.034       15.440        0.024      333.678        3.150      871.505
11/05/2014  05:31:00      -66.834      -11.340        0.249       34.411       24.876       18.556     1184.122      618.815      344.317        0.337        0.107       67.790       18.594        0.075      333.724        3.229      871.496
11/05/2014  05:32:00      -98.820      -10.752       -1.710       35.581       27.739       17.342     1266.025      769.439      300.754        0.611        0.117       99.404       17.867        0.032      333.734        3.242      871.490
11/05/2014  05:33:00     -110.791        1.706       -8.927       38.000       23.396       14.706     1443.982      547.358      216.278        0.728        0.110      110.805       16.868        0.023      333.763        3.291      871.492
11/05/2014  05:34:00      -79.873       -8.793       -2.865       30.393       26.760       17.620      923.711      716.095      310.451        0.421        0.098       80.356       16.042        0.040      333.688        3.166      871.513
11/05/2014  05:35:00      -98.927      -11.086       -3.447       35.079       21.992       17.478     1230.511      483.666      305.490        0.597        0.101       99.546       18.125        0.033      333.691        3.172      871.524
11/05/2014  05:36:00      -97.433       -9.153       -3.601       35.301       25.164       18.097     1246.127      633.245      327.492        0.590        0.110       97.862       19.045        0.038      333.739        3.250      871.530
11/05/2014  05:37:00     -107.973      -16.644       -1.162       30.843       24.779       18.752      951.311      614.017      351.628        0.693        0.096      109.248       16.928        0.024      333.718        3.216      871.530
11/05/2014  05:38:00     -113.884      -26.976       -8.860       22.561       19.966       14.273      509.017      398.625      203.724        0.744        0.056      117.036       13.154        0.013      333.713        3.208      871.528
11/05/2014  05:39:00     -106.016      -12.854       -2.645       37.009       33.510       18.733     1369.690     1122.918      350.932        0.713        0.142      106.792       15.882        0.022      333.654        3.110      871.536
11/05/2014  05:40:00      -97.581      -30.411       -7.078       32.557       27.617       18.842     1059.953      762.707      355.027        0.634        0.109      102.210       16.050        0.025      333.601        3.022      871.543
11/05/2014  05:41:00      -97.356      -16.408      -17.809       20.327       19.660       17.872      413.177      386.501      319.409        0.559        0.056       98.729        9.214        0.009      333.617        3.050      871.554
11/05/2014  05:42:00      -62.462      -38.966       -1.819       33.766       24.525       17.580     1140.110      601.477      309.070        0.374        0.103       73.620       17.101        0.054      333.675        3.144      871.565
11/05/2014  05:43:00     -106.745      -31.403       -0.665       46.215       25.689       18.546     2135.786      659.901      343.972        0.776        0.157      111.269       19.333        0.030      333.693        3.176      871.579
11/05/2014  05:44:00      -93.714      -37.783       -1.062       26.096       20.617       15.468      681.005      425.056      239.247        0.578        0.067      101.044       11.121        0.012      333.659        3.119      871.578
11/05/2014  05:45:00      -80.638      -54.291       -6.361       26.046       18.467       13.557      678.389      341.042      183.801        0.535        0.060       97.211       10.326        0.011      333.753        3.274      871.578
11/05/2014  05:46:00      -66.546      -37.002       -2.124       35.229       19.464       16.161     1241.096      378.852      261.191        0.384        0.094       76.141       18.315        0.058      333.693        3.175      871.576
11/05/2014  05:47:00      -69.339      -45.860       -8.196       10.348       12.657        7.912      107.090      160.189       62.593        0.365        0.016       83.133        5.702        0.005      333.622        3.059      871.571
11/05/2014  05:48:00      -62.482      -47.860       -0.686       27.809       20.213       16.423      773.319      408.562      269.731        0.382        0.073       78.706       15.795        0.040      333.646        3.097      871.568
11/05/2014  05:49:00      -53.087      -42.313        5.719       28.221       23.052       18.769      796.435      531.393      352.257        0.316        0.084       67.887       18.571        0.075      333.561        2.957      871.575
11/05/2014  05:50:00      -56.290      -50.692        4.594       38.743       27.890       20.706     1501.005      777.862      428.735        0.423        0.135       75.751       19.000        0.063      333.544        2.929      871.581
11/05/2014  05:51:00      -49.149      -39.957        5.054       32.300       20.507       17.668     1043.280      420.538      312.154        0.291        0.089       63.342       15.246        0.058      333.544        2.928      871.594
11/05/2014  05:52:00      -55.301      -39.297        3.066       30.717       21.128       16.724      943.547      446.372      279.676        0.314        0.083       67.841       13.709        0.041      333.575        2.978      871.608
11/05/2014  05:53:00      -61.804      -55.372       -4.434       33.155       24.235       14.472     1099.266      587.330      209.425        0.440        0.095       82.981       12.918        0.024      333.606        3.030      871.614
11/05/2014  05:54:00      -73.401      -62.082       -2.579       30.324       27.951       15.487      919.551      781.255      239.849        0.559        0.097       96.134       14.216        0.022      333.625        3.062      871.622
11/05/2014  05:55:00      -72.882      -70.098        0.630       36.956       24.272       20.770     1365.748      589.133      431.385        0.631        0.119      101.121       21.366        0.045      333.619        3.054      871.628
11/05/2014  05:56:00      -86.194      -52.568       -8.550       43.277       33.632       20.217     1872.931     1131.135      408.747        0.684        0.171      100.959       21.682        0.046      333.692        3.172      871.628
11/05/2014  05:57:00     -103.975      -56.739       -6.441       23.920       24.412       15.702      572.187      595.961      246.560        0.774        0.071      118.449       11.905        0.010      333.742        3.255      871.620
11/05/2014  05:58:00      -67.010      -53.472       -0.246       35.850       23.603       16.817     1285.240      557.118      282.826        0.474        0.106       85.730        8.347        0.009      333.674        3.144      871.614
11/05/2014  05:59:00      -70.294      -27.904        7.777       37.215       24.840       17.462     1384.922      617.041      304.907        0.404        0.115       75.630       20.732        0.075      333.631        3.071      871.609
11/05/2014  06:00:00      -70.400      -31.311       -0.870       28.288       21.053       15.435      800.212      443.210      238.233        0.371        0.074       77.049       13.920        0.033      333.652        3.108      871.619
11/05/2014  06:01:00      -93.778      -20.201       -6.028       19.550       16.160       10.878      382.193      261.139      118.340        0.500        0.038       95.929        8.391        0.008      333.687        3.165      871.632
11/05/2014  06:02:00      -92.659      -32.464       -6.028       25.091       15.068       12.863      629.559      227.035      165.450        0.535        0.051       98.182       10.175        0.011      333.692        3.173      871.647
11/05/2014  06:03:00      -81.627      -40.881        0.573       30.590       30.482       16.223      935.766      929.177      263.175        0.523        0.106       91.292       15.731        0.030      333.752        3.273      871.658
11/05/2014  06:04:00     -107.956      -47.319        0.333       27.290       23.454       18.768      744.749      550.078      352.224        0.777        0.082      117.871       18.029        0.023      333.800        3.352      871.667
11/05/2014  06:05:00      -99.121      -52.826       -0.780       30.826       30.766       20.526      950.261      946.517      421.337        0.747        0.116      112.319       18.563        0.027      333.829        3.401      871.679
11/05/2014  06:06:00      -87.942      -44.800       -4.549       24.290       23.145       16.762      590.023      535.679      280.961        0.558        0.070       98.696       14.336        0.021      333.806        3.364      871.690
11/05/2014  06:07:00      -61.470      -25.881       -2.748       23.919       23.354       12.591      572.109      545.426      158.542        0.287        0.064       66.696       10.741        0.026      333.794        3.344      871.706
11/05/2014  06:08:00      -81.271       -8.789       -9.172       15.392       14.614       10.788      236.913      213.564      116.386        0.367        0.028       81.745        7.855        0.009      333.807        3.365      871.718
11/05/2014  06:09:00      -98.805      -16.760       -7.756       12.453       14.898        8.260      155.078      221.952       68.228        0.527        0.022      100.217        5.484        0.003      333.849        3.435      871.736
11/05/2014  06:10:00      -80.684      -21.548       -5.151       26.609       15.533       13.642      708.048      241.271      186.112        0.407        0.057       83.512       12.907        0.024      333.812        3.372      871.748
11/05/2014  06:11:00      -64.126      -14.562       -2.892       23.370       14.212       10.428      546.160      201.993      108.738        0.259        0.043       65.758        8.673        0.017      333.713        3.208      871.755
11/05/2014  06:12:00      -78.652      -10.764       -1.898       18.036       15.255       10.932      325.312      232.712      119.516        0.349        0.034       79.385       10.747        0.018      333.739        3.251      871.764
11/05/2014  06:13:00      -60.322      -10.366        2.805       22.724       12.880       13.972      516.377      165.907      195.229        0.232        0.044       61.206       13.936        0.052      333.684        3.161      871.771
11/05/2014  06:14:00      -64.937      -17.088       -1.976       19.476       18.693        7.589      379.302      349.413       57.594        0.265        0.039       67.147        4.566        0.005      333.753        3.274      871.773
11/05/2014  06:15:00      -58.173      -11.893        0.474       19.863       11.472       11.774      394.553      131.599      138.623        0.210        0.033       59.377       12.437        0.044      333.706        3.196      871.777
11/05/2014  06:16:00      -56.029      -17.054       -6.204       10.936        9.646        8.099      119.589       93.048       65.602        0.187        0.014       58.567        4.311        0.005      333.758        3.284      871.782
11/05/2014  06:17:00      -48.010      -17.332        0.008       15.291        9.480        8.537      233.826       89.880       72.885        0.150        0.020       51.043        7.345        0.021      333.757        3.280      871.786
11/05/2014  06:18:00      -58.350      -15.207      -10.518        9.252       10.982        8.028       85.596      120.597       64.446        0.201        0.014       60.299        6.008        0.010      333.715        3.212      871.798
11/05/2014  06:19:00      -43.491       -3.483       -3.180       13.453       13.414       10.138      180.983      179.933      102.771        0.119        0.023       43.630        9.273        0.045      333.679        3.151      871.813
11/05/2014  06:20:00      -38.860       -9.622        1.123       13.727       11.886        9.494      188.436      141.272       90.127        0.101        0.021       40.034        7.438        0.035      333.650        3.104      871.832
11/05/2014  06:21:00      -60.671        2.983       -8.783        6.774        4.274        5.172       45.893       18.264       26.749        0.193        0.005       60.744        2.217        0.001      333.736        3.247      871.854
11/05/2014  06:22:00      -56.636        3.149       -9.190        5.245        4.378        4.428       27.515       19.167       19.608        0.168        0.003       56.723        1.033        0.000      333.710        3.203      871.860
11/05/2014  06:23:00      -41.626       -5.477       -9.851        8.676        6.758        5.851       75.268       45.670       34.229        0.101        0.008       41.984        4.468        0.011      333.731        3.239      871.868
11/05/2014  06:24:00      -40.632       -5.920       -7.180        8.347        4.670        4.230       69.674       21.805       17.895        0.092        0.005       41.061        3.079        0.006      333.761        3.287      871.870
11/05/2014  06:25:00      -16.208       -7.138       -6.893        6.143        4.290        4.216       37.736       18.407       17.771        0.022        0.004       17.710        2.301        0.017      333.771        3.304      871.868
11/05/2014  06:26:00        4.869       32.018       -3.731       18.341       19.710       13.682      336.390      388.492      187.186        0.099        0.046       32.387        8.762        0.073      333.892        3.505      871.882
11/05/2014  06:27:00        4.306       48.918       -3.872        8.514        8.030        3.466       72.483       64.477       12.013        0.129        0.007       49.107        4.266        0.008      333.949        3.600      871.886
11/05/2014  06:28:00       -2.609       42.024       -3.357        8.592       10.807        5.064       73.829      116.793       25.646        0.100        0.011       42.105        4.571        0.012      333.933        3.572      871.894
11/05/2014  06:29:00        4.760       58.226      -10.257       14.534       11.730        8.523      211.248      137.585       72.639        0.197        0.021       58.420        5.161        0.008      333.960        3.619      871.899
11/05/2014  06:30:00        2.287        2.049        4.055        8.578        8.877        7.807       73.586       78.802       60.954        0.012        0.011        3.071        4.001        1.697      333.822        3.390      871.902
11/05/2014  06:31:00        0.805       25.375       -2.465       12.813       14.869       10.525      164.173      221.088      110.769        0.057        0.025       25.388       10.646        0.176      333.781        3.322      871.906
11/05/2014  06:32:00       14.131       25.350       -3.950        8.345       10.986        6.268       69.635      120.700       39.282        0.054        0.011       29.022        5.467        0.035      333.839        3.417      871.911
11/05/2014  06:33:00       20.963       28.572       -4.967       10.781       21.563        9.718      116.228      464.975       94.446        0.098        0.034       35.437       10.086        0.081      333.818        3.383      871.914
11/05/2014  06:34:00       18.342       42.863       -6.081        9.848       11.301        6.043       96.984      127.711       36.519        0.124        0.013       46.622        4.766        0.010      333.850        3.436      871.923
11/05/2014  06:35:00       19.166       56.600       -6.702       13.356       13.577        7.632      178.378      184.344       58.254        0.202        0.021       59.757        5.981        0.010      333.883        3.490      871.933
11/05/2014  06:36:00       24.310       73.000      -13.793        9.648       10.788        7.734       93.086      116.386       59.811        0.319        0.013       76.941        4.456        0.003      333.850        3.436      871.940
11/05/2014  06:37:00       24.634       32.121       -3.367       18.669       17.826       11.641      348.521      317.779      135.508        0.123        0.040       40.479        8.233        0.041      333.734        3.244      871.942
11/05/2014  06:38:00       34.341       36.797       -3.467       24.028       19.451       13.126      577.343      378.334      172.303        0.184        0.056       50.332        6.062        0.015      333.765        3.293      871.933
11/05/2014  06:39:00       51.455       27.638        0.379       15.488       14.205       10.292      239.894      201.792      105.917        0.198        0.027       58.407        7.144        0.015      333.750        3.270      871.924
11/05/2014  06:40:00       49.824       17.399       11.392       17.946       13.002       13.382      322.061      169.041      179.073        0.179        0.034       52.775        9.800        0.034      333.662        3.124      871.914
11/05/2014  06:41:00       56.521       24.041        7.376       21.225       13.608       18.971      450.512      185.181      359.910        0.241        0.050       61.422       12.327        0.040      333.605        3.029      871.913
11/05/2014  06:42:00       35.109       23.875        9.690       22.919       14.460       13.805      525.292      209.086      190.571        0.141        0.046       42.458       11.298        0.071      333.597        3.016      871.919
11/05/2014  06:43:00       29.326       10.549        9.746       16.762        9.876        9.238      280.960       97.543       85.335        0.076        0.023       31.166        6.415        0.042      333.572        2.974      871.922
11/05/2014  06:44:00       48.186       22.637        0.860       16.121        9.261       10.342      259.882       85.759      106.966        0.164        0.023       53.238        5.652        0.011      333.578        2.981      871.924
11/05/2014  06:45:00       40.240       34.072       11.130       10.269       10.690        8.493      105.451      114.285       72.135        0.160        0.015       52.727        5.246        0.010      333.565        2.965      871.920
11/05/2014  06:46:00       36.016       34.021       23.407       17.374       10.261       11.618      301.870      105.280      134.975        0.177        0.027       49.544        8.989        0.033      333.555        2.947      871.922
11/05/2014  06:47:00       10.508       26.115       27.152       11.285       15.751        8.073      127.360      248.105       65.178        0.099        0.022       28.150        3.129        0.012      333.573        2.976      871.927
11/05/2014  06:48:00      -13.414        2.862        6.658        6.194        7.776        6.646       38.367       60.464       44.173        0.019        0.007       13.716        4.974        0.132      333.632        3.075      871.941
11/05/2014  06:49:00      -10.384       -6.778        2.494       12.854        6.798        6.892      165.217       46.210       47.495        0.021        0.013       12.400        7.267        0.343      333.748        3.266      871.956
11/05/2014  06:50:00      -12.012      -10.659        2.634       14.766       12.082        8.802      218.020      145.976       77.479        0.035        0.022       16.060        7.919        0.243      333.793        3.342      871.979
11/05/2014  06:51:00       -9.159      -13.952        0.829        7.546       10.559        8.631       56.948      111.489       74.486        0.026        0.012       16.690        7.730        0.214      333.709        3.202      871.993
11/05/2014  06:52:00      -11.980        1.326        2.391        7.099        7.262        5.824       50.403       52.735       33.913        0.014        0.007       12.053        4.225        0.123      333.752        3.273      871.998
11/05/2014  06:53:00       -6.767        3.301       -4.565        8.323        6.624        4.059       69.275       43.874       16.477        0.010        0.006        7.529        4.616        0.376      333.837        3.413      872.002
11/05/2014  06:54:00       -7.994       -1.445       -5.253        7.135        3.557        4.431       50.907       12.654       19.629        0.009        0.004        8.123        2.926        0.130      333.919        3.549      872.006
11/05/2014  06:55:00      -29.121       -1.068       -4.935        7.788        4.324        5.518       60.646       18.695       30.446        0.049        0.005       29.141        5.003        0.029      333.789        3.335      872.009
11/05/2014  06:56:00      -28.353       -6.241       -5.982       16.058        8.616        6.897      257.853       74.232       47.562        0.063        0.019       29.032        5.057        0.030      333.844        3.426      872.011
11/05/2014  06:57:00      -37.225       -3.371       -0.976       14.661        8.933       10.294      214.938       79.806      105.962        0.090        0.020       37.378        8.173        0.048      333.744        3.261      872.019
11/05/2014  06:58:00      -27.890       -4.407        2.095       19.674       13.483        8.536      387.068      181.801       72.860        0.072        0.032       28.236        9.389        0.111      333.791        3.337      872.020
11/05/2014  06:59:00      -70.590      -24.136       -5.894       12.059       15.937       13.009      145.417      253.997      169.223        0.308        0.028       74.602        7.475        0.010      333.647        3.099      872.032
11/05/2014  07:00:00      -15.644      -34.707        8.444       36.330       17.036       16.547     1319.842      290.215      273.809        0.170        0.094       38.069       19.815        0.271      333.680        3.154      872.022
11/05/2014  07:01:00      -11.727       -2.720       12.512       16.309       12.969       12.136      265.990      168.187      147.277        0.044        0.029       12.038       10.956        0.828      333.959        3.616      872.028
11/05/2014  07:02:00       -8.412      -11.089        4.603       21.352       11.721       10.043      455.891      137.391      100.863        0.045        0.035       13.919        8.334        0.359      333.914        3.542      872.037
11/05/2014  07:03:00      -34.362      -17.684        4.703       12.488       14.473        9.232      155.943      209.469       85.235        0.098        0.023       38.645       10.239        0.070      333.811        3.371      872.047
11/05/2014  07:04:00      -20.695      -13.131       -0.940       21.623       13.759        8.136      467.570      189.322       66.202        0.066        0.036       24.509        6.304        0.066      333.869        3.468      872.065
11/05/2014  07:05:00      -34.805       -9.723        1.558       12.820       18.429        9.729      164.351      339.637       94.656        0.095        0.030       36.137        7.063        0.038      333.837        3.414      872.069
11/05/2014  07:06:00      -19.705      -14.069        2.648       12.394       12.505        8.960      153.608      156.380       80.290        0.049        0.020       24.212        3.768        0.024      333.843        3.424      872.071
11/05/2014  07:07:00      -14.927       -4.978        5.191       10.847       19.419       11.056      117.663      377.096      122.237        0.045        0.031       15.735        9.181        0.340      333.912        3.538      872.064
11/05/2014  07:08:00      -12.743        2.506        3.969       12.748        8.982        9.812      162.503       80.679       96.273        0.026        0.017       12.987        8.160        0.395      334.014        3.709      872.064
11/05/2014  07:09:00      -44.383       14.579       -1.055       16.128       13.024        7.699      260.106      169.630       59.281        0.134        0.024       46.716        4.331        0.009      333.888        3.498      872.064
11/05/2014  07:10:00      -37.844        6.002       -2.281       11.571        9.967        7.380      133.878       99.349       54.469        0.088        0.014       38.318        5.978        0.024      333.883        3.490      872.067
11/05/2014  07:11:00      -32.083       13.934       -4.256       16.571        9.449        9.494      274.601       89.278       90.139        0.085        0.023       34.978        9.023        0.067      333.967        3.632      872.076
11/05/2014  07:12:00       -9.566        4.875        2.347       13.581        8.760       11.231      184.449       76.744      126.129        0.025        0.019       10.737        9.860        0.843      334.180        3.981      872.080
11/05/2014  07:13:00       -3.181        4.272        8.785        4.573        6.674        4.893       20.909       44.547       23.944        0.010        0.004        5.326        1.814        0.116      334.358        4.278      872.093
11/05/2014  07:14:00       12.555        3.040       -0.051        8.994        6.214       10.451       80.886       38.611      109.232        0.020        0.011       12.918        6.434        0.248      334.221        4.051      872.095
11/05/2014  07:15:00       -6.453       12.466       -2.170       15.131        8.057       10.213      228.932       64.916      104.309        0.030        0.020       14.037        8.079        0.331      334.260        4.115      872.095
11/05/2014  07:16:00      -18.626        1.844       -2.776        9.789        5.957        3.120       95.822       35.480        9.736        0.025        0.007       18.717        4.047        0.047      334.233        4.072      872.095
11/05/2014  07:17:00       -8.213        9.463        4.736        7.743        9.934        7.275       59.962       98.693       52.930        0.020        0.011       12.530        4.903        0.153      334.554        4.604      872.097
11/05/2014  07:18:00       -3.189       13.292       10.726       11.501       12.815       15.471      132.281      164.216      239.360        0.042        0.027       13.669        8.214        0.361      334.528        4.560      872.103
11/05/2014  07:19:00        2.552       26.611       23.244        9.160        9.428        9.859       83.898       88.880       97.204        0.076        0.013       26.733        5.952        0.050      334.515        4.539      872.110
11/05/2014  07:20:00      -23.576       13.920        6.517        9.487       11.159        7.717       90.003      124.519       59.559        0.053        0.014       27.379        6.803        0.062      334.333        4.236      872.139
11/05/2014  07:21:00      -27.957       -1.755       -3.572        8.720        7.398        5.389       76.045       54.738       29.040        0.048        0.008       28.012        4.055        0.021      334.252        4.104      872.162
11/05/2014  07:22:00      -41.750       -0.223        2.692       15.574       13.321        7.985      242.552      177.451       63.756        0.112        0.024       41.750        5.166        0.015      334.229        4.063      872.176
11/05/2014  07:23:00      -38.776      -10.564       -3.570       10.304        8.593        7.564      106.182       73.832       57.222        0.093        0.012       40.190        3.661        0.008      334.241        4.086      872.187
11/05/2014  07:24:00      -27.658       -3.889       -9.603       10.145       13.054        7.009      102.923      170.398       49.127        0.060        0.016       27.930        3.006        0.012      334.333        4.237      872.189
11/05/2014  07:25:00      -31.691       19.055       -9.261        5.687        6.672        4.850       32.345       44.522       23.522        0.078        0.005       36.978        1.869        0.003      334.281        4.151      872.188
11/05/2014  07:26:00      -22.763        3.994       -5.352        7.330        8.236        5.706       53.726       67.837       32.555        0.036        0.008       23.110        4.066        0.031      334.343        4.255      872.182
11/05/2014  07:27:00      -37.606       -6.568       -3.162       13.737       11.155        6.211      188.701      124.438       38.573        0.091        0.018       38.175        4.050        0.011      334.372        4.304      872.175
11/05/2014  07:28:00      -52.167        0.251       -9.102       11.235        8.723        6.996      126.217       76.095       48.943        0.153        0.013       52.168        4.490        0.007      334.362        4.284      872.175
11/05/2014  07:29:00      -54.355       -0.085       -3.811       12.691       11.968        8.862      161.054      143.239       78.534        0.168        0.019       54.355        7.127        0.017      334.380        4.315      872.184
11/05/2014  07:30:00      -60.801        0.713       -5.291       10.601        7.276        5.902      112.371       52.941       34.832        0.196        0.010       60.805        5.571        0.008      334.354        4.272      872.188
11/05/2014  07:31:00      -45.053       -4.102       -4.888       15.399        9.526        5.068      237.119       90.743       25.682        0.121        0.018       45.239        3.350        0.005      334.342        4.252      872.182
11/05/2014  07:32:00      -24.265        7.054       -5.592       11.481       18.044       10.231      131.823      325.581      104.674        0.062        0.028       25.270       10.235        0.164      334.459        4.447      872.182
11/05/2014  07:33:00       -9.860        5.721       -5.411       15.742       20.028        9.536      247.819      401.128       90.927        0.045        0.037       11.400        6.593        0.334      334.653        4.767      872.171
11/05/2014  07:34:00      -10.792       24.898       -1.038       21.464       18.601       13.292      460.703      345.987      176.674        0.086        0.049       27.136        9.405        0.120      334.677        4.807      872.162
11/05/2014  07:35:00      -15.871       27.437        1.858       16.929       16.939       13.825      286.605      286.933      191.117        0.089        0.038       31.697        7.628        0.058      334.909        5.194      872.162
11/05/2014  07:36:00        0.810       52.417        0.423       12.841       26.034       17.378      164.881      677.759      302.001        0.195        0.057       52.423       16.008        0.093      334.911        5.195      872.175
11/05/2014  07:37:00       -6.096       41.423       -0.423       13.296       21.525       17.717      176.780      463.341      313.877        0.135        0.048       41.869       15.837        0.143      334.989        5.325      872.186
11/05/2014  07:38:00       -4.039       28.483        4.002       14.169       19.127       13.810      200.756      365.861      190.712        0.080        0.038       28.768       10.922        0.144      334.977        5.306      872.195
11/05/2014  07:39:00       -2.842       50.415       -5.364       11.946       18.905       17.006      142.698      357.387      289.199        0.168        0.039       50.496       11.509        0.052      334.890        5.160      872.203
11/05/2014  07:40:00       -7.955       47.891       -1.669       13.619       23.353       13.598      185.483      545.369      184.907        0.164        0.046       48.547       10.617        0.048      334.992        5.330      872.209
11/05/2014  07:41:00       -7.552       42.922        3.363       12.576       24.184       14.854      158.151      584.867      220.637        0.144        0.048       43.582       14.636        0.113      335.090        5.493      872.203
11/05/2014  07:42:00      -12.118       52.470       -1.835       17.989       17.389       14.592      323.619      302.391      212.924        0.187        0.042       53.852        7.620        0.020      335.012        5.365      872.203
11/05/2014  07:43:00        6.338       44.069       15.205       19.339       31.997       15.748      373.998     1023.799      247.993        0.193        0.082       44.523       19.126        0.185      335.369        5.957      872.202
11/05/2014  07:44:00       36.584       49.179        7.718       36.693       21.298       18.934     1346.347      453.585      358.505        0.299        0.108       61.294       13.251        0.047      335.198        5.672      872.213
11/05/2014  07:45:00       23.025       40.512       30.149       16.943       16.060       19.312      287.081      257.937      372.939        0.200        0.046       46.598       12.150        0.068      335.183        5.647      872.234
11/05/2014  07:46:00       55.396       63.801       29.908       42.734       23.288       29.105     1826.173      542.343      847.073        0.562        0.161       84.494       29.380        0.121      335.091        5.494      872.265
11/05/2014  07:47:00       74.137       66.332        3.663       16.686       14.514       14.880      278.426      210.669      221.408        0.531        0.036       99.480       11.401        0.013      334.959        5.276      872.294
11/05/2014  07:48:00       56.323       77.486        4.940       24.332       23.111       17.357      592.064      534.099      301.269        0.531        0.071       95.794        8.835        0.009      335.045        5.419      872.321
11/05/2014  07:49:00       50.585       34.658       17.355       22.828       23.169       25.767      521.102      536.821      663.954        0.289        0.086       61.319       17.593        0.082      335.211        5.692      872.345
11/05/2014  07:50:00       65.402       53.054       19.076       34.127       24.920       22.691     1164.667      621.000      514.881        0.488        0.115       84.215       14.754        0.031      335.292        5.829      872.356
11/05/2014  07:51:00       58.049       49.635       41.399       41.300       27.484       33.432     1705.719      755.383     1117.671        0.556        0.179       76.377       24.168        0.100      335.388        5.989      872.360
11/05/2014  07:52:00       14.814       76.778       71.860       19.548       29.329       20.532      382.129      860.205      421.547        0.647        0.083       78.194       15.445        0.039      335.414        6.033      872.360
11/05/2014  07:53:00       69.616       76.839       65.393       46.196       32.169       30.956     2134.079     1034.833      958.272        0.958        0.206      103.685       27.705        0.071      335.105        5.518      872.366
11/05/2014  07:54:00       19.005       58.299       62.900       34.439       41.919       24.278     1186.066     1757.177      589.431        0.562        0.177       61.318       22.709        0.137      335.286        5.819      872.369
11/05/2014  07:55:00       83.299       72.316       34.524       42.238       33.725       37.316     1784.007     1137.361     1392.520        0.884        0.216      110.310       29.757        0.073      335.076        5.470      872.378
11/05/2014  07:56:00       32.145       51.289       52.531       36.914       24.915       17.326     1362.655      620.754      300.202        0.435        0.114       60.530       11.585        0.037      335.261        5.777      872.388
11/05/2014  07:57:00       20.759        9.358       37.522       25.168       21.628       25.432      633.423      467.789      646.768        0.184        0.087       22.771       16.466        0.523      335.600        6.341      872.404
11/05/2014  07:58:00       14.960       34.854       23.639       21.058       20.546       18.984      443.457      422.144      360.400        0.161        0.061       37.929        6.542        0.030      335.451        6.093      872.431
11/05/2014  07:59:00       69.337       40.045       15.035       42.812       28.220       30.567     1832.891      796.353      934.355        0.510        0.178       80.070       13.706        0.029      335.353        5.929      872.445
11/05/2014  08:00:00       33.805       40.515       11.236       29.800       29.741       20.357      888.017      884.537      414.391        0.255        0.109       52.766       11.693        0.049      335.383        5.981      872.459
11/05/2014  08:01:00       16.065       26.934       29.698       28.738       33.748       21.668      825.846     1138.957      469.494        0.215        0.122       31.361       17.423        0.309      335.578        6.304      872.465
11/05/2014  08:02:00       17.414       23.661       41.585       24.593       20.622       17.327      604.791      425.250      300.210        0.196        0.067       29.378       11.493        0.153      335.767        6.620      872.468
11/05/2014  08:03:00       50.138       25.920        9.291       28.920       24.870       26.781      836.347      618.525      717.233        0.272        0.109       56.442       15.406        0.075      335.510        6.192      872.457
11/05/2014  08:04:00        5.225       23.796        7.605       26.218       34.405       27.409      687.363     1183.687      751.230        0.164        0.131       24.363       14.889        0.373      335.658        6.439      872.444
11/05/2014  08:05:00       23.995       40.781       60.218       31.054       28.487       21.450      964.357      811.514      460.123        0.405        0.112       47.316       20.370        0.185      335.568        6.288      872.433
11/05/2014  08:06:00       45.397       49.077       27.684       40.400       30.974       24.324     1632.148      959.396      591.664        0.421        0.159       66.854       17.214        0.066      335.449        6.089      872.427
11/05/2014  08:07:00       11.910       48.601       66.423       32.718       34.637       21.210     1070.497     1199.706      449.863        0.482        0.136       50.039       23.228        0.215      335.678        6.472      872.425
11/05/2014  08:08:00       65.483       82.306       50.497       28.349       18.230       25.719      803.665      332.345      661.460        0.770        0.090      105.178       17.091        0.026      335.359        5.941      872.438
11/05/2014  08:09:00       67.166       63.253       12.932       21.139       16.162       19.527      446.852      261.207      381.316        0.488        0.054       92.261       13.123        0.020      335.200        5.674      872.449
11/05/2014  08:10:00       35.511       34.441       -8.735       20.350       19.340       19.715      414.107      374.040      388.680        0.185        0.059       49.469       11.595        0.055      335.346        5.918      872.455
11/05/2014  08:11:00       81.317       42.610       15.206       22.549       14.946       29.251      508.467      223.379      855.621        0.512        0.079       91.805       16.672        0.033      335.309        5.856      872.457
11/05/2014  08:12:00       40.828       40.151        5.703       21.066       16.350       22.688      443.767      267.306      514.755        0.227        0.061       57.263       13.794        0.058      335.573        6.296      872.450
11/05/2014  08:13:00       28.908       38.762        4.803       23.552       23.515       20.771      554.703      552.972      431.448        0.195        0.077       48.355        8.521        0.031      335.659        6.439      872.443
11/05/2014  08:14:00       -0.354       33.897       31.746       17.627       32.791       23.325      310.721     1075.268      544.033        0.204        0.097       33.898       20.114        0.352      335.926        6.886      872.437
11/05/2014  08:15:00       15.032       27.833       33.066       22.845       21.793       16.457      521.891      474.945      270.836        0.168        0.063       31.633       14.514        0.211      335.981        6.976      872.423
11/05/2014  08:16:00       32.454       37.042       31.390       26.494       20.322       21.436      701.929      412.982      459.491        0.249        0.079       49.248       11.497        0.055      335.977        6.968      872.417
11/05/2014  08:17:00       54.740       45.155       33.406       21.966       16.621       27.257      482.491      276.244      742.940        0.383        0.075       70.961       15.883        0.050      335.713        6.529      872.424
11/05/2014  08:18:00       76.861       39.933       17.198       22.335       36.180       27.726      498.833     1309.006      768.711        0.519        0.129       86.616       23.301        0.072      335.616        6.369      872.425
11/05/2014  08:19:00       76.230       51.170        1.398       21.402       28.084       25.629      458.032      788.736      656.828        0.517        0.095       91.811        9.561        0.011      335.641        6.411      872.423
11/05/2014  08:20:00       70.459       58.390        0.214       36.763       24.317       24.171     1351.501      591.318      584.230        0.545        0.126       91.509        6.632        0.005      335.768        6.622      872.412
11/05/2014  08:21:00       44.646       47.006       -6.720       26.791       21.752       17.133      717.762      473.150      293.542        0.287        0.074       64.830       14.310        0.049      335.906        6.851      872.412
11/05/2014  08:22:00       50.816       63.509       -0.634       32.019       20.996       21.909     1025.200      440.853      479.989        0.428        0.097       81.337       12.567        0.024      335.814        6.700      872.403
11/05/2014  08:23:00       14.361       52.661      -15.411       26.076       31.014       21.006      679.963      961.865      441.267        0.265        0.104       54.584       18.056        0.109      335.942        6.911      872.403
11/05/2014  08:24:00       63.022       35.729       14.367       30.476       20.255       27.713      928.801      410.255      768.008        0.378        0.105       72.445        8.697        0.014      335.861        6.778      872.397
11/05/2014  08:25:00       19.716       34.650       33.724       18.994       24.616       18.786      360.776      605.935      352.905        0.202        0.066       39.867       18.001        0.204      335.963        6.947      872.392
11/05/2014  08:26:00       11.387       43.523       14.378       19.989       29.589       24.218      399.577      875.501      586.492        0.205        0.093       44.988       15.601        0.120      336.093        7.162      872.378
11/05/2014  08:27:00       13.137       31.780       18.605       14.432       28.100       12.904      208.273      789.625      166.505        0.135        0.058       34.388       10.771        0.098      336.613        8.034      872.359
11/05/2014  08:28:00        5.472       50.411        6.658       26.030       33.671       17.240      677.574     1133.761      297.219        0.236        0.105       50.707       10.106        0.040      336.395        7.667      872.348
11/05/2014  08:29:00       -7.011        2.933       28.336       18.781       18.878       12.985      352.718      356.363      168.618        0.087        0.044        7.600       10.170        1.791      336.772        8.297      872.338
11/05/2014  08:30:00      -21.932      -16.998       25.228       27.380       19.271       15.589      749.678      371.377      243.014        0.138        0.068       27.748       13.508        0.237      336.320        7.543      872.331
11/05/2014  08:31:00       -7.611        7.663       36.013       10.695       13.759       13.796      114.375      189.298      190.338        0.095        0.025       10.800        9.465        0.768      336.807        8.357      872.332
11/05/2014  08:32:00        0.265       29.825       47.370       16.072       20.678        8.791      258.309      427.589       77.286        0.195        0.038       29.827        7.038        0.056      336.520        7.878      872.337
11/05/2014  08:33:00       47.938       58.090       43.282       34.602       18.002       25.947     1197.331      324.058      673.255        0.487        0.110       75.316       21.091        0.078      336.210        7.359      872.348
11/05/2014  08:34:00       31.602       30.193       14.742       23.369       25.527       34.155      546.120      651.615     1166.551        0.225        0.118       43.707       25.711        0.346      336.202        7.347      872.346
11/05/2014  08:35:00       15.507        0.268       13.268       21.479       22.264       15.467      461.335      495.676      239.236        0.081        0.060       15.509       13.657        0.775      336.562        7.947      872.344
11/05/2014  08:36:00       29.031       11.637       26.557       31.000       15.662       22.678      960.978      245.297      514.296        0.170        0.086       31.276        9.364        0.090      336.697        8.173      872.341
11/05/2014  08:37:00       11.112       13.710        7.312       22.453       22.087       26.103      504.121      487.844      681.373        0.102        0.084       17.648       12.305        0.486      336.643        8.083      872.340
11/05/2014  08:38:00      -19.966       22.676        8.384       13.861       25.607       20.391      192.133      655.722      415.798        0.112        0.063       30.214       16.725        0.306      336.698        8.175      872.342
11/05/2014  08:39:00       48.904       56.906       52.819       29.477       23.091       20.492      868.895      533.201      419.927        0.512        0.091       75.033       14.636        0.038      336.349        7.591      872.353
11/05/2014  08:40:00       68.874       69.203       62.020       28.437       26.147       26.098      808.685      683.682      681.111        0.778        0.109       97.635       16.569        0.029      336.333        7.564      872.362
11/05/2014  08:41:00       47.201       54.472       43.100       44.922       28.351       32.964     2017.989      803.770     1086.654        0.548        0.195       72.077       27.071        0.141      336.546        7.920      872.363
11/05/2014  08:42:00       18.235       40.008       -5.037       25.419       24.223       18.945      646.143      586.776      358.902        0.177        0.080       43.967       14.180        0.104      336.647        8.090      872.361
11/05/2014  08:43:00        4.966       41.907       55.408       22.739       33.687       35.010      517.049     1134.834     1225.728        0.386        0.144       42.200       30.593        0.526      336.950        8.597      872.373
11/05/2014  08:44:00       28.886       51.991       56.110       26.268       24.440       19.955      690.026      597.333      398.191        0.419        0.084       59.477        2.499        0.002      336.523        7.883      872.377
11/05/2014  08:45:00       54.013       70.889       68.817       49.365       50.620       41.321     2436.904     2562.402     1707.444        0.969        0.335       89.122       38.285        0.185      336.380        7.641      872.376
11/05/2014  08:46:00       84.965       80.551       56.931       25.346       27.590       37.254      642.409      761.203     1387.842        0.987        0.140      117.079       19.389        0.027      336.279        7.474      872.379
11/05/2014  08:47:00       33.056       41.564       32.634       48.778       35.860       28.243     2379.285     1285.945      797.649        0.417        0.223       53.106       26.485        0.249      336.533        7.898      872.386
11/05/2014  08:48:00       12.918      -34.168       36.172       32.755       50.950       34.755     1072.875     2595.852     1207.891        0.376        0.244       36.528       20.716        0.322      336.895        8.504      872.382
11/05/2014  08:49:00        4.174       58.747       67.903       22.159       31.686       24.797      491.042     1003.992      614.908        0.509        0.105       58.895       21.273        0.130      336.903        8.518      872.379
11/05/2014  08:50:00        9.434       24.723       39.514       19.686       36.828       18.204      387.547     1356.318      331.395        0.217        0.104       26.462       18.488        0.488      336.999        8.676      872.385
11/05/2014  08:51:00       20.582       30.641       54.159       33.966       33.121       26.704     1153.709     1097.011      713.102        0.363        0.148       36.912       25.019        0.459      337.101        8.848      872.384
11/05/2014  08:52:00       50.257       46.061       64.336       28.763       28.356       22.579      827.331      804.035      509.824        0.546        0.107       68.172       15.562        0.052      336.849        8.426      872.371
11/05/2014  08:53:00       79.976       51.244       33.052       23.772       29.804       27.513      565.090      888.260      756.975        0.616        0.111       94.985       16.976        0.032      336.563        7.949      872.354
11/05/2014  08:54:00       94.803       48.158       23.541       39.753       33.208       41.430     1580.325     1102.765     1716.438        0.813        0.220      106.334       34.030        0.102      336.713        8.200      872.338
11/05/2014  08:55:00       88.012       48.045       24.103       41.319       30.343       38.619     1707.267      920.707     1491.453        0.738        0.206      100.272       26.235        0.068      336.804        8.353      872.324
11/05/2014  08:56:00       46.423       78.203       -6.776       30.611       31.675       27.269      937.049     1003.303      743.598        0.550        0.134       90.944       20.354        0.050      336.854        8.435      872.314
11/05/2014  08:57:00       59.945       52.659        8.905       25.968       29.654       33.040      674.340      879.362     1091.642        0.454        0.132       79.790       26.990        0.114      336.975        8.638      872.297
11/05/2014  08:58:00       70.873       29.519      -10.169       11.700       24.570       15.444      136.901      603.702      238.522        0.349        0.049       76.774        5.402        0.005      336.514        7.867      872.284
11/05/2014  08:59:00       40.271       33.099       18.686       26.571       24.876       25.720      706.034      618.803      661.532        0.253        0.099       52.128       14.228        0.074      337.021        8.715      872.281
11/05/2014  09:00:00       35.452       43.234       12.034       25.504       21.744       21.982      650.443      472.820      483.193        0.244        0.080       55.911       14.248        0.065      336.984        8.653      872.277
11/05/2014  09:01:00       50.345       29.172       15.173       24.267       22.882       22.089      588.878      523.584      487.943        0.261        0.080       58.186       15.486        0.071      336.961        8.615      872.274
11/05/2014  09:02:00       51.449       30.284        0.381       33.996       26.185       18.633     1155.745      685.664      347.173        0.288        0.109       59.701       16.476        0.076      336.747        8.257      872.284
11/05/2014  09:03:00       16.517       59.985       -8.619       19.708       43.256       19.068      388.389     1871.082      363.575        0.328        0.131       62.218       10.648        0.029      337.019        8.711      872.288
11/05/2014  09:04:00        3.187        4.350      -16.724       20.341       22.938       17.135      413.741      526.151      293.619        0.077        0.062        5.392       14.321        7.053      337.053        8.769      872.291
11/05/2014  09:05:00       26.633       28.991       27.271       43.344       29.137       22.383     1878.722      848.970      500.995        0.276        0.161       39.367       22.084        0.315      337.421        9.383      872.302
11/05/2014  09:06:00       64.989       79.217       17.981       59.084       46.727       33.883     3490.976     2183.382     1148.056        0.882        0.341      102.464       24.911        0.059      337.384        9.320      872.298
11/05/2014  09:07:00       64.372       80.983       68.645       55.525       48.451       30.004     3083.064     2347.546      900.267        1.087        0.317      103.450       23.359        0.051      337.408        9.361      872.305
11/05/2014  09:08:00       55.499       64.614       20.907       46.150       35.604       44.402     2129.823     1267.657     1971.506        0.653        0.268       85.177       31.310        0.135      337.499        9.514      872.316
11/05/2014  09:09:00        7.446       49.571       71.640       30.554       40.378       23.679      933.556     1630.357      560.705        0.538        0.156       50.127       22.490        0.201      337.565        9.624      872.321
11/05/2014  09:10:00       52.328       68.103       74.565       35.849       35.726       29.445     1285.115     1276.314      867.001        0.818        0.171       85.886       21.931        0.065      337.262        9.117      872.334
11/05/2014  09:11:00       82.379       66.591       43.983       32.086       17.645       24.653     1029.512      311.351      607.752        0.755        0.097      105.927       18.554        0.031      337.173        8.969      872.346
11/05/2014  09:12:00       -1.681       33.754       74.295       24.847       43.962       21.056      617.390     1932.659      443.337        0.483        0.150       33.796       22.109        0.428      337.709        9.867      872.353
11/05/2014  09:13:00       20.887       15.008       34.572       49.554       39.431       33.904     2455.645     1554.805     1149.515        0.351        0.258       25.720       24.433        0.902      337.743        9.924      872.357
11/05/2014  09:14:00      121.838       84.746        8.388       49.796       35.344       29.931     2479.686     1249.217      895.843        1.336        0.231      148.413       28.756        0.038      337.200        9.014      872.347
11/05/2014  09:15:00       41.439       50.429       37.927       38.050       38.523       28.004     1447.779     1483.996      784.218        0.471        0.186       65.271       16.755        0.066      337.550        9.600      872.350
11/05/2014  09:16:00      -11.996       73.618       75.962       22.815       44.443       30.631      520.530     1975.178      938.249        0.738        0.172       74.589       15.218        0.042      337.817       10.048      872.339
11/05/2014  09:17:00       92.758       78.195       26.805       43.758       23.238       43.864     1914.752      540.022     1924.036        0.991        0.219      121.320       20.439        0.028      337.229        9.062      872.332
11/05/2014  09:18:00       82.187       63.715       12.065       32.699       34.589       40.237     1069.223     1196.417     1619.011        0.742        0.194      103.991       13.748        0.017      337.138        8.910      872.330
11/05/2014  09:19:00       89.493       63.113        8.111       32.961       29.466       27.129     1086.431      868.267      735.993        0.737        0.135      109.510        8.797        0.006      337.029        8.728      872.321
11/05/2014  09:20:00       25.961       10.677        9.922       34.448       25.031       20.266     1186.648      626.542      410.731        0.155        0.111       28.071       14.056        0.251      337.469        9.464      872.315
11/05/2014  09:21:00       30.665      109.054       -5.166       43.158       51.327       31.647     1862.630     2634.469     1001.509        0.918        0.275      113.284       31.058        0.075      337.451        9.435      872.301
11/05/2014  09:22:00       27.179       39.431        8.318       39.857       39.798       24.382     1588.611     1583.870      594.500        0.306        0.188       47.890       13.558        0.080      337.724        9.892      872.298
11/05/2014  09:23:00        3.437        7.367       11.637       27.464       29.269       25.244      754.273      856.692      637.237        0.122        0.112        8.129        9.817        1.458      337.997       10.349      872.289
11/05/2014  09:24:00       28.722       28.972       42.926       35.719       36.295       39.942     1275.841     1317.302     1595.394        0.385        0.209       40.796       27.708        0.461      338.223       10.729      872.276
11/05/2014  09:25:00       47.154       53.437       58.953       46.781       56.398       52.245     2188.423     3180.786     2729.529        0.833        0.405       71.267       44.864        0.396      337.754        9.940      872.271
11/05/2014  09:26:00       32.884       25.451       42.691       48.378       35.915       34.337     2340.400     1289.893     1179.044        0.418        0.240       41.583       31.852        0.587      338.266       10.802      872.259
11/05/2014  09:27:00       82.605       92.486       85.706       56.014       56.927       47.833     3137.519     3240.724     2288.034        1.569        0.433      124.005       38.898        0.098      337.731        9.903      872.255
11/05/2014  09:28:00       92.375      151.588      109.286       47.313       33.956       38.171     2238.509     1153.008     1456.994        2.415        0.242      177.516       19.006        0.011      337.604        9.690      872.254
11/05/2014  09:29:00       53.442      132.270      104.654       40.781       29.607       32.342     1663.069      876.601     1045.991        1.744        0.179      142.659       25.597        0.032      337.681        9.820      872.257
11/05/2014  09:30:00       43.246       25.120       56.029       34.242       58.512       38.431     1172.502     3423.627     1476.951        0.586        0.304       50.012       42.588        0.725      337.843       10.092      872.270
11/05/2014  09:31:00       40.855       -2.206       34.014       38.401       34.912       43.524     1474.670     1218.871     1894.364        0.371        0.229       40.915       21.994        0.289      338.876       11.831      872.259
11/05/2014  09:32:00       37.670       -5.424       29.803       39.167       32.763       31.751     1534.063     1073.434     1008.103        0.298        0.181       38.059       25.656        0.454      338.526       11.241      872.267
11/05/2014  09:33:00        0.137       47.485       65.311       31.903       31.384       35.727     1017.800      984.934     1276.421        0.490        0.164       47.485       24.956        0.276      338.735       11.589      872.255
11/05/2014  09:34:00       -3.170      -29.373       28.568       35.970       57.165       35.610     1293.858     3267.858     1268.040        0.376        0.291       29.544       38.255        1.677      337.937       10.249      872.254
11/05/2014  09:35:00       12.941       25.187       48.201       31.746       48.441       38.504     1007.825     2346.579     1482.591        0.398        0.242       28.317       27.961        0.975      338.816       11.726      872.253
11/05/2014  09:36:00       22.509      -69.916       10.338       27.577       47.258       36.967      760.504     2233.312     1366.572        0.493        0.218       73.450       35.177        0.229      338.467       11.141      872.244
11/05/2014  09:37:00       11.509      -40.551       20.166       38.144       41.607       39.462     1454.973     1731.148     1557.272        0.346        0.237       42.153       21.763        0.267      338.349       10.940      872.245
11/05/2014  09:38:00       84.335      -55.491        2.060       42.677       57.572       39.965     1821.355     3314.567     1597.204        0.846        0.337      100.954       33.338        0.109      338.243       10.764      872.236
11/05/2014  09:39:00       15.572      -15.087       38.988       34.854       53.282       45.937     1214.780     2838.965     2110.233        0.408        0.308       21.682       38.517        3.156      338.863       11.805      872.233
11/05/2014  09:40:00       25.956      -18.230       37.718       29.855       40.221       26.604      891.296     1617.713      707.766        0.282        0.161       31.718       24.459        0.595      338.899       11.866      872.220
11/05/2014  09:41:00       55.268       53.672       47.147       38.149       43.811       31.307     1455.368     1919.411      980.133        0.626        0.218       77.040       23.262        0.091      338.699       11.528      872.216
11/05/2014  09:42:00       83.114       80.703       18.602       44.527       37.022       43.693     1982.670     1370.656     1909.041        0.951        0.263      115.849       20.821        0.032      338.224       10.730      872.210
11/05/2014  09:43:00      119.778       55.368       10.189       50.072       35.618       41.346     2507.171     1268.622     1709.453        1.150        0.274      131.956       32.427        0.060      338.469       11.144      872.195
11/05/2014  09:44:00      110.553       68.486       14.614       47.613       39.685       39.318     2267.023     1574.865     1545.873        1.126        0.269      130.047       26.954        0.043      338.451       11.113      872.192
11/05/2014  09:45:00       30.894       49.246       31.055       43.359       34.360       37.555     1879.965     1180.629     1410.407        0.441        0.224       58.134       27.317        0.221      339.047       12.114      872.183
11/05/2014  09:46:00       23.461       42.332       20.225       31.937       30.696       27.787     1019.991      942.215      772.138        0.274        0.137       48.398       16.096        0.111      339.503       12.882      872.170
11/05/2014  09:47:00       62.876       48.610        7.910       51.183       34.471       39.862     2619.732     1188.256     1589.005        0.589        0.270       79.475       26.525        0.111      339.079       12.168      872.150
11/05/2014  09:48:00      108.908       72.311       -5.554       61.601       37.560       33.719     3794.682     1410.716     1136.965        1.173        0.317      130.727       27.875        0.045      338.549       11.277      872.142
11/05/2014  09:49:00      126.510       87.998       -5.182       43.098       33.944       32.665     1857.471     1152.226     1066.983        1.393        0.204      154.105       17.262        0.013      337.870       10.136      872.133
11/05/2014  09:50:00      127.106       80.758       -3.855       42.112       33.157       28.841     1773.446     1099.363      831.814        1.320        0.185      150.591       20.257        0.018      337.909       10.202      872.131
11/05/2014  09:51:00      126.275       62.650        7.077       51.212       40.992       32.055     2622.632     1680.361     1027.544        1.262        0.267      140.962       23.327        0.027      337.980       10.320      872.129
11/05/2014  09:52:00       66.290       56.863       12.884       40.854       40.762       33.677     1669.035     1661.563     1134.120        0.613        0.223       87.337       30.593        0.123      338.140       10.588      872.136
11/05/2014  09:53:00      115.000       85.506       29.598       37.026       37.790       36.588     1370.959     1428.099     1338.653        1.277        0.207      143.304       15.429        0.012      338.112       10.542      872.122
11/05/2014  09:54:00      142.810       96.730       16.925       34.885       33.637       35.563     1216.965     1131.421     1264.710        1.682        0.181      172.486       22.497        0.017      337.814       10.041      872.124
11/05/2014  09:55:00      111.685       87.595       13.035       34.470       22.575       28.056     1188.214      509.616      787.160        1.140        0.124      141.939       19.160        0.018      337.787        9.999      872.114
11/05/2014  09:56:00       66.042       67.079        5.887       33.699       29.422       29.419     1135.652      865.676      865.457        0.588        0.143       94.134       19.578        0.043      338.075       10.479      872.096
11/05/2014  09:57:00       63.945       54.377       -0.522       44.097       39.380       27.691     1944.522     1550.763      766.783        0.565        0.213       83.939       24.336        0.084      338.220       10.723      872.077
11/05/2014  09:58:00       98.931       67.898        3.296       39.226       27.745       15.378     1538.649      769.803      236.471        0.848        0.127      119.989       13.253        0.012      337.960       10.286      872.064
11/05/2014  09:59:00       67.123       63.043       -5.550       31.959       27.309       27.475     1021.368      745.777      754.863        0.552        0.126       92.086       18.593        0.041      338.144       10.597      872.026
11/05/2014  10:00:00      116.359       87.571        2.271       36.316       33.092       29.730     1318.825     1095.058      883.896        1.225        0.165      145.630       26.468        0.033      338.138       10.586      872.012
11/05/2014  10:01:00       69.528       75.797       14.848       43.739       28.161       30.360     1913.088      793.058      921.745        0.721        0.181      102.856       24.689        0.058      338.181       10.658      871.989
11/05/2014  10:02:00      118.629       66.669       13.096       38.998       34.099       32.281     1520.826     1162.719     1042.050        1.121        0.186      136.079        7.766        0.003      338.133       10.578      871.988
11/05/2014  10:03:00      131.339       49.655        6.365       45.969       37.563       41.344     2113.109     1410.945     1709.363        1.249        0.262      140.412       21.983        0.025      338.267       10.803      871.970
11/05/2014  10:04:00       27.259       45.621       -0.004       27.486       31.183       25.755      755.457      972.349      663.303        0.261        0.120       53.145       11.341        0.046      338.485       11.169      871.962
11/05/2014  10:05:00       34.713       27.340       29.886       40.097       33.389       25.063     1607.780     1114.803      628.139        0.310        0.168       44.187       26.337        0.355      338.885       11.842      871.950
11/05/2014  10:06:00       46.673       54.106       42.553       61.048       39.100       42.471     3726.866     1528.788     1803.771        0.699        0.353       71.456       31.184        0.190      338.776       11.657      871.941
11/05/2014  10:07:00       72.230       48.753       12.812       62.525       35.015       35.934     3909.326     1226.049     1291.243        0.709        0.321       87.144       29.502        0.115      338.666       11.471      871.936
11/05/2014  10:08:00       93.817       60.482       12.337       53.490       58.451       36.886     2861.233     3416.461     1360.564        1.012        0.382      111.623       31.038        0.077      338.536       11.255      871.941
11/05/2014  10:09:00      103.128       58.270        6.336       29.779       27.613       29.058      886.786      762.452      844.340        0.828        0.125      118.452       15.982        0.018      338.315       10.884      871.947
11/05/2014  10:10:00       70.425       59.644       39.687       57.987       40.091       48.064     3362.465     1607.264     2310.179        0.868        0.364       92.288       40.878        0.196      338.673       11.486      871.936
11/05/2014  10:11:00       64.992       57.166       28.139       55.300       48.057       42.531     3058.061     2309.446     1808.903        0.773        0.359       86.556       37.859        0.191      338.848       11.780      871.940
11/05/2014  10:12:00       83.926       67.204       19.852       41.477       35.099       34.195     1720.329     1231.935     1169.298        0.804        0.206      107.517       15.179        0.020      338.610       11.379      871.933
11/05/2014  10:13:00       34.935       26.008       40.044       37.980       32.988       37.910     1442.504     1088.212     1437.200        0.373        0.198       43.553       27.621        0.402      339.183       12.342      871.947
11/05/2014  10:14:00       52.908       46.276       -7.884       25.794       37.550       25.669      665.322     1409.969      658.906        0.387        0.137       70.291       18.555        0.070      338.771       11.649      871.941
11/05/2014  10:15:00       44.408       49.193        2.553       32.231       41.342       33.336     1038.823     1709.196     1111.264        0.413        0.193       66.272       23.623        0.127      338.707       11.543      871.934
11/05/2014  10:16:00       27.545       38.653       15.377       20.832       30.351       32.885      433.952      921.189     1081.404        0.246        0.122       47.464       20.029        0.178      338.685       11.506      871.920
11/05/2014  10:17:00       65.556       53.408       12.642       28.848       30.199       24.602      832.179      911.969      605.242        0.483        0.117       84.558       17.381        0.042      338.604       11.368      871.902
11/05/2014  10:18:00       28.969        8.910       22.842       24.131       25.411       16.779      582.314      645.729      281.529        0.147        0.075       30.308       12.577        0.172      339.074       12.161      871.882
11/05/2014  10:19:00        4.479       57.412      103.769       39.561       51.691       27.341     1565.059     2671.988      747.530        0.953        0.249       57.587       26.602        0.213      339.152       12.289      871.863
11/05/2014  10:20:00       22.348      -21.989       35.375       43.349       63.611       41.800     1879.176     4046.304     1747.238        0.495        0.384       31.352       44.078        1.977      339.141       12.272      871.848
11/05/2014  10:21:00       87.331     -120.691       -9.630       72.671       52.588       35.999     5281.028     2765.529     1295.927        1.581        0.467      148.974       35.578        0.057      338.579       11.325      871.826
11/05/2014  10:22:00       44.656       10.147       23.212       27.557       28.609       27.943      759.387      818.459      780.795        0.250        0.118       45.795       16.330        0.127      338.771       11.649      871.820
11/05/2014  10:23:00      -10.784        2.357       19.249       14.742       13.874       12.121      217.338      192.485      146.915        0.052        0.028       11.039        6.793        0.379      339.341       12.608      871.806
11/05/2014  10:24:00      -11.599      -15.424       21.440       17.678       25.256       17.815      312.500      637.844      317.366        0.105        0.063       19.298       15.894        0.678      339.431       12.760      871.779
11/05/2014  10:25:00       45.665      -71.363        4.635       59.184       78.342       34.129     3502.693     6137.514     1164.819        0.900        0.540       84.723       44.050        0.270      339.116       12.229      871.771
11/05/2014  10:26:00       31.299      -30.463       15.699       37.487       48.175       37.503     1405.262     2320.849     1406.478        0.364        0.257       43.676       27.634        0.400      339.361       12.642      871.752
11/05/2014  10:27:00       -6.902      -11.220       21.172       20.031       22.345       21.488      401.252      499.298      461.755        0.099        0.068       13.172       17.149        1.695      339.316       12.567      871.736
11/05/2014  10:28:00       26.839       22.124       33.871       32.823       25.945       26.197     1077.343      673.122      686.278        0.240        0.122       34.782       19.300        0.308      339.592       13.032      871.726
11/05/2014  10:29:00       15.423       35.737       50.821       25.807       33.477       30.246      666.006     1120.706      914.817        0.340        0.135       38.923       24.372        0.392      339.470       12.825      871.703
11/05/2014  10:30:00       56.066       71.008       34.234       28.796       25.824       30.040      829.184      666.896      902.427        0.588        0.120       90.474       10.482        0.013      339.051       12.120      871.689
11/05/2014  10:31:00       13.944       53.624       19.316       37.431       35.767       27.067     1401.112     1279.260      732.598        0.343        0.171       55.408       26.623        0.231      339.600       13.043      871.669
11/05/2014  10:32:00       34.558       31.380       33.511       60.439       43.617       35.575     3652.863     1902.447     1265.592        0.506        0.341       46.680       20.321        0.190      339.619       13.076      871.663
11/05/2014  10:33:00      -10.328      -14.078      -13.927       30.927       47.804       20.490      956.476     2285.221      419.820        0.208        0.183       17.460       17.108        0.960      339.376       12.666      871.673
11/05/2014  10:34:00        3.251      -27.275       23.213       31.197       63.555       33.886      973.263     4039.211     1148.250        0.373        0.308       27.468       35.797        1.698      339.422       12.745      871.669
11/05/2014  10:35:00       46.903      -70.911       13.977       60.307      100.388       46.162     3636.911    10077.683     2130.899        1.163        0.792       85.019       67.336        0.627      339.397       12.702      871.667
11/05/2014  10:36:00       49.941      -31.832        9.389       52.476       77.951       53.492     2753.756     6076.369     2861.439        0.764        0.585       59.223       57.369        0.938      339.245       12.445      871.659
11/05/2014  10:37:00       33.171      -50.412        2.368       41.323       41.859       34.197     1707.602     1752.192     1169.410        0.414        0.231       60.346       22.442        0.138      339.123       12.242      871.657
11/05/2014  10:38:00       20.770        0.612        4.495       32.345       30.686       24.272     1046.205      941.609      589.117        0.151        0.129       20.779       17.713        0.727      339.299       12.537      871.632
11/05/2014  10:39:00       41.286       19.314        7.438       36.392       22.649       21.308     1324.394      512.959      454.048        0.221        0.115       45.580        8.644        0.036      339.503       12.881      871.623
11/05/2014  10:40:00       29.681       35.157        6.695       43.375       28.406       30.899     1881.394      806.893      954.748        0.290        0.182       46.010       23.115        0.252      339.492       12.862      871.608
11/05/2014  10:41:00       63.246       80.307       65.851       56.863       46.368       42.817     3233.392     2149.987     1833.308        1.100        0.361      102.222       35.897        0.123      339.492       12.863      871.591
11/05/2014  10:42:00       45.640       65.707       81.557       57.944       41.006       32.191     3357.463     1681.493     1036.228        0.956        0.304       80.002       26.535        0.110      339.369       12.656      871.589
11/05/2014  10:43:00       82.743       63.837       54.298       58.846       41.739       30.423     3462.822     1742.115      925.547        1.000        0.307      104.506       18.080        0.030      339.136       12.264      871.581
11/05/2014  10:44:00      -23.454       12.050       -5.202       24.341       48.036       20.100      592.487     2307.461      404.008        0.201        0.165       26.368       22.087        0.702      339.012       12.055      871.575
11/05/2014  10:45:00       -1.837       41.559       26.026       34.325       30.953       26.371     1178.200      958.109      695.434        0.262        0.142       41.599       16.751        0.162      339.670       13.165      871.557
11/05/2014  10:46:00        8.883       36.365       52.435       38.593       46.825       33.227     1489.412     2192.559     1104.033        0.447        0.239       37.434       26.009        0.483      339.729       13.262      871.540
11/05/2014  10:47:00       48.388       59.393       49.519       28.934       33.172       22.564      837.168     1100.382      509.139        0.538        0.122       76.609       17.025        0.049      339.114       12.226      871.540
11/05/2014  10:48:00        9.012       10.656       33.587       21.528       18.235       14.943      463.463      332.511      223.301        0.117        0.051       13.956        6.257        0.201      339.695       13.205      871.519
11/05/2014  10:49:00       16.307        9.292       29.392       19.915       17.566       20.580      396.611      308.547      423.544        0.117        0.056       18.768       11.794        0.395      339.942       13.621      871.518
11/05/2014  10:50:00       -3.024        5.529        9.996       18.332       22.745       18.505      336.075      517.325      342.448        0.067        0.060        6.301       13.389        4.514      340.016       13.747      871.499
11/05/2014  10:51:00        1.785       37.778       46.210       63.162       46.535       33.462     3989.441     2165.485     1119.688        0.542        0.364       37.820       31.097        0.676      339.917       13.580      871.494
11/05/2014  10:52:00      122.640       76.866       21.395       31.255       30.504       32.833      976.873      930.486     1077.989        1.220        0.149      144.737       20.784        0.021      339.083       12.171      871.489
11/05/2014  10:53:00       44.905       55.287       40.174       41.909       51.592       30.408     1756.348     2661.759      924.631        0.601        0.267       71.226       21.812        0.094      339.842       13.451      871.470
11/05/2014  10:54:00       77.870       82.155       54.266       65.846       57.982       43.981     4335.689     3361.898     1934.319        1.269        0.482      113.195       37.681        0.111      339.622       13.082      871.459
11/05/2014  10:55:00       39.258      -10.094       19.086       45.796       59.869       29.759     2097.238     3584.344      885.623        0.429        0.328       40.535       22.707        0.314      339.422       12.745      871.429
11/05/2014  10:56:00       52.430       66.318       34.047       52.681       38.191       40.903     2775.307     1458.562     1673.090        0.711        0.295       84.539       27.822        0.108      339.505       12.885      871.408
11/05/2014  10:57:00       50.477       63.886       27.645       48.268       32.932       38.789     2329.808     1084.518     1504.624        0.616        0.246       81.421       33.110        0.165      339.441       12.778      871.396
11/05/2014  10:58:00       41.364       42.368        8.066       41.711       30.162       29.430     1739.776      909.745      866.133        0.354        0.176       59.212       18.276        0.095      339.624       13.083      871.379
11/05/2014  10:59:00       47.614       49.611       46.484       44.046       44.087       42.285     1940.027     1943.700     1788.059        0.628        0.284       68.763       30.424        0.196      339.805       13.391      871.370
11/05/2014  11:00:00       -0.114       32.864       57.875       28.103       40.566       38.883      789.764     1645.573     1511.920        0.419        0.197       32.864       33.973        1.069      339.943       13.622      871.355
11/05/2014  11:01:00       35.679       68.718       86.193       50.729       53.924       34.839     2573.414     2907.776     1213.725        1.006        0.335       77.428       35.575        0.211      339.827       13.427      871.345
11/05/2014  11:02:00       74.665       97.622       88.605       47.100       31.819       33.416     2218.451     1012.432     1116.630        1.365        0.217      122.902       24.421        0.039      339.432       12.761      871.331
11/05/2014  11:03:00       55.286       55.904        8.126       34.762       45.408       28.158     1208.376     2061.898      792.859        0.515        0.203       78.624       22.090        0.079      339.576       13.005      871.321
11/05/2014  11:04:00       70.234       59.827       25.917       55.741       46.287       34.054     3107.022     2142.460     1159.648        0.780        0.320       92.261       28.036        0.092      339.817       13.410      871.303
11/05/2014  11:05:00       24.980       14.693       39.554       28.236       65.371       32.690      797.275     4273.416     1068.618        0.427        0.307       28.981       41.205        2.022      340.198       14.055      871.279
11/05/2014  11:06:00      -21.541       -8.627        5.946       20.935       18.936       17.229      438.264      358.558      296.842        0.083        0.055       23.204       14.033        0.366      340.239       14.124      871.260
11/05/2014  11:07:00        5.102        5.226       23.367       27.756       40.037       25.338      770.389     1602.962      641.999        0.181        0.151        7.303       21.835        8.939      340.283       14.196      871.230
11/05/2014  11:08:00       42.282       43.010       39.849       46.802       35.370       37.443     2190.431     1251.049     1401.993        0.503        0.242       60.313       34.151        0.321      340.381       14.362      871.205
11/05/2014  11:09:00       42.831       39.072       21.079       49.422       34.262       34.163     2442.577     1173.897     1167.087        0.429        0.239       57.975       27.250        0.221      340.426       14.440      871.175
11/05/2014  11:10:00       95.548       79.191       15.722       37.979       41.859       41.418     1442.377     1752.142     1715.477        1.028        0.245      124.099       31.010        0.062      339.698       13.209      871.148
11/05/2014  11:11:00       18.979       51.420       15.404       41.513       60.517       31.489     1723.350     3662.264      991.581        0.481        0.319       54.810       16.382        0.089      340.093       13.877      871.132
11/05/2014  11:12:00       66.887       62.274        0.869       52.714       45.806       37.759     2778.771     2098.229     1425.743        0.733        0.315       91.389       10.800        0.014      340.067       13.832      871.107
11/05/2014  11:13:00      110.401       71.419       26.276       73.305       62.405       42.957     5373.632     3894.323     1845.281        1.454        0.556      131.488       20.628        0.025      340.054       13.809      871.093
11/05/2014  11:14:00      129.801       85.382       11.120       39.359       41.299       42.985     1549.151     1705.621     1847.748        1.468        0.255      155.365        9.220        0.004      339.750       13.298      871.083
11/05/2014  11:15:00       36.444       45.471       37.197       42.084       25.921       23.545     1771.084      671.923      554.368        0.389        0.150       58.273       16.558        0.081      340.042       13.790      871.059
11/05/2014  11:16:00       39.704        9.028       33.722       46.709       53.445       31.458     2181.728     2856.379      989.636        0.441        0.301       40.718       31.751        0.608      340.175       14.015      871.048
11/05/2014  11:17:00       -3.054       43.956       98.667       35.665       88.955       57.309     1271.990     7913.041     3284.309        1.207        0.623       44.062       60.875        1.909      340.092       13.874      871.011
11/05/2014  11:18:00       81.253      -97.355        7.583       54.498       77.448       39.743     2970.078     5998.173     1579.544        1.334        0.527      126.807       42.100        0.110      339.696       13.207      871.005
11/05/2014  11:19:00       81.947       93.577       80.199       81.640       65.274       52.577     6665.156     4260.670     2764.322        1.779        0.685      124.386       40.130        0.104      339.929       13.598      870.991
11/05/2014  11:20:00       89.706       88.747       49.270       45.738       31.487       33.732     2091.941      991.439     1137.833        1.129        0.211      126.187       26.639        0.045      339.675       13.171      870.980
11/05/2014  11:21:00       56.113     -106.861       -4.722       63.988       70.925       37.079     4094.506     5030.377     1374.827        1.254        0.525      120.698       49.344        0.167      340.055       13.812      870.972
11/05/2014  11:22:00       63.198      -53.119       -9.841       57.604       63.141       31.111     3318.215     3986.787      967.902        0.759        0.414       82.557       42.971        0.271      339.878       13.514      870.950
11/05/2014  11:23:00       -5.884      -45.833        3.950       41.830       44.257       23.159     1749.734     1958.673      536.335        0.320        0.212       46.209       11.577        0.063      340.111       13.907      870.930
11/05/2014  11:24:00       68.926     -112.588       -1.937       47.285       76.157       41.681     2235.827     5799.911     1737.300        1.360        0.489      132.010       46.138        0.122      340.173       14.009      870.899
11/05/2014  11:25:00       43.584     -109.116        3.966       44.807       76.613       39.259     2007.678     5869.569     1541.239        1.162        0.471      117.498       36.097        0.094      340.232       14.110      870.873
11/05/2014  11:26:00       66.355      -41.054        9.829       43.214       52.715       45.286     1867.448     2778.881     2050.791        0.644        0.335       78.029       27.819        0.127      340.293       14.214      870.865
11/05/2014  11:27:00        4.022       26.043       71.656       24.995       38.109       24.280      624.771     1452.283      589.526        0.425        0.133       26.352       21.636        0.674      340.603       14.739      870.841
11/05/2014  11:28:00       68.375       67.781       13.377       46.778       38.097       42.220     2188.211     1451.393     1782.536        0.743        0.271       96.277       17.867        0.034      340.035       13.777      870.827
11/05/2014  11:29:00       65.347       44.689       20.337       71.175       36.723       36.521     5065.873     1348.558     1333.748        0.721        0.387       79.166       23.786        0.090      340.312       14.246      870.811
11/05/2014  11:30:00      112.672       74.282       16.459       46.890       42.341       33.502     2198.698     1792.784     1122.397        1.180        0.256      134.955       13.443        0.010      340.082       13.856      870.785
11/05/2014  11:31:00       87.575       77.741       29.082       49.800       39.597       36.621     2480.056     1567.904     1341.122        0.997        0.269      117.103       24.640        0.044      340.381       14.361      870.765
11/05/2014  11:32:00       -4.267       63.238       98.314       26.480       43.884       31.133      701.215     1925.814      969.261        0.864        0.180       63.382       30.134        0.226      340.593       14.721      870.762
11/05/2014  11:33:00      108.277      150.476       94.058       67.254       49.460       65.695     4523.167     2446.262     4315.826        2.725        0.564      185.384       55.650        0.090      340.153       13.975      870.746
11/05/2014  11:34:00       89.269       51.538       17.861       51.614       28.347       34.774     2664.019      803.569     1209.211        0.781        0.234      103.078       17.461        0.029      339.997       13.714      870.745
11/05/2014  11:35:00       31.390       33.153        0.568       28.145       27.540       21.015      792.148      758.434      441.638        0.204        0.100       45.656       19.661        0.185      340.216       14.084      870.727
11/05/2014  11:36:00       21.654       12.477       17.393       26.668       21.089       26.200      711.182      444.767      686.449        0.138        0.092       24.991       21.280        0.725      340.595       14.724      870.710
11/05/2014  11:37:00       25.707      -58.136      -11.061       24.536       47.551       25.272      602.012     2261.131      638.676        0.383        0.175       63.566       14.076        0.049      340.444       14.469      870.691
11/05/2014  11:38:00       32.139       41.914       86.104       59.205       78.482       51.200     3505.237     6159.437     2621.457        1.124        0.614       52.817       57.432        1.182      340.639       14.798      870.668
11/05/2014  11:39:00       90.921       58.313       90.816       69.045       63.533       46.527     4767.158     4036.498     2164.792        1.544        0.548      108.014       49.285        0.208      340.256       14.151      870.651
11/05/2014  11:40:00       86.845       60.704       54.708       73.799       68.286       53.621     5446.296     4662.962     2875.184        1.360        0.649      105.958       50.460        0.227      340.303       14.229      870.652
11/05/2014  11:41:00       40.944      -79.405       -4.934       34.246       43.640       20.530     1172.779     1904.456      421.472        0.575        0.175       89.339       22.214        0.062      340.135       13.948      870.635
11/05/2014  11:42:00       -2.956       10.964       28.437       17.204       21.720       22.538      295.981      471.740      507.961        0.111        0.064       11.355       16.529        2.119      340.801       15.072      870.623
11/05/2014  11:43:00       -3.333      -54.866        6.112       28.249       27.127       25.809      798.034      735.850      666.099        0.263        0.110       54.967       13.562        0.061      340.643       14.806      870.624
11/05/2014  11:44:00       18.133       19.616       12.703       42.296       49.660       29.498     1788.957     2466.097      870.157        0.300        0.256       26.713       14.675        0.302      340.875       15.197      870.612
11/05/2014  11:45:00       77.125       53.752        0.032       36.361       25.047       30.819     1322.105      627.365      949.837        0.587        0.145       94.009       20.492        0.048      340.432       14.449      870.604
11/05/2014  11:46:00       51.624       13.174       13.865       68.206       47.541       32.980     4652.025     2260.139     1087.651        0.551        0.400       53.278       19.606        0.135      340.777       15.033      870.593
11/05/2014  11:47:00       59.747       43.366       13.059       45.627       71.950       52.075     2081.855     5176.829     2711.776        0.779        0.499       73.826       41.655        0.318      340.888       15.218      870.573
11/05/2014  11:48:00      166.251      114.583        8.875       47.801       35.838       34.038     2284.901     1284.354     1158.553        2.279        0.236      201.913       22.148        0.012      340.351       14.309      870.560
11/05/2014  11:49:00      126.372       89.940       11.986       56.557       38.620       41.543     3198.737     1491.532     1725.800        1.531        0.321      155.109       31.248        0.041      340.359       14.326      870.556
11/05/2014  11:50:00      103.394       73.999       11.736       35.113       41.499       28.554     1232.941     1722.195      815.314        1.004        0.189      127.147       15.985        0.016      340.344       14.299      870.543
11/05/2014  11:51:00       85.830       71.913       -0.689       35.146       27.755       30.246     1235.222      770.346      914.842        0.773        0.146      111.974       22.906        0.042      340.388       14.374      870.527
11/05/2014  11:52:00       55.587       54.362        8.754       51.795       30.003       27.016     2682.715      900.180      729.844        0.522        0.216       77.751       18.071        0.054      340.651       14.818      870.509
11/05/2014  11:53:00       66.436       67.902        3.077       42.977       30.029       33.778     1847.034      901.756     1140.942        0.646        0.194       94.997       22.040        0.054      340.692       14.888      870.489
11/05/2014  11:54:00       93.589       61.575       11.855       33.377       34.358       28.036     1114.014     1180.466      786.039        0.789        0.154      112.028       16.581        0.022      340.581       14.701      870.468
11/05/2014  11:55:00      121.227       77.781       21.331       51.513       42.620       47.666     2653.548     1816.472     2272.080        1.397        0.337      144.034       27.642        0.037      340.891       15.223      870.461
11/05/2014  11:56:00       91.560       96.752       60.236       72.976       43.759       42.920     5325.555     1914.859     1842.098        1.523        0.454      133.207       43.124        0.105      340.869       15.186      870.457
11/05/2014  11:57:00       79.731       56.996       43.747       75.195       42.531       45.845     5654.232     1808.918     2101.763        1.054        0.478       98.008       37.586        0.147      340.812       15.090      870.431
11/05/2014  11:58:00      170.006       75.835       37.000       95.613       76.725       68.450     9141.780     5886.654     4685.391        2.786        0.986      186.153       45.939        0.061      340.700       14.900      870.430
11/05/2014  11:59:00       86.993       83.944       71.804      101.668       49.122       42.924    10336.437     2412.960     1842.470        1.718        0.730      120.890       53.573        0.196      340.590       14.716      870.432
11/05/2014  12:00:00       41.060       -6.492       13.617       25.194       27.954       32.656      634.730      781.409     1066.388        0.220        0.124       41.571       20.962        0.254      340.536       14.624      870.419
11/05/2014  12:01:00      152.808      107.499       20.803       84.525       68.245       37.303     7144.493     4657.346     1391.532        2.426        0.660      186.832       32.885        0.031      340.639       14.794      870.410
11/05/2014  12:02:00      168.079      118.079       23.162       55.269       43.908       35.026     3054.711     1927.952     1226.802        2.447        0.310      205.410       12.916        0.004      340.567       14.673      870.393
11/05/2014  12:03:00      178.721      118.893       33.044       59.994       54.636       48.858     3599.313     2985.084     2387.143        2.807        0.449      214.655       14.291        0.004      340.678       14.860      870.376
11/05/2014  12:04:00      187.213       85.346       26.919       75.260       77.061       56.707     5664.080     5938.365     3215.736        2.893        0.741      205.749       35.196        0.029      340.698       14.896      870.363
11/05/2014  12:05:00      167.920       75.543       38.051       98.801       72.109       53.736     9761.679     5199.764     2887.562        2.660        0.892      184.130       27.019        0.022      340.732       14.952      870.348
11/05/2014  12:06:00      206.465      149.378       15.324       49.635       34.287       38.218     2463.595     1175.611     1460.586        3.514        0.255      254.836       18.544        0.005      340.691       14.882      870.332
11/05/2014  12:07:00       88.107       68.427       39.543       74.190       50.521       39.664     5504.105     2552.421     1573.231        1.182        0.481      111.557       26.196        0.055      340.899       15.238      870.321
11/05/2014  12:08:00      108.431       87.162       35.335       43.089       42.405       44.489     1856.700     1798.148     1979.253        1.312        0.282      139.121       12.082        0.008      340.800       15.070      870.308
11/05/2014  12:09:00       80.820       30.075       11.187       63.734       39.499       30.064     4062.003     1560.205      903.866        0.704        0.326       86.235       13.274        0.024      341.150       15.663      870.291
11/05/2014  12:10:00      103.334       74.655       28.033       61.892       43.244       42.389     3830.641     1870.057     1796.842        1.227        0.375      127.480       17.732        0.019      341.186       15.723      870.287
11/05/2014  12:11:00      101.994      111.147       16.196       70.625       48.726       47.278     4987.955     2374.215     2235.201        1.631        0.480      150.852       23.655        0.025      340.835       15.129      870.297
11/05/2014  12:12:00       19.419       27.239        5.315       30.295       46.142       26.894      917.763     2129.096      723.263        0.246        0.189       33.452       24.849        0.552      341.288       15.896      870.282
11/05/2014  12:13:00       41.261       41.536       30.873       47.368       46.566       48.976     2243.762     2168.429     2398.631        0.559        0.341       58.547       23.734        0.164      341.169       15.696      870.266
11/05/2014  12:14:00      135.036       98.014       16.320       76.881       81.760       54.393     5910.734     6684.700     2958.611        2.183        0.778      166.858       38.617        0.054      341.058       15.507      870.258
11/05/2014  12:15:00       69.352       42.259       12.974       55.154       33.491       36.722     3042.003     1121.655     1348.529        0.614        0.276       81.213       13.186        0.026      341.244       15.822      870.244
11/05/2014  12:16:00       34.920        8.802       30.583       49.657       47.252       33.650     2465.830     2232.721     1132.347        0.403        0.292       36.012       28.594        0.630      341.062       15.513      870.222
11/05/2014  12:17:00       60.254       30.973       58.608       51.783       60.473       41.414     2681.527     3657.008     1715.133        0.804        0.403       67.748       34.574        0.260      341.011       15.428      870.184
11/05/2014  12:18:00      134.391      108.813       60.782       76.753       52.041       71.800     5890.992     2708.275     5155.274        2.367        0.688      172.920       53.466        0.096      341.204       15.751      870.171
11/05/2014  12:19:00      150.830       81.636       12.741       65.500       53.080       37.575     4290.273     2817.460     1411.845        1.905        0.426      171.506       14.682        0.007      341.201       15.748      870.155
11/05/2014  12:20:00       19.808       20.880       25.963       47.313       64.958       47.291     2238.519     4219.560     2236.414        0.510        0.435       28.781       45.260        2.473      341.574       16.380      870.127
11/05/2014  12:21:00       17.966       26.203       32.176       27.512       33.390       24.416      756.925     1114.903      596.163        0.226        0.123       31.770       14.722        0.215      341.671       16.545      870.113
11/05/2014  12:22:00       72.776       41.497       25.546       42.236       41.558       44.391     1783.906     1727.089     1970.549        0.658        0.274       83.775       25.655        0.094      341.457       16.183      870.102
11/05/2014  12:23:00      126.742       85.123       28.369       94.025       58.968       53.974     8840.609     3477.258     2913.235        1.967        0.762      152.674       40.404        0.070      341.301       15.916      870.078
11/05/2014  12:24:00      168.811      105.400       45.850       72.812       59.543       53.847     5301.531     3545.359     2899.487        2.673        0.587      199.013       38.190        0.037      341.169       15.694      870.058
11/05/2014  12:25:00       97.894       88.269       31.811       56.110       39.659       53.522     3148.381     1572.864     2864.597        1.298        0.379      131.813       35.615        0.073      341.434       16.144      870.054
11/05/2014  12:26:00       35.391       33.505       46.223       46.186       41.553       35.574     2133.129     1726.666     1265.544        0.482        0.256       48.735       28.457        0.341      341.683       16.565      870.039
11/05/2014  12:27:00      156.568      104.800       10.023       83.194       64.233       55.652     6921.270     4125.855     3097.109        2.487        0.707      188.405       28.962        0.024      341.265       15.856      870.019
11/05/2014  12:28:00       74.137      122.401      126.190       85.694       74.539       64.442     7343.443     5555.990     4152.823        2.672        0.853      143.102       61.487        0.185      341.386       16.060      869.995
11/05/2014  12:29:00      116.595       91.415       69.081       88.756       66.310       70.013     7877.652     4396.992     4901.889        2.195        0.859      148.159       48.169        0.106      341.385       16.060      869.991
11/05/2014  12:30:00      111.394       99.214       62.027       65.471       47.381       48.889     4286.473     2244.959     2390.156        1.751        0.446      149.171       38.527        0.067      341.176       15.707      869.991
11/05/2014  12:31:00       37.270       10.046       61.018       77.366       99.239       60.662     5985.497     9848.295     3679.894        1.236        0.976       38.600       68.044        3.107      341.500       16.255      869.985
11/05/2014  12:32:00       27.281       28.346       71.405       48.438       59.894       48.773     2346.270     3587.293     2378.774        0.748        0.416       39.341       42.477        1.166      341.626       16.469      869.973
11/05/2014  12:33:00       78.150      -55.499       19.536       80.689      100.261       44.570     6510.737    10052.215     1986.447        1.406        0.927       95.852       63.924        0.445      341.266       15.859      869.967
11/05/2014  12:34:00      105.412      -42.150       33.803       89.311       79.050       39.508     7976.543     6248.947     1560.907        1.491        0.789      113.527       48.183        0.180      341.411       16.104      869.952
11/05/2014  12:35:00       84.478      -47.248       54.565       65.126      111.773       61.888     4241.333    12493.220     3830.169        1.645        1.028       96.793       68.478        0.501      341.435       16.145      869.941
11/05/2014  12:36:00       60.290       -2.169       35.254       59.409      100.635       39.164     3529.409    10127.487     1533.832        1.003        0.760       60.329       52.822        0.767      341.534       16.313      869.910
11/05/2014  12:37:00       53.975      100.095      106.620       69.573       78.801       54.660     4840.462     6209.672     2987.662        1.917        0.702      113.721       56.844        0.250      341.354       16.008      869.899
11/05/2014  12:38:00       82.075      104.929      104.903       82.848       67.807       64.046     6863.859     4597.822     4101.892        2.215        0.778      133.216       53.858        0.163      341.118       15.608      869.890
11/05/2014  12:39:00      103.263       99.439       91.338       65.270       60.213       60.927     4260.221     3625.599     3712.155        2.024        0.580      143.358       46.034        0.103      341.134       15.635      869.882
11/05/2014  12:40:00       97.123      109.746      103.906       83.715       61.506       63.705     7008.172     3783.004     4058.344        2.356        0.742      146.551       42.484        0.084      341.189       15.728      869.861
11/05/2014  12:41:00       74.623      106.771       66.306       63.190       61.313       62.260     3992.960     3759.307     3876.317        1.649        0.581      130.264       39.684        0.093      341.284       15.890      869.840
11/05/2014  12:42:00       66.088        3.504       11.137       41.132       58.001       40.205     1691.812     3364.135     1616.455        0.559        0.334       66.181       34.866        0.278      341.477       16.217      869.812
11/05/2014  12:43:00      107.665       91.398       58.733       81.947       73.356       51.322     6715.334     5381.134     2633.977        1.906        0.737      141.228       48.471        0.118      341.677       16.554      869.793
11/05/2014  12:44:00      104.442       99.237       53.785       67.541       51.350       43.905     4561.804     2636.863     1927.608        1.639        0.456      144.070       34.120        0.056      341.644       16.499      869.777
11/05/2014  12:45:00      116.983       35.876       -9.677       91.009       68.533       55.351     8282.691     4696.763     3063.700        1.555        0.802      122.361       40.258        0.108      341.480       16.221      869.765
11/05/2014  12:46:00       79.893       66.817       28.481       51.760       40.645       37.095     2679.110     1652.044     1376.013        0.868        0.285      104.150       12.251        0.014      341.428       16.133      869.756
11/05/2014  12:47:00       74.838       80.188       51.520       59.929       58.123       55.384     3591.542     3378.325     3067.355        1.236        0.502      109.685       42.298        0.149      341.719       16.625      869.749
11/05/2014  12:48:00       55.403      -13.970       25.652       50.584       80.372       49.533     2558.706     6459.677     2453.527        0.770        0.574       57.138       50.042        0.767      341.517       16.283      869.745
11/05/2014  12:49:00       29.657      -22.265       23.678       41.217       54.981       29.586     1698.850     3022.881      875.339        0.377        0.280       37.084       20.350        0.301      341.508       16.270      869.741
11/05/2014  12:50:00       21.821       54.808        2.597       49.616       50.106       32.850     2461.787     2510.647     1079.101        0.477        0.303       58.992       25.577        0.188      341.846       16.843      869.735
11/05/2014  12:51:00       75.437       47.311       34.241       78.271       64.521       59.227     6126.315     4163.015     3507.821        1.145        0.690       89.046       38.018        0.182      341.632       16.478      869.726
11/05/2014  12:52:00      119.894      -63.034       14.089       80.833       82.350       52.685     6533.972     6781.463     2775.748        1.732        0.805      135.454       54.745        0.163      341.511       16.273      869.707
11/05/2014  12:53:00       47.874      -58.834       26.380       54.746       95.946       60.291     2997.129     9205.570     3635.030        1.114        0.792       75.851       67.870        0.801      341.597       16.420      869.694
11/05/2014  12:54:00       41.953      -32.671       23.018       43.782       52.580       42.986     1916.875     2764.639     1847.761        0.494        0.326       53.174       38.718        0.530      341.730       16.644      869.696
11/05/2014  12:55:00       51.384      125.508      119.439       70.933       71.900       56.453     5031.558     5169.542     3186.901        2.302        0.669      135.619       53.242        0.154      341.673       16.546      869.684
11/05/2014  12:56:00       53.309       73.487       76.795       44.802       58.042       55.262     2007.237     3368.846     3053.893        1.128        0.421       90.786       36.274        0.160      341.776       16.723      869.676
11/05/2014  12:57:00       64.640       73.814       84.316       65.318       53.083       38.448     4266.471     2817.846     1478.251        1.265        0.428       98.116       21.662        0.049      341.681       16.562      869.673
11/05/2014  12:58:00      112.075      -43.610       27.896       76.741       85.508       56.682     5889.169     7311.664     3212.891        1.582        0.821      120.261       62.239        0.268      341.661       16.528      869.661
11/05/2014  12:59:00       62.757      -53.081       11.143       63.345       60.621       42.213     4012.620     3674.934     1781.936        0.817        0.473       82.195       22.824        0.077      341.723       16.634      869.661
11/05/2014  13:00:00       29.697        5.024       16.441       53.329       88.343       35.204     2844.024     7804.477     1239.300        0.653        0.594       30.119       21.880        0.528      342.093       17.260      869.654
11/05/2014  13:01:00      113.523       70.106       11.921       68.319       47.712       36.169     4667.486     2276.470     1308.232        1.310        0.413      133.426       23.403        0.031      341.693       16.583      869.636
11/05/2014  13:02:00       51.116       54.387       55.897       63.759       42.486       31.719     4065.210     1805.029     1006.086        0.778        0.344       74.637       15.350        0.042      341.970       17.052      869.625
11/05/2014  13:03:00       53.373       54.369       22.419       29.826       27.131       34.517      889.569      736.087     1191.451        0.456        0.141       76.189       19.237        0.064      341.764       16.704      869.616
11/05/2014  13:04:00       15.330        0.637       21.919       38.268       43.662       33.457     1464.450     1906.387     1119.399        0.260        0.225       15.343       29.801        3.772      341.921       16.969      869.607
11/05/2014  13:05:00       34.788       84.664      100.567       53.583       53.554       40.130     2871.096     2868.031     1610.427        1.292        0.367       91.533       38.732        0.179      341.771       16.715      869.603
11/05/2014  13:06:00       95.447      108.868       72.866       69.182       42.466       39.682     4786.207     1803.324     1574.655        1.722        0.408      144.784       25.481        0.031      341.684       16.567      869.583
11/05/2014  13:07:00       69.383       52.776        9.390       53.993       39.865       34.788     2915.236     1589.197     1210.177        0.670        0.286       87.174       13.810        0.025      341.864       16.872      869.569
11/05/2014  13:08:00       -4.430       44.762       -1.195       26.978       23.529       26.414      727.839      553.591      697.700        0.200        0.099       44.981       19.929        0.196      342.081       17.241      869.554
11/05/2014  13:09:00      107.126       66.666       27.793       88.989       49.080       46.473     7919.070     2408.847     2159.760        1.459        0.624      126.176       22.131        0.031      342.048       17.186      869.547
11/05/2014  13:10:00      156.389      120.563       20.909       68.039       55.127       53.909     4629.360     3038.969     2906.219        2.500        0.529      197.466       43.656        0.049      341.940       16.998      869.538
11/05/2014  13:11:00      158.777      112.204        6.039       59.638       61.669       38.486     3556.712     3803.015     1481.136        2.334        0.442      194.422       32.791        0.028      341.852       16.848      869.516
11/05/2014  13:12:00      169.828      125.154       21.946       57.131       43.903       41.029     3263.934     1927.482     1683.342        2.593        0.344      210.962       29.721        0.020      341.793       16.751      869.508
11/05/2014  13:13:00      134.517       82.727       17.442       59.185       34.872       42.161     3502.810     1216.071     1777.574        1.587        0.325      157.920       30.225        0.037      341.893       16.921      869.505
11/05/2014  13:14:00      113.406       72.719       26.033       64.315       50.275       35.050     4136.418     2527.620     1228.531        1.336        0.395      134.718       19.066        0.020      341.994       17.092      869.501
11/05/2014  13:15:00      109.195       20.779       20.841       62.904       86.481       49.516     3956.966     7479.029     2451.802        1.334        0.694      111.155       56.152        0.255      341.992       17.090      869.492
11/05/2014  13:16:00       37.211      -36.597       31.656       55.743       63.336       53.605     3107.240     4011.476     2873.524        0.686        0.500       52.192       39.891        0.584      342.259       17.543      869.478
11/05/2014  13:17:00       91.179      -81.425       10.016       61.819       67.399       35.714     3821.570     4542.650     1275.475        1.234        0.482      122.244       41.021        0.113      342.084       17.247      869.486
11/05/2014  13:18:00       75.560      -94.059       -9.109       41.571       75.247       26.314     1728.117     5662.180      692.406        1.136        0.404      120.650       29.919        0.061      342.164       17.382      869.480
11/05/2014  13:19:00       13.173      -22.484        4.155       24.208       47.305       27.511      586.022     2237.753      756.871        0.214        0.179       26.059       10.150        0.152      342.407       17.795      869.469
11/05/2014  13:20:00       50.144      -90.082       -5.156       60.353       69.315       39.913     3642.544     4804.621     1593.030        1.035        0.502      103.098       35.363        0.118      342.375       17.740      869.455
11/05/2014  13:21:00       78.780      -78.279       -3.616       66.420       72.970       53.152     4411.586     5324.565     2825.122        1.245        0.628      111.058       54.038        0.237      342.211       17.460      869.446
11/05/2014  13:22:00       61.454       74.892       53.441       84.816       57.870       63.948     7193.756     3348.893     4089.296        1.343        0.732       96.878       39.689        0.168      342.247       17.524      869.426
11/05/2014  13:23:00      161.230      110.690       19.549       72.968       61.259       48.417     5324.272     3752.648     2344.254        2.502        0.571      195.570       32.348        0.027      342.160       17.373      869.421
11/05/2014  13:24:00      158.721      111.382       34.911       54.212       37.020       45.087     2938.952     1370.505     2032.818        2.258        0.317      193.903       21.081        0.012      342.078       17.233      869.419
11/05/2014  13:25:00      108.907       79.413       17.597       42.525       35.392       33.811     1808.365     1252.571     1143.195        1.134        0.210      134.786       20.734        0.024      342.032       17.158      869.409
11/05/2014  13:26:00       72.201       63.084       15.323       38.128       30.610       31.241     1453.771      936.973      975.981        0.640        0.168       95.878       17.694        0.034      342.045       17.179      869.385
11/05/2014  13:27:00       54.863       82.378       22.443       72.518       68.884       42.645     5258.891     4745.036     1818.605        1.106        0.591       98.975       37.776        0.146      342.206       17.454      869.364
11/05/2014  13:28:00      140.974       69.422       11.155       59.883       55.942       40.154     3585.942     3129.503     1612.333        1.657        0.416      157.140       24.985        0.025      342.266       17.554      869.354
11/05/2014  13:29:00      127.919      103.865        1.507       63.124       51.066       39.020     3984.662     2607.697     1522.577        1.763        0.406      164.776       30.851        0.035      342.011       17.121      869.346
11/05/2014  13:30:00       70.043       51.821       13.007       34.117       33.235       22.014     1163.944     1104.596      484.622        0.526        0.138       87.129       12.052        0.019      342.003       17.108      869.322
11/05/2014  13:31:00      -22.016       26.348      -16.375       27.071       23.355       16.208      732.839      545.462      262.698        0.149        0.077       34.335        6.947        0.041      342.157       17.370      869.296
11/05/2014  13:32:00       -7.439        1.165       -1.664       28.161       17.991       23.194      793.031      323.682      537.966        0.086        0.083        7.530        7.351        0.953      342.496       17.946      869.279
11/05/2014  13:33:00       79.424       19.324       19.526       44.475       40.544       30.035     1978.005     1643.846      902.122        0.579        0.226       81.740       17.876        0.048      342.206       17.452      869.271
11/05/2014  13:34:00       21.501       25.759       -7.400       38.925       28.290       37.768     1515.162      800.324     1426.413        0.246        0.187       33.553       27.566        0.675      342.207       17.456      869.265
11/05/2014  13:35:00       13.704       16.405        7.642       15.468       27.317       20.138      239.269      746.209      405.532        0.095        0.070       21.376       11.839        0.307      342.516       17.980      869.254
11/05/2014  13:36:00       13.197       -1.461      -18.457       17.887       22.091       17.380      319.941      488.011      302.057        0.081        0.056       13.277       14.872        1.255      342.145       17.350      869.256
11/05/2014  13:37:00       -3.414       18.514       -8.332       16.755       15.907       17.634      280.739      253.030      310.955        0.063        0.042       18.826       13.123        0.486      342.461       17.887      869.246
11/05/2014  13:38:00      -12.547       -8.552        7.775       35.762       32.067       19.599     1278.918     1028.288      384.120        0.149        0.135       15.184       21.758        2.053      342.631       18.176      869.227
11/05/2014  13:39:00      -17.389      -20.127       -5.218       67.825       34.889       26.192     4600.227     1217.219      685.999        0.362        0.325       26.599       24.327        0.836      342.220       17.477      869.215
11/05/2014  13:40:00       42.510      -46.531        9.964       49.754       54.575       34.762     2475.441     2978.395     1208.371        0.537        0.333       63.026       22.295        0.125      342.192       17.429      869.209
11/05/2014  13:41:00       36.710      -77.290        8.762       38.560       57.305       33.100     1486.901     3283.854     1095.630        0.663        0.293       85.565       30.761        0.129      342.452       17.870      869.186
11/05/2014  13:42:00       14.047      -23.376       21.992       20.449       36.152       24.341      418.149     1306.966      592.477        0.177        0.116       27.272       23.684        0.754      342.487       17.932      869.182
11/05/2014  13:43:00      -26.937        9.128      -17.120       28.683       45.391       19.814      822.738     2060.352      392.610        0.219        0.164       28.442       12.873        0.205      342.263       17.551      869.164
11/05/2014  13:44:00       -0.170        6.238        9.176       27.863       47.399       21.294      776.356     2246.653      453.436        0.180        0.174        6.241       16.128        6.679      342.907       18.645      869.143
11/05/2014  13:45:00       -2.639        0.332      -11.280       26.885       37.619       17.590      722.796     1415.218      309.421        0.129        0.122        2.660       11.644       19.159      342.534       18.011      869.122
11/05/2014  13:46:00       40.485       28.333        0.503       32.368       22.235       18.480     1047.677      494.404      341.501        0.216        0.094       49.414        6.996        0.020      342.581       18.091      869.115
11/05/2014  13:47:00       25.746       44.944       -6.713       26.420       27.897       13.970      698.036      778.243      195.150        0.220        0.084       51.796       10.198        0.039      342.622       18.159      869.109
11/05/2014  13:48:00       84.373       79.016       50.236       36.612       34.957       34.084     1340.474     1221.991     1161.708        0.980        0.186      115.596       30.483        0.070      342.358       17.711      869.106
11/05/2014  13:49:00      100.955       45.067       58.406      110.674      101.263       56.781    12248.821    10254.191     3224.052        2.068        1.286      110.558       44.203        0.160      342.619       18.154      869.101
11/05/2014  13:50:00       87.498      -58.439       39.769       87.702      107.394       60.961     7691.654    11533.376     3716.299        1.779        1.147      105.219       68.943        0.429      342.698       18.287      869.101
11/05/2014  13:51:00       89.355      -55.819        1.170       56.702       41.771       32.623     3215.169     1744.790     1064.289        0.856        0.301      105.357       29.850        0.080      342.566       18.064      869.095
11/05/2014  13:52:00      132.595     -184.515      -28.088       44.386       52.849       32.084     1970.097     2793.051     1029.374        2.910        0.290      227.217       28.404        0.016      342.451       17.866      869.081
11/05/2014  13:53:00       30.862      -80.721       22.153       55.366       66.738       31.289     3065.386     4454.000      979.004        0.823        0.425       86.420       41.712        0.233      342.523       17.992      869.076
11/05/2014  13:54:00       62.129      -71.981       20.533       47.577       86.055       41.892     2263.588     7405.434     1754.970        1.044        0.571       95.086       49.528        0.271      342.626       18.168      869.071
11/05/2014  13:55:00       38.880      -32.760       34.222       43.192       36.859       26.326     1865.586     1358.622      693.041        0.384        0.196       50.841       15.708        0.095      342.798       18.458      869.066
11/05/2014  13:56:00       75.453      -90.184      -11.930       60.132       55.763       32.673     3615.903     3109.554     1067.541        1.088        0.390      117.585       35.232        0.090      342.606       18.131      869.053
11/05/2014  13:57:00      111.223     -154.246      -19.766       46.849       39.343       19.721     2194.826     1547.903      388.922        2.034        0.207      190.165       17.968        0.009      342.621       18.157      869.037
11/05/2014  13:58:00       76.067      -99.446        0.403       92.159       79.351       50.413     8493.230     6296.517     2541.431        1.650        0.867      125.203       36.168        0.083      342.758       18.391      869.023
11/05/2014  13:59:00       54.797     -170.744       13.532       60.643      117.577       65.934     3677.612    13824.294     4347.279        2.709        1.092      179.321       67.884        0.143      342.788       18.440      869.020
11/05/2014  14:00:00       15.794       13.538       65.896       60.072       96.087       60.331     3608.682     9232.769     3639.879        1.062        0.824       20.802       55.895        7.220      342.836       18.526      868.991
11/05/2014  14:01:00        6.095      -49.291       18.145       62.614       59.942       27.103     3920.465     3593.088      734.576        0.552        0.412       49.666       27.758        0.312      342.944       18.707      868.974
11/05/2014  14:02:00      -28.033       -5.384       -5.803       50.964       34.501       34.107     2597.315     1190.314     1163.306        0.290        0.248       28.545       19.592        0.471      343.087       18.952      868.959
11/05/2014  14:03:00        4.691      -17.732       15.672       32.979       34.824       32.864     1087.625     1212.732     1080.037        0.198        0.169       18.342       15.165        0.684      342.899       18.631      868.964
11/05/2014  14:04:00       68.925       51.173       54.458       76.834       43.304       49.049     5903.456     1875.267     2405.831        1.026        0.509       85.845       25.371        0.087      342.758       18.392      868.974
11/05/2014  14:05:00       64.169       78.331       70.004       71.851       51.004       49.694     5162.633     2601.369     2469.467        1.269        0.512      101.259       43.151        0.182      342.624       18.165      868.976
11/05/2014  14:06:00       35.617       30.319       22.510       48.958       39.258       31.999     2396.908     1541.211     1023.945        0.383        0.248       46.774       16.742        0.128      342.906       18.644      868.972
11/05/2014  14:07:00       37.708       45.263       60.681       72.873       53.044       41.871     5310.474     2813.688     1753.175        0.851        0.494       58.912       32.597        0.306      342.984       18.775      868.978
11/05/2014  14:08:00       63.525       79.827       40.664       87.573       60.018       56.199     7669.104     3602.172     3158.288        1.324        0.721      102.018       50.722        0.247      342.681       18.263      868.958
11/05/2014  14:09:00       94.725       88.803       17.724       68.402       41.581       35.000     4678.777     1728.949     1224.978        1.240        0.382      129.842       22.966        0.031      342.920       18.668      868.940
11/05/2014  14:10:00      128.183       66.735       37.187       77.508       54.016       34.698     6007.498     2917.725     1203.935        1.620        0.506      144.514       20.090        0.019      342.861       18.566      868.922
11/05/2014  14:11:00       84.401      100.796       13.200       79.196       65.379       56.757     6271.996     4274.419     3221.413        1.561        0.688      131.466       46.919        0.127      342.823       18.499      868.920
11/05/2014  14:12:00      244.931      133.086       38.626       98.048       72.219       52.868     9613.312     5215.602     2795.067        4.841        0.881      278.753       31.836        0.013      342.890       18.611      868.912
11/05/2014  14:13:00      132.657       62.449       35.090       91.113       76.174       53.473     8301.607     5802.431     2859.372        1.984        0.848      146.621       28.016        0.037      342.942       18.703      868.904
11/05/2014  14:14:00       75.310      100.672       98.330       92.369       73.477       74.189     8531.951     5398.858     5504.012        2.245        0.972      125.723       60.881        0.234      342.730       18.342      868.911
11/05/2014  14:15:00       89.998       52.603       38.693       69.809       65.958       31.765     4873.301     4350.507     1009.019        1.130        0.512      104.243       23.106        0.049      342.618       18.153      868.893
11/05/2014  14:16:00       72.192       41.346       24.318       46.093       31.874       27.631     2124.563     1015.956      763.456        0.571        0.195       83.194       22.278        0.072      342.880       18.598      868.882
11/05/2014  14:17:00       83.922       41.865       26.629       54.978       41.021       31.882     3022.615     1682.732     1016.455        0.761        0.286       93.785       20.703        0.049      343.008       18.817      868.870
11/05/2014  14:18:00      141.961       63.754       16.705       89.313       60.865       42.772     7976.879     3704.605     1829.449        1.900        0.676      155.620       25.900        0.028      343.087       18.950      868.858
11/05/2014  14:19:00      160.701       76.243       14.778       91.739       76.543       58.618     8416.031     5858.770     3436.069        2.478        0.886      177.870       22.195        0.016      342.918       18.662      868.841
11/05/2014  14:20:00      169.400       98.087       70.155       83.866       64.271       58.799     7033.472     4130.792     3457.318        2.893        0.731      195.748       49.346        0.064      343.029       18.851      868.835
11/05/2014  14:21:00      129.266       65.810       27.828      112.978       58.263       59.034    12763.957     3394.616     3484.958        2.073        0.982      145.054       19.312        0.018      342.842       18.534      868.833
11/05/2014  14:22:00      137.288       89.987       27.559       61.903       49.478       45.713     3831.991     2448.040     2089.706        1.804        0.418      164.151       21.336        0.017      342.893       18.619      868.816
11/05/2014  14:23:00      124.550      100.452       36.125       57.194       47.895       59.518     3271.198     2293.954     3542.446        1.801        0.455      160.011       17.378        0.012      342.892       18.618      868.797
11/05/2014  14:24:00      203.225      129.316       42.518       86.079       69.969       61.415     7409.604     4895.705     3771.789        3.795        0.804      240.880       44.957        0.035      342.845       18.536      868.779
11/05/2014  14:25:00      178.477      125.494       51.006      126.949       88.927       62.707    16116.105     7908.063     3932.129        3.907        1.398      218.180       62.318        0.082      342.837       18.524      868.761
11/05/2014  14:26:00       92.137       74.485       45.967       76.577       59.331       59.690     5863.982     3520.154     3562.859        1.455        0.647      118.479       26.509        0.050      342.964       18.740      868.759
11/05/2014  14:27:00       86.199       52.017       32.296       69.760       59.824       45.532     4866.502     3578.879     2073.127        1.085        0.526      100.678       13.548        0.018      343.009       18.819      868.747
11/05/2014  14:28:00       98.430       80.177       99.266       81.778       66.080       53.918     6687.633     4366.549     2907.113        1.996        0.698      126.952       44.106        0.121      342.882       18.603      868.730
11/05/2014  14:29:00      113.350      117.845      118.381       89.829       80.701       64.715     8069.284     6512.599     4187.998        2.976        0.938      163.510       48.915        0.089      342.648       18.202      868.728
11/05/2014  14:30:00       93.789       98.007       78.036       66.940       47.307       48.572     4480.993     2237.974     2359.229        1.678        0.454      135.653       46.568        0.118      342.589       18.104      868.731
11/05/2014  14:31:00      106.527       62.921       59.056       63.740       63.395       48.169     4062.724     4018.920     2320.272        1.460        0.520      123.722       37.996        0.094      342.653       18.212      868.729
11/05/2014  14:32:00       84.538       93.833       66.073       71.383       58.690       54.347     5095.588     3444.486     2953.620        1.590        0.575      126.299       42.743        0.115      342.747       18.372      868.729
11/05/2014  14:33:00      174.681       81.471       34.701      103.928       68.005       54.231    10800.966     4624.656     2941.032        2.836        0.918      192.746       46.497        0.058      342.692       18.275      868.730
11/05/2014  14:34:00      123.041      128.424       78.555       98.864       88.218       55.562     9774.027     7782.392     3087.181        2.922        1.032      177.853       35.459        0.040      342.865       18.573      868.727
11/05/2014  14:35:00      181.920      116.921       51.046       67.565       47.310       49.107     4564.975     2238.282     2411.539        2.929        0.461      216.253       27.603        0.016      342.910       18.646      868.734
11/05/2014  14:36:00       26.439       31.087       46.941       35.597       51.351       42.696     1267.160     2636.922     1822.926        0.480        0.286       40.809       40.230        0.972      342.761       18.396      868.737
11/05/2014  14:37:00       33.325       19.439       51.436       58.809       54.791       41.894     3458.525     3002.049     1755.114        0.617        0.411       38.580       37.845        0.962      342.734       18.351      868.739
11/05/2014  14:38:00       26.215       81.041      107.141       56.685       60.745       44.485     3213.218     3689.974     1978.889        1.381        0.444       85.175       41.588        0.238      342.814       18.487      868.739
11/05/2014  14:39:00       55.652       73.693       75.892       71.188       63.437       43.278     5067.718     4024.308     1872.975        1.262        0.548       92.346       37.224        0.162      342.724       18.334      868.750
11/05/2014  14:40:00       20.489       27.049       64.008       46.832       55.148       36.404     2193.193     3041.353     1325.247        0.590        0.328       33.933       40.438        1.420      342.789       18.445      868.741
11/05/2014  14:41:00       42.384       -5.014       64.591       48.230       99.531       35.699     2326.161     9906.480     1274.415        0.975        0.675       42.679       38.349        0.807      342.916       18.660      868.723
11/05/2014  14:42:00      103.351       44.277       13.769       53.948       53.091       49.419     2910.357     2818.656     2442.220        1.050        0.409      112.436       34.313        0.093      342.938       18.697      868.714
11/05/2014  14:43:00      112.083       -5.730       49.279       96.711       76.830       54.166     9352.984     5902.814     2933.924        1.660        0.909      112.229       44.733        0.159      342.897       18.626      868.709
11/05/2014  14:44:00       55.917      -21.537       30.731       80.206       72.491       34.554     6432.985     5254.991     1193.987        0.871        0.644       59.921       48.701        0.661      343.032       18.858      868.689
11/05/2014  14:45:00       39.545       13.423       43.953       39.167       74.305       35.090     1534.018     5521.251     1231.278        0.598        0.414       41.761       38.253        0.839      342.849       18.545      868.665
11/05/2014  14:46:00       92.264       46.615       11.138       63.447       39.939       34.398     4025.492     1595.108     1183.200        0.881        0.340      103.371       25.146        0.059      342.914       18.657      868.664
11/05/2014  14:47:00      101.509       91.792       -3.877       75.674       74.023       64.783     5726.584     5479.336     4196.835        1.707        0.770      136.857       52.665        0.148      342.958       18.730      868.641
11/05/2014  14:48:00      178.483      112.530       25.219       62.876       40.744       51.115     3953.407     1660.034     2612.720        2.669        0.411      210.996       28.040        0.018      342.923       18.670      868.634
11/05/2014  14:49:00      150.180       98.959       13.384       55.874       59.817       44.944     3121.863     3578.054     2019.925        2.062        0.436      179.852       17.715        0.010      343.022       18.840      868.631
11/05/2014  14:50:00      161.128       99.391       15.696       71.509       58.578       39.294     5113.521     3431.419     1544.032        2.309        0.504      189.317       25.417        0.018      343.031       18.854      868.628
11/05/2014  14:51:00      139.942       93.850       42.636       62.991       49.036       47.897     3967.913     2404.571     2294.077        1.944        0.433      168.498       37.252        0.049      343.005       18.811      868.636
11/05/2014  14:52:00      114.179       66.622       60.624       79.975       60.924       44.269     6396.055     3711.732     1959.707        1.661        0.603      132.194       33.880        0.066      342.934       18.691      868.651
11/05/2014  14:53:00      172.792      126.617       76.500      122.174      102.241       74.126    14926.515    10453.185     5494.617        4.130        1.544      214.217       55.368        0.067      343.014       18.823      868.657
11/05/2014  14:54:00      143.347       73.932       12.430       97.468       68.963       59.430     9500.053     4755.875     3531.977        2.197        0.889      161.289       45.896        0.081      343.008       18.815      868.670
11/05/2014  14:55:00       68.736       24.379       60.006       47.756       81.163       43.342     2280.666     6587.408     1878.496        0.983        0.537       72.932       39.674        0.296      342.927       18.680      868.688
11/05/2014  14:56:00      165.463       75.295       40.372       92.913       77.131       57.801     8632.760     5949.235     3340.985        2.630        0.896      181.789       46.339        0.065      342.773       18.415      868.673
11/05/2014  14:57:00      130.472       93.283       26.704       66.462       59.596       50.191     4417.154     3551.687     2519.122        1.846        0.524      160.389       22.430        0.020      342.898       18.628      868.669
11/05/2014  14:58:00      169.498      133.162       28.417      104.278       76.771       63.839    10873.881     5893.804     4075.362        3.405        1.042      215.550       42.355        0.039      343.030       18.852      868.662
11/05/2014  14:59:00      212.577      156.376       49.188      127.136       88.983       80.726    16163.452     7918.040     6516.724        5.132        1.530      263.898       43.254        0.027      343.038       18.866      868.643
11/05/2014  15:00:00      143.121      108.958       38.890       76.318       71.872       56.836     5824.418     5165.541     3230.366        2.404        0.711      179.876       19.052        0.011      343.081       18.940      868.649
11/05/2014  15:01:00      124.521       81.732       22.348      124.311      101.981       54.909    15453.226    10400.168     3014.955        2.577        1.443      148.949       35.813        0.058      343.083       18.944      868.635
11/05/2014  15:02:00      127.797       67.457       36.577       84.216       57.360       55.325     7092.316     3290.222     3060.823        1.783        0.672      144.508       41.792        0.084      343.169       19.090      868.631
11/05/2014  15:03:00       85.103       71.803      111.156       99.678       86.942       69.263     9935.610     7558.839     4797.338        2.352        1.115      111.347       63.474        0.325      342.960       18.733      868.630
11/05/2014  15:04:00       65.384      105.088      120.275      102.062       70.987       67.815    10416.659     5039.193     4598.921        2.492        1.003      123.768       71.506        0.334      342.774       18.417      868.636
11/05/2014  15:05:00      147.566      101.100       85.654      101.428       69.275       56.769    10287.540     4799.024     3222.681        2.882        0.915      178.877       46.890        0.069      342.983       18.773      868.633
11/05/2014  15:06:00      204.168      123.377       52.419      102.404       89.204      105.494    10486.674     7957.362    11128.954        4.461        1.479      238.551       56.974        0.057      342.908       18.643      868.619
11/05/2014  15:07:00      225.572      159.513       31.245      101.189       66.658       61.387    10239.164     4443.290     3768.365        4.787        0.923      276.273       23.860        0.007      342.982       18.770      868.624
11/05/2014  15:08:00      243.711      133.373       30.048       98.373       74.101       68.907     9677.197     5491.030     4748.187        4.900        0.996      277.819       34.126        0.015      342.935       18.689      868.608
11/05/2014  15:09:00      197.299      128.597       26.485      121.241       74.725       63.807    14699.426     5583.760     4071.302        4.026        1.218      235.508       39.311        0.028      342.975       18.757      868.597
11/05/2014  15:10:00      260.172      158.292       36.121       89.951       73.517       58.806     8091.125     5404.714     3458.118        5.550        0.848      304.542       37.594        0.015      342.943       18.705      868.602
11/05/2014  15:11:00      219.663      124.598       32.317      117.351       82.768       48.912    13771.271     6850.539     2392.351        4.391        1.151      252.540       29.845        0.014      342.868       18.576      868.609
11/05/2014  15:12:00      113.889       85.473       47.261       71.234       49.092       48.725     5074.247     2409.994     2374.152        1.618        0.493      142.395       29.554        0.043      342.779       18.425      868.604
11/05/2014  15:13:00      144.949       86.363       25.687       76.814       70.684       58.434     5900.321     4996.204     3414.582        2.172        0.716      168.727       38.683        0.053      342.906       18.643      868.596
11/05/2014  15:14:00      166.300       69.224       54.962      120.512       71.818       74.979    14523.135     5157.897     5621.881        3.038        1.265      180.133       52.585        0.085      342.989       18.783      868.596
11/05/2014  15:15:00      157.115       52.612       51.698      163.156       98.308       69.787    26619.839     9664.534     4870.201        3.563        2.058      165.690       71.250        0.185      342.892       18.619      868.573
11/05/2014  15:16:00      231.767       66.128       47.807      124.971      105.696       82.562    15617.863    11171.674     6816.441        4.698        1.680      241.017       65.323        0.073      342.715       18.316      868.560
11/05/2014  15:17:00      141.376       99.604       10.288       72.414       62.787       51.741     5243.806     3942.237     2677.134        2.094        0.593      172.939       41.024        0.056      342.776       18.421      868.554
11/05/2014  15:18:00      159.977      126.977       10.484      121.170       77.968       63.363    14682.221     6078.970     4014.919        3.330        1.239      204.244       41.459        0.041      342.955       18.725      868.549
11/05/2014  15:19:00      254.907      153.700       24.144      134.205       98.954       79.915    18011.051     9791.811     6386.432        6.168        1.709      297.659       57.179        0.037      342.969       18.749      868.534
11/05/2014  15:20:00      187.731      147.184       35.536      108.638       74.686       60.200    11802.219     5577.985     3624.036        3.958        1.050      238.550       33.154        0.019      342.821       18.496      868.546
11/05/2014  15:21:00      214.211      146.339       28.770       99.796       81.534       79.949     9959.255     6647.765     6391.846        4.556        1.150      259.426       49.216        0.036      342.894       18.619      868.517
11/05/2014  15:22:00      124.643      108.857       26.390      114.105       77.942       56.953    13020.054     6074.904     3243.650        2.521        1.117      165.486       23.467        0.020      342.955       18.725      868.507
11/05/2014  15:23:00      201.921      152.212        8.571       92.829       90.714       75.800     8617.193     8228.957     5745.612        4.330        1.130      252.865       49.258        0.038      342.944       18.704      868.499
11/05/2014  15:24:00      192.415      122.121       33.673       66.032       48.348       51.292     4360.172     2337.548     2630.889        3.120        0.466      227.897       10.436        0.002      342.934       18.688      868.492
11/05/2014  15:25:00      185.292      158.219        9.315      123.328       91.431       66.701    15209.709     8359.684     4449.036        4.373        1.401      243.652       42.889        0.031      342.928       18.678      868.477
11/05/2014  15:26:00      262.850      200.073       12.342      123.159      105.871       94.061    15168.253    11208.705     8847.513        7.224        1.761      330.332       64.742        0.038      342.869       18.577      868.472
11/05/2014  15:27:00      247.112      180.779       -6.133      117.191       78.232       74.945    13733.618     6120.256     5616.791        5.962        1.274      306.179       39.003        0.016      342.841       18.530      868.458
11/05/2014  15:28:00      212.565      165.019       37.405      148.651      119.549       85.232    22097.157    14291.894     7264.496        5.873        2.183      269.100       65.565        0.059      342.853       18.551      868.447
11/05/2014  15:29:00      193.896      156.935       15.726       96.383       86.814       71.878     9289.635     7536.745     5166.517        4.223        1.100      249.448       59.974        0.058      342.880       18.595      868.433
11/05/2014  15:30:00      141.483       92.134       14.870      109.728       68.866       49.086    12040.306     4742.547     2409.438        2.396        0.960      168.837       23.015        0.019      342.910       18.649      868.430
11/05/2014  15:31:00      134.773       75.868       52.079      116.886       80.474       71.830    13662.443     6475.993     5159.615        2.596        1.265      154.660       60.243        0.152      342.808       18.476      868.411
11/05/2014  15:32:00      220.828      112.259       25.506      161.479      103.632       58.699    26075.575    10739.588     3445.518        5.113        2.013      247.724       24.441        0.010      342.744       18.365      868.414
11/05/2014  15:33:00      150.342      187.776       -2.788      139.444       97.595       76.282    19444.622     9524.763     5818.958        4.632        1.739      240.547       48.045        0.040      342.793       18.451      868.402
11/05/2014  15:34:00      271.198      178.701       19.570       89.809       75.508       60.758     8065.729     5701.500     3691.584        6.166        0.873      324.780       37.899        0.014      342.804       18.466      868.399
11/05/2014  15:35:00      276.051      164.525       40.530      119.669      106.976       89.470    14320.743    11443.928     8004.932        6.934        1.688      321.360       36.651        0.013      342.733       18.346      868.392
11/05/2014  15:36:00      248.478      145.745       25.187      156.590      111.431       83.504    24520.562    12416.951     6972.975        6.376        2.196      288.068       70.489        0.060      342.727       18.338      868.390
11/05/2014  15:37:00      184.577      112.048       43.535      120.924       83.710       49.501    14622.660     7007.350     2450.398        3.629        1.204      215.925       27.379        0.016      342.675       18.249      868.416
11/05/2014  15:38:00      118.877       92.782        8.116       66.898       53.942       49.172     4475.302     2909.747     2417.866        1.630        0.490      150.799       38.765        0.066      342.763       18.399      868.438
11/05/2014  15:39:00      214.313      155.042       32.612      101.694       61.742       73.901    10341.715     3812.118     5461.395        4.532        0.981      264.514       40.343        0.023      342.813       18.482      868.447
11/05/2014  15:40:00      201.457      151.218       17.073      119.068      102.949       89.922    14177.299    10598.406     8086.004        4.830        1.643      251.896       51.454        0.042      342.742       18.361      868.452
11/05/2014  15:41:00      267.096      176.965       30.287       92.947       86.966       82.762     8639.062     7563.134     6849.563        6.331        1.153      320.401       54.274        0.029      342.703       18.294      868.453
11/05/2014  15:42:00      249.091      145.999       39.358       91.143       83.059       81.855     8307.112     6898.811     6700.223        5.340        1.095      288.725       50.716        0.031      342.693       18.277      868.466
11/05/2014  15:43:00      184.972      100.489       82.863      139.408      101.118       88.820    19434.554    10224.903     7889.041        4.436        1.877      210.506       70.853        0.113      342.548       18.031      868.463
11/05/2014  15:44:00      253.968      162.587       51.089      123.784      110.510       62.750    15322.546    12212.494     3937.518        6.250        1.574      301.553       58.557        0.038      342.615       18.147      868.471
11/05/2014  15:45:00      260.843      138.706       36.554      152.050      120.358       79.664    23119.222    14485.964     6346.376        6.627        2.198      295.429       52.772        0.032      342.616       18.148      868.474
11/05/2014  15:46:00      263.753      191.330       84.219      120.885       86.030       81.392    14613.150     7401.100     6624.648        7.095        1.432      325.842       62.577        0.037      342.558       18.049      868.474
11/05/2014  15:47:00      279.539      195.882       33.255      107.574       90.530       67.065    11572.151     8195.639     4497.748        7.094        1.213      341.338       35.379        0.011      342.594       18.109      868.476
11/05/2014  15:48:00      277.492      231.712       28.120      171.311      134.949       95.206    29347.620    18211.122     9064.262        9.404        2.831      361.514       70.314        0.038      342.580       18.085      868.452
11/05/2014  15:49:00      278.097      193.235       24.564      143.686      110.154       93.113    20645.628    12133.941     8670.051        7.836        2.072      338.640       62.692        0.034      342.532       18.006      868.446
11/05/2014  15:50:00      258.521      152.142       26.393       98.633       91.927       76.983     9728.426     8450.509     5926.389        5.739        1.205      299.967       50.856        0.029      342.556       18.045      868.446
11/05/2014  15:51:00      211.396      155.841       19.401      110.229       82.239       61.281    12150.519     6763.334     3755.360        4.601        1.133      262.630       23.458        0.008      342.578       18.084      868.444
11/05/2014  15:52:00      115.272       58.856       11.827       79.468       56.554       39.534     6315.160     3198.402     1562.900        1.398        0.554      129.428       18.572        0.021      342.556       18.048      868.437
11/05/2014  15:53:00      151.587       67.284       23.987       78.263       50.031       40.324     6125.101     2503.056     1626.033        1.917        0.513      165.848       22.778        0.019      342.561       18.056      868.443
11/05/2014  15:54:00      217.244      147.780       38.857      139.358      109.052       90.135    19420.619    11892.292     8124.293        5.498        1.972      262.743       37.710        0.021      342.535       18.010      868.423
11/05/2014  15:55:00      132.270      142.740        9.710       84.953       78.774       59.844     7217.071     6205.298     3581.250        2.748        0.850      194.602       50.332        0.067      342.553       18.041      868.419
11/05/2014  15:56:00      178.070       95.170       20.094       84.323       72.406       66.682     7110.316     5242.560     4446.467        2.898        0.840      201.907       38.862        0.037      342.557       18.048      868.430
11/05/2014  15:57:00      233.324      139.960       51.470      141.412      105.329       74.531    19997.322    11094.151     5554.869        5.665        1.832      272.082       74.821        0.076      342.549       18.034      868.432
11/05/2014  15:58:00      249.923      158.407       66.158      121.417       88.711       80.448    14741.975     7869.642     6471.908        6.050        1.454      295.895       56.424        0.036      342.532       18.005      868.421
11/05/2014  15:59:00      160.231       76.077       40.087       90.070       57.199       54.368     8112.609     3271.671     2955.837        2.370        0.717      177.374       36.578        0.043      342.505       17.958      868.425
11/05/2014  16:00:00      173.254      127.100       33.348       82.163       76.362       46.580     6750.693     5831.150     2169.720        3.101        0.738      214.875       40.387        0.035      342.522       17.986      868.427
11/05/2014  16:01:00      180.562      113.939       29.174       47.247       51.846       48.739     2232.268     2687.972     2375.486        2.686        0.365      213.506       22.370        0.011      342.587       18.099      868.425
11/05/2014  16:02:00      251.794      124.098       33.498      134.396      118.914       60.845    18062.247    14140.588     3702.136        5.791        1.795      280.714       34.763        0.015      342.482       17.921      868.443
11/05/2014  16:03:00      261.254      175.512       57.041       98.551       81.632       71.578     9712.257     6663.733     5123.403        6.190        1.075      314.735       24.828        0.006      342.486       17.926      868.446
11/05/2014  16:04:00      212.689      146.371        2.792       77.099       63.745       51.674     5944.228     4063.430     2670.172        3.967        0.634      258.188       20.739        0.006      342.444       17.854      868.458
11/05/2014  16:05:00      202.217      160.747       23.191       92.388       74.192       54.906     8535.577     5504.492     3014.657        4.216        0.853      258.324       34.590        0.018      342.398       17.777      868.465
11/05/2014  16:06:00      233.813      148.128       36.794       94.848       78.382       61.096     8996.123     6143.680     3732.707        4.841        0.944      276.786       22.568        0.007      342.401       17.781      868.467
11/05/2014  16:07:00      184.152       99.781       47.164      124.697       83.098       57.088    15549.414     6905.285     3259.026        3.590        1.286      209.448       45.648        0.048      342.354       17.704      868.476
11/05/2014  16:08:00      219.425      172.022       25.698      143.471       94.612       85.980    20583.861     8951.474     7392.485        5.766        1.846      278.817       61.752        0.049      342.410       17.797      868.466
11/05/2014  16:09:00      173.426      121.611       45.168      120.861       87.102       72.863    14607.390     7586.749     5309.068        3.720        1.375      211.815       54.956        0.067      342.373       17.734      868.477
11/05/2014  16:10:00      269.001      184.585       27.226      106.721      100.238       74.089    11389.455    10047.582     5489.174        6.704        1.346      326.241       61.347        0.035      342.383       17.750      868.479
11/05/2014  16:11:00      237.966      145.631       50.701       71.209       51.021       58.762     5070.765     2603.150     3452.922        4.576        0.556      278.991       37.384        0.018      342.408       17.792      868.485
11/05/2014  16:12:00      211.151      119.549       33.921       78.633       49.426       47.337     6183.117     2442.959     2240.785        3.544        0.543      242.645       45.110        0.035      342.340       17.676      868.486
11/05/2014  16:13:00      268.824      187.499       10.208      114.521      107.345       76.387    13115.150    11522.976     5835.047        6.899        1.524      327.753       53.724        0.027      342.353       17.700      868.477
11/05/2014  16:14:00      237.495      115.039       23.118       96.486       84.987       65.080     9309.560     7222.793     4235.428        4.547        1.038      263.890       46.844        0.032      342.316       17.635      868.483
11/05/2014  16:15:00      146.337       90.107       57.561       75.622       48.670       50.392     5718.742     2368.791     2539.324        2.173        0.531      171.854       32.481        0.036      342.317       17.639      868.501
11/05/2014  16:16:00      143.439       65.244       63.505      104.720       65.113       56.381    10966.258     4239.671     3178.815        2.362        0.919      157.580       45.261        0.082      342.193       17.429      868.494
11/05/2014  16:17:00      193.700       63.507       21.491      113.259       85.540       65.001    12827.700     7317.040     4225.134        3.319        1.218      203.845       50.775        0.062      342.236       17.502      868.495
11/05/2014  16:18:00      153.209      103.698       15.966       57.211       50.748       49.039     3273.150     2575.389     2404.829        2.137        0.413      185.004       29.255        0.025      342.203       17.446      868.511
11/05/2014  16:19:00      124.467       86.335       30.281       59.393       47.654       38.237     3527.533     2270.913     1462.089        1.556        0.363      151.478       19.665        0.017      342.210       17.461      868.515
11/05/2014  16:20:00      140.264       94.372       35.528       55.217       52.008       38.864     3048.902     2704.843     1510.433        1.855        0.363      169.056       26.088        0.024      342.175       17.399      868.515
11/05/2014  16:21:00      268.926      170.151       62.600       96.404       81.100       57.151     9293.755     6577.212     3266.191        6.216        0.957      318.233       30.360        0.009      342.234       17.499      868.504
11/05/2014  16:22:00      112.254       70.387       36.508       88.819       61.729       53.519     7888.808     3810.530     2864.292        1.672        0.728      132.496       44.438        0.112      342.110       17.289      868.514
11/05/2014  16:23:00      129.665       83.840       45.377       75.532       53.680       49.820     5705.091     2881.520     2481.995        1.848        0.553      154.409       32.580        0.045      342.029       17.151      868.527
11/05/2014  16:24:00      157.864       97.052       58.658       55.811       59.068       48.651     3114.875     3489.055     2366.947        2.337        0.449      185.311       25.237        0.019      342.045       17.179      868.527
11/05/2014  16:25:00      125.479       53.889       17.021       59.800       44.830       39.663     3576.096     2009.709     1573.136        1.305        0.358      136.561       20.353        0.022      342.037       17.167      868.536
11/05/2014  16:26:00       90.253       64.607       38.258       83.911       43.970       44.443     7041.048     1933.325     1975.161        1.236        0.547      110.994       16.556        0.022      342.061       17.207      868.529
11/05/2014  16:27:00      173.865       75.874       17.923       81.896       64.496       46.315     6706.951     4159.705     2145.074        2.466        0.651      189.700       26.913        0.020      342.087       17.248      868.537
11/05/2014  16:28:00      132.166       82.536       20.057       55.487       44.443       38.998     3078.819     1975.164     1520.873        1.563        0.329      155.821       27.640        0.031      342.028       17.149      868.542
11/05/2014  16:29:00      111.182       65.726       41.173       55.989       42.738       43.052     3134.773     1826.544     1853.435        1.259        0.341      129.156       26.351        0.042      342.012       17.124      868.545
11/05/2014  16:30:00       99.333       70.240       39.147       44.928       44.120       44.670     2018.496     1946.602     1995.400        1.115        0.298      121.657       26.494        0.047      341.959       17.035      868.548
11/05/2014  16:31:00      132.027       96.234       22.721       62.186       45.059       35.288     3867.123     2030.270     1245.270        1.717        0.357      163.377       16.691        0.010      342.002       17.107      868.531
11/05/2014  16:32:00      195.589      105.676       32.706       73.979       59.646       43.126     5472.825     3557.598     1859.843        3.069        0.545      222.312       16.435        0.005      341.991       17.086      868.530
11/05/2014  16:33:00      154.114      114.391       23.591       75.540       71.837       63.484     5706.279     5160.496     4030.192        2.614        0.745      191.928       39.405        0.042      341.953       17.022      868.525
11/05/2014  16:34:00      237.604      167.542       25.603       98.643       73.721       66.200     9730.508     5434.725     4382.420        5.236        0.977      290.734       35.588        0.015      341.979       17.065      868.509
11/05/2014  16:35:00      165.456      116.471       30.453       79.252       64.366       50.620     6280.817     4142.987     2562.415        2.742        0.649      202.340       31.444        0.024      341.900       16.932      868.510
11/05/2014  16:36:00      173.478      120.851       29.555      103.198       76.751       70.812    10649.894     5890.759     5014.410        3.356        1.078      211.423       51.484        0.059      341.888       16.911      868.513
11/05/2014  16:37:00      152.731      110.414       28.161       98.028       79.381       76.744     9609.517     6301.321     5889.659        2.905        1.090      188.462       59.688        0.100      341.877       16.893      868.509
11/05/2014  16:38:00      219.185      147.468       41.995      105.528       83.418       57.867    11136.177     6958.531     3348.590        4.649        1.072      264.176       14.275        0.003      341.892       16.917      868.520
11/05/2014  16:39:00      144.527      114.472       27.227       70.363       59.333       51.025     4950.891     3520.389     2603.601        2.290        0.554      184.368       30.001        0.026      341.763       16.700      868.530
11/05/2014  16:40:00      225.083      162.027       36.936       64.859       63.533       55.692     4206.704     4036.488     3101.635        4.481        0.567      277.336       31.146        0.013      341.807       16.771      868.546
11/05/2014  16:41:00      233.365      162.757       24.227       80.080       90.287       60.510     6412.861     8151.744     3661.404        4.988        0.911      284.515       30.568        0.012      341.821       16.796      868.538
11/05/2014  16:42:00      184.219      133.153       39.712      123.437       72.667       63.110    15236.622     5280.548     3982.823        3.887        1.225      227.302       34.445        0.023      341.764       16.700      868.547
11/05/2014  16:43:00      206.660      130.131       38.784       63.919       48.786       47.879     4085.645     2380.039     2292.385        3.495        0.438      244.218       33.368        0.019      341.763       16.698      868.557
11/05/2014  16:44:00      178.383      115.157        7.333       71.728       54.365       46.339     5144.855     2955.564     2147.344        2.769        0.512      212.324       23.026        0.012      341.709       16.607      868.566
11/05/2014  16:45:00      149.893       85.370       21.599       78.995       57.116       44.746     6240.159     3262.279     2002.220        2.086        0.575      172.499       25.928        0.023      341.663       16.529      868.572
11/05/2014  16:46:00      195.091      133.384       25.661       74.364       57.966       53.663     5530.041     3360.058     2879.676        3.414        0.588      236.330       39.104        0.027      341.725       16.633      868.563
11/05/2014  16:47:00      125.635      119.298       18.047       84.884       57.360       62.364     7205.278     3290.150     3889.241        2.236        0.719      173.252       32.446        0.035      341.679       16.556      868.568
11/05/2014  16:48:00      198.936      129.864       20.960       60.433       65.277       60.435     3652.207     4261.143     3652.382        3.422        0.578      237.572       38.842        0.027      341.693       16.580      868.575
11/05/2014  16:49:00      133.458      104.842       20.593       86.488       62.093       58.228     7480.157     3855.507     3390.513        2.197        0.736      169.714       41.821        0.061      341.624       16.464      868.571
11/05/2014  16:50:00      187.569      117.679       27.358       76.825       63.541       68.452     5902.155     4037.415     4685.721        3.220        0.731      221.428       39.094        0.031      341.632       16.476      868.562
11/05/2014  16:51:00      164.855       94.977       38.759       76.914       54.403       46.215     5915.716     2959.654     2135.799        2.435        0.551      190.257       26.794        0.020      341.549       16.337      868.569
11/05/2014  16:52:00      149.467      107.032       20.099       69.979       58.320       44.261     4897.091     3401.225     1958.994        2.223        0.513      183.838       28.773        0.024      341.563       16.360      868.578
11/05/2014  16:53:00      156.824      100.504       18.660       66.910       45.083       50.523     4476.938     2032.505     2552.595        2.205        0.453      186.265       16.147        0.008      341.517       16.281      868.580
11/05/2014  16:54:00      118.870       87.721       28.303       60.225       51.584       45.399     3627.026     2660.918     2061.045        1.549        0.417      147.733       24.863        0.028      341.462       16.190      868.578
11/05/2014  16:55:00      105.813       87.812        3.431       65.185       54.353       45.340     4249.068     2954.299     2055.675        1.409        0.463      137.504       32.726        0.057      341.461       16.188      868.579
11/05/2014  16:56:00      147.326      107.755       18.650       81.226       64.081       47.302     6597.643     4106.334     2237.445        2.330        0.647      182.527       35.718        0.038      341.494       16.242      868.592
11/05/2014  16:57:00      166.274      143.946       16.025       89.937       63.747       50.205     8088.716     4063.623     2520.578        3.165        0.734      219.926       33.022        0.023      341.503       16.258      868.582
11/05/2014  16:58:00      121.267       87.000       21.980       72.273       59.245       44.871     5223.456     3509.959     2013.399        1.675        0.537      149.247       27.830        0.035      341.404       16.091      868.578
11/05/2014  16:59:00      165.594      118.656       31.029       69.737       51.886       52.278     4863.288     2692.168     2733.029        2.637        0.514      203.717       31.823        0.024      341.454       16.175      868.576
11/05/2014  17:00:00      158.684       88.557       29.796       52.875       48.884       47.910     2795.745     2389.638     2295.347        2.069        0.374      181.722       21.319        0.014      341.412       16.105      868.575
11/05/2014  17:01:00      181.183      128.955       35.416       59.092       50.669       37.209     3491.911     2567.356     1384.544        2.908        0.372      222.389       12.629        0.003      341.430       16.133      868.572
11/05/2014  17:02:00      183.605       93.524       18.170       85.634       69.982       50.265     7333.205     4897.549     2526.595        2.877        0.738      206.052       37.629        0.033      341.385       16.057      868.567
11/05/2014  17:03:00      172.487      103.293       19.954       76.351       54.372       44.685     5829.430     2956.299     1996.759        2.580        0.539      201.051       19.585        0.009      341.351       16.000      868.559
11/05/2014  17:04:00      114.184       80.875       23.771       76.044       54.708       46.239     5782.620     2992.983     2138.010        1.553        0.546      139.924       27.438        0.038      341.339       15.982      868.552
11/05/2014  17:05:00      158.708       87.096       20.790       81.168       54.577       50.250     6588.259     2978.647     2525.044        2.265        0.605      181.035       35.242        0.038      341.347       15.993      868.552
11/05/2014  17:06:00      168.211      119.125       19.305       62.228       54.507       38.949     3872.356     2971.037     1517.061        2.561        0.418      206.121       24.735        0.014      341.307       15.927      868.554
11/05/2014  17:07:00      175.473      107.673       34.133       68.728       51.985       46.265     4723.584     2702.388     2140.445        2.656        0.478      205.875       42.180        0.042      341.296       15.907      868.563
11/05/2014  17:08:00      104.740       76.448       13.811       46.237       41.707       32.307     2137.905     1739.463     1043.774        1.096        0.246      129.672       20.217        0.024      341.260       15.849      868.567
11/05/2014  17:09:00      126.917       83.559       29.239       64.669       43.862       37.134     4182.114     1923.906     1378.925        1.571        0.374      151.953       23.273        0.023      341.220       15.782      868.562
11/05/2014  17:10:00      109.090       91.607       18.243       71.660       67.901       49.198     5135.199     4610.570     2420.402        1.639        0.608      142.451       38.855        0.074      341.222       15.785      868.566
11/05/2014  17:11:00      131.472      102.926       21.266       64.239       52.515       41.847     4126.683     2757.853     1751.148        1.848        0.432      166.969       38.865        0.054      341.208       15.760      868.557
11/05/2014  17:12:00      120.591       67.208       25.659       61.247       46.754       37.439     3751.146     2185.898     1401.643        1.353        0.367      138.055       22.544        0.027      341.154       15.668      868.575
11/05/2014  17:13:00       97.883       67.110       29.285       72.074       48.558       42.752     5194.645     2357.896     1827.749        1.216        0.469      118.679       26.954        0.052      341.128       15.626      868.576
11/05/2014  17:14:00      165.130       92.938       20.608       71.494       60.610       34.571     5111.450     3673.630     1195.148        2.315        0.499      189.487        9.126        0.002      341.200       15.746      868.591
11/05/2014  17:15:00       80.252       73.081       16.870       52.247       38.253       32.307     2729.744     1463.330     1043.720        0.865        0.262      108.541       21.429        0.039      341.078       15.542      868.609
11/05/2014  17:16:00      121.383       72.924       25.059       63.260       60.069       35.628     4001.854     3608.300     1269.360        1.478        0.444      141.604       26.305        0.035      341.084       15.551      868.614
11/05/2014  17:17:00      124.924       84.192       16.877       68.783       58.395       41.455     4731.093     3409.982     1718.534        1.642        0.493      150.647       32.143        0.046      341.055       15.501      868.634
11/05/2014  17:18:00      153.675      104.996       23.856       56.529       42.205       43.308     3195.484     1781.278     1875.563        2.103        0.343      186.119       28.849        0.024      341.064       15.516      868.629
11/05/2014  17:19:00      125.956       59.275       14.719       74.231       50.799       44.620     5510.282     2580.557     1990.907        1.484        0.504      139.207       22.352        0.026      340.975       15.367      868.626
11/05/2014  17:20:00      125.688      101.658       25.285       66.894       38.784       38.949     4474.776     1504.227     1517.025        1.713        0.375      161.654       21.656        0.018      341.076       15.536      868.621
11/05/2014  17:21:00      175.649      103.372       24.349       86.959       61.083       47.949     7561.916     3731.169     2299.129        2.786        0.680      203.810       31.526        0.024      341.104       15.583      868.624
11/05/2014  17:22:00      118.225       88.710       17.582       64.247       45.705       42.030     4127.704     2088.922     1766.531        1.507        0.399      147.806       28.550        0.037      341.029       15.459      868.617
11/05/2014  17:23:00      111.614       85.517        6.213       93.161       61.334       47.202     8678.902     3761.884     2228.044        1.724        0.733      140.608       26.849        0.036      341.032       15.463      868.600
11/05/2014  17:24:00       75.989       61.919        5.999       70.393       55.053       31.329     4955.147     3030.790      981.497        0.930        0.448       98.022       18.054        0.034      340.969       15.356      868.609
11/05/2014  17:25:00      142.650       80.277       26.875       48.104       46.491       38.045     2314.032     2161.397     1447.420        1.672        0.296      163.687       23.138        0.020      341.004       15.416      868.612
11/05/2014  17:26:00       95.068       73.058       14.249       60.733       43.327       45.696     3688.530     1877.247     2088.090        1.111        0.383      119.898       29.410        0.060      340.961       15.342      868.633
11/05/2014  17:27:00       78.006       68.424       14.037       48.345       32.626       29.873     2337.206     1064.468      892.388        0.763        0.215      103.763       17.304        0.028      340.912       15.259      868.642
11/05/2014  17:28:00       61.225       67.387        3.675       45.750       39.005       29.230     2093.031     1521.372      854.395        0.638        0.223       91.046       25.897        0.081      340.864       15.178      868.670
11/05/2014  17:29:00       67.027       68.683        2.658       72.083       47.955       41.320     5196.026     2299.650     1707.324        0.921        0.460       95.968       33.683        0.123      340.882       15.209      868.676
11/05/2014  17:30:00       99.090       81.680       12.837       51.896       61.101       53.548     2693.232     3733.275     2867.424        1.297        0.465      128.415       43.063        0.112      340.891       15.224      868.687
11/05/2014  17:31:00      116.027       96.547       -0.334       81.574       47.948       47.848     6654.328     2298.999     2289.465        1.701        0.562      150.942       34.480        0.052      340.877       15.200      868.695
11/05/2014  17:32:00      109.235       97.215       17.775       78.370       43.088       42.099     6141.885     1856.581     1772.354        1.573        0.489      146.229       25.688        0.031      340.874       15.194      868.703
11/05/2014  17:33:00       47.311      100.469       -2.735       57.553       61.665       45.852     3312.291     3802.559     2102.392        1.078        0.461      111.051       41.523        0.140      340.904       15.247      868.716
11/05/2014  17:34:00       59.406       66.085       13.597       57.214       40.636       37.594     3273.400     1651.270     1413.334        0.721        0.317       88.862       30.740        0.120      340.866       15.180      868.714
11/05/2014  17:35:00       74.505      119.016        0.770       60.467       65.844       40.018     3656.273     4335.371     1601.427        1.465        0.480      140.413       31.074        0.049      340.814       15.092      868.721
11/05/2014  17:36:00      100.035       80.403        6.340       43.855       37.662       32.804     1923.225     1418.441     1076.103        1.046        0.221      128.342       23.399        0.033      340.757       14.998      868.722
11/05/2014  17:37:00       93.157       67.203        9.590       60.926       53.052       41.366     3712.030     2814.546     1711.137        1.076        0.412      114.868       35.836        0.097      340.764       15.011      868.707
11/05/2014  17:38:00      123.012       83.735       35.653       48.713       32.621       27.354     2372.978     1064.120      748.261        1.380        0.209      148.807       13.206        0.008      340.739       14.968      868.698
11/05/2014  17:39:00       84.376       68.862       17.827       40.348       34.865       34.059     1627.976     1215.599     1160.027        0.809        0.200      108.909       23.268        0.046      340.705       14.910      868.688
11/05/2014  17:40:00      115.045       78.834       17.404       50.016       30.098       35.589     2501.573      905.876     1266.606        1.221        0.234      139.464       25.418        0.033      340.714       14.926      868.689
11/05/2014  17:41:00      110.001       87.907       14.271       40.077       35.324       26.120     1606.133     1247.768      682.278        1.178        0.177      140.811       18.839        0.018      340.689       14.883      868.690
11/05/2014  17:42:00       46.249       69.218        1.963       40.443       60.935       35.418     1635.664     3713.130     1254.422        0.677        0.330       83.247       34.187        0.169      340.619       14.765      868.705
11/05/2014  17:43:00       84.910       62.913        8.265       45.433       35.347       34.694     2064.183     1249.404     1203.707        0.788        0.226      105.677       14.315        0.018      340.702       14.906      868.716
11/05/2014  17:44:00       71.325       81.050        9.240       55.622       44.571       37.452     3093.797     1986.607     1402.656        0.911        0.324      107.964       27.406        0.064      340.675       14.858      868.737
11/05/2014  17:45:00       49.334       46.097       12.541       44.693       34.985       31.182     1997.426     1223.936      972.326        0.445        0.210       67.519       19.478        0.083      340.635       14.792      868.762
11/05/2014  17:46:00       54.599       50.502       12.019       62.389       49.266       38.155     3892.445     2427.169     1455.781        0.672        0.389       74.374       27.051        0.132      340.621       14.767      868.766
11/05/2014  17:47:00       91.296       70.111       13.057       48.604       30.209       33.111     2362.336      912.589     1096.354        0.890        0.219      115.111       17.321        0.023      340.649       14.815      868.792
11/05/2014  17:48:00       86.624       77.927        5.325       36.505       35.440       27.397     1332.620     1255.989      750.588        0.847        0.167      116.517       14.986        0.017      340.597       14.727      868.817
11/05/2014  17:49:00       98.977       63.976       16.224       42.135       32.068       28.305     1775.381     1028.361      801.187        0.888        0.180      117.853       18.683        0.025      340.580       14.699      868.839
11/05/2014  17:50:00       58.447       71.159        5.590       54.668       39.165       31.893     2988.612     1533.885     1017.165        0.702        0.277       92.085       27.153        0.087      340.583       14.703      868.845
11/05/2014  17:51:00      126.179      100.221       16.842       86.085       55.119       54.152     7410.612     3038.153     2932.462        1.981        0.669      161.137       37.639        0.055      340.823       15.108      868.843
11/05/2014  17:52:00      122.947       82.531       23.761       48.908       52.258       47.937     2391.983     2730.921     2297.943        1.495        0.371      148.079       37.164        0.063      340.731       14.953      868.847
11/05/2014  17:53:00       91.400      115.756        5.055       59.262       78.678       48.620     3512.012     6190.222     2363.873        1.692        0.603      147.490       46.163        0.098      340.681       14.868      868.852
11/05/2014  17:54:00       57.589      104.199       -2.152       52.874       69.457       46.275     2795.627     4824.343     2141.384        1.197        0.488      119.054       44.107        0.137      340.659       14.832      868.862
11/05/2014  17:55:00      102.480       75.758       12.264       59.049       37.600       42.808     3486.738     1413.757     1832.552        1.156        0.337      127.441       28.330        0.049      340.643       14.805      868.878
11/05/2014  17:56:00       77.087       79.129       17.500       63.963       37.290       35.159     4091.265     1390.552     1236.157        0.961        0.336      110.471       29.869        0.073      340.608       14.746      868.892
11/05/2014  17:57:00      113.040      105.451       16.473       70.802       50.105       50.563     5012.949     2510.512     2556.620        1.712        0.504      154.590       29.620        0.037      340.665       14.841      868.912
11/05/2014  17:58:00      156.366       95.717       14.897       79.797       64.571       40.011     6367.607     4169.409     1600.863        2.298        0.607      183.336       22.343        0.015      340.613       14.753      868.907
11/05/2014  17:59:00       71.027       55.009       10.759       67.946       28.507       27.302     4616.642      812.653      745.392        0.718        0.309       89.838       15.882        0.031      340.484       14.536      868.915
11/05/2014  18:00:00       75.089       69.788       12.853       49.818       35.063       37.034     2481.845     1229.432     1371.506        0.788        0.254      102.512       20.593        0.040      340.531       14.614      868.924
11/05/2014  18:01:00       37.835       76.282        5.949       40.777       39.092       31.229     1662.743     1528.183      975.256        0.573        0.208       85.149       23.409        0.076      340.539       14.630      868.924
11/05/2014  18:02:00       34.192       97.454      -11.976       36.129       42.145       31.882     1305.283     1776.211     1016.485        0.745        0.205      103.278       27.584        0.071      340.532       14.618      868.944
11/05/2014  18:03:00       58.976       91.574       -3.648       52.700       46.569       36.657     2777.323     2168.673     1343.763        0.908        0.314      108.922       34.284        0.099      340.547       14.644      868.965
11/05/2014  18:04:00       64.761       68.522       10.164       52.485       31.628       31.523     2754.719     1000.319      993.669        0.687        0.237       94.283       21.779        0.053      340.566       14.675      868.972
11/05/2014  18:05:00       26.382       69.385        0.173       22.470       32.119       22.268      504.910     1031.629      495.850        0.377        0.102       74.232       20.011        0.073      340.512       14.583      868.988
11/05/2014  18:06:00       18.787      110.076       -9.586       27.661       45.512       23.008      765.141     2071.349      529.379        0.796        0.168      111.667       23.729        0.045      340.504       14.571      868.988
11/05/2014  18:07:00        6.129      116.900      -13.584       23.988       54.475       20.867      575.423     2967.512      435.420        0.893        0.199      117.060       27.865        0.057      340.512       14.585      868.979
11/05/2014  18:08:00       26.484      143.242      -16.877       46.523       45.083       27.027     2164.389     2032.506      730.468        1.321        0.246      145.670       30.318        0.043      340.498       14.558      868.983
11/05/2014  18:09:00       28.006      116.782       -4.867       37.633       55.723       31.674     1416.212     3105.008     1003.233        0.998        0.276      120.093       35.083        0.085      340.461       14.497      868.983
11/05/2014  18:10:00       47.432      106.051       -6.592       54.162       45.754       29.068     2933.568     2093.462      844.974        0.970        0.294      116.175       24.046        0.043      340.413       14.416      868.999
11/05/2014  18:11:00       32.854      105.980       -8.637       40.268       54.114       31.183     1621.511     2928.355      972.353        0.895        0.276      110.956       32.197        0.084      340.392       14.379      869.010
11/05/2014  18:12:00       22.381      107.771       -9.653       24.701       44.831       24.859      610.156     2009.855      617.987        0.772        0.162      110.070       23.610        0.046      340.410       14.411      869.016
11/05/2014  18:13:00       23.497      169.764      -29.143       25.085       30.776       15.402      629.277      947.136      237.222        1.602        0.091      171.383       13.507        0.006      340.423       14.432      869.030
11/05/2014  18:14:00       50.143      150.241      -15.507       36.992       46.134       31.657     1368.434     2128.374     1002.146        1.491        0.225      158.388       28.924        0.033      340.376       14.354      869.055
11/05/2014  18:15:00       38.311       53.865        6.580       32.993       33.620       28.840     1088.530     1130.307      831.760        0.373        0.153       66.100       23.210        0.123      340.341       14.295      869.072
11/05/2014  18:16:00       31.832       74.296       -4.643       30.536       35.364       21.880      932.467     1250.642      478.721        0.461        0.133       80.828       21.203        0.069      340.388       14.373      869.095
11/05/2014  18:17:00       34.690       94.428       -8.294       37.724       46.313       25.929     1423.065     2144.929      672.331        0.721        0.212      100.598       19.443        0.037      340.381       14.362      869.119
11/05/2014  18:18:00       34.084       81.678       -8.033       25.420       40.600       20.736      646.191     1648.342      429.995        0.531        0.136       88.505       19.752        0.050      340.373       14.349      869.125
11/05/2014  18:19:00       41.072      138.064      -19.874       32.790       36.469       22.216     1075.184     1329.993      493.555        1.202        0.145      144.044       22.330        0.024      340.438       14.459      869.130
11/05/2014  18:20:00       31.812       99.336      -11.025       29.231       41.046       21.788      854.431     1684.795      474.696        0.701        0.151      104.305       16.751        0.026      340.299       14.222      869.147
11/05/2014  18:21:00       29.707       57.185       -8.366       30.322       36.314       21.796      919.427     1318.679      475.048        0.347        0.136       64.441       19.230        0.089      340.262       14.162      869.156
11/05/2014  18:22:00       21.697      105.679      -12.907       34.885       31.316       23.902     1216.987      980.661      571.303        0.729        0.138      107.883       20.588        0.036      340.309       14.242      869.166
11/05/2014  18:23:00       38.013       96.125      -12.641       25.891       39.317       20.144      670.338     1545.796      405.770        0.673        0.131      103.368       18.616        0.032      340.355       14.318      869.187
11/05/2014  18:24:00       35.352      143.417      -21.499       21.096       29.063       18.495      445.047      844.632      342.052        1.196        0.082      147.710       13.273        0.008      340.420       14.427      869.196
11/05/2014  18:25:00       38.306      134.682      -15.015       23.722       21.008       20.518      562.719      441.351      420.977        1.063        0.071      140.024       13.832        0.010      340.345       14.300      869.209
11/05/2014  18:26:00       22.832      136.144      -22.160       19.968       20.273       10.928      398.717      410.997      119.412        1.024        0.046      138.045       10.115        0.005      340.288       14.206      869.224
11/05/2014  18:27:00       23.075      148.742      -25.386       16.668       19.771       12.371      277.829      390.880      153.039        1.206        0.041      150.521       11.064        0.005      340.284       14.198      869.236
11/05/2014  18:28:00       39.854      131.920      -25.221       21.013       22.931       16.164      441.544      525.848      261.286        1.043        0.061      137.809       11.180        0.007      340.257       14.152      869.245
11/05/2014  18:29:00       38.518      144.278      -27.579       19.170       26.302       14.475      367.499      691.798      209.521        1.216        0.063      149.331       11.903        0.006      340.243       14.128      869.263
11/05/2014  18:30:00       31.955      148.216      -27.340       21.493       29.634       14.453      461.944      878.149      208.902        1.264        0.077      151.622       12.584        0.007      340.206       14.065      869.279
11/05/2014  18:31:00       32.010      153.648      -28.397       15.716       22.271       16.323      246.977      495.995      266.444        1.322        0.050      156.947       12.720        0.007      340.184       14.030      869.281
11/05/2014  18:32:00       42.371      141.089      -17.014       28.965       53.808       30.535      838.992     2895.295      932.365        1.333        0.233      147.314       31.783        0.047      340.240       14.123      869.276
11/05/2014  18:33:00       46.675      158.621      -21.205       36.399       52.338       32.603     1324.893     2739.274     1062.981        1.646        0.256      165.345       31.446        0.036      340.117       13.915      869.273
11/05/2014  18:34:00       36.116      106.942       -4.428       41.156       52.275       39.003     1693.833     2732.654     1521.269        0.935        0.297      112.876       35.876        0.101      340.058       13.817      869.268
11/05/2014  18:35:00       42.250      128.718      -15.579       37.446       74.435       35.468     1402.188     5540.552     1257.967        1.340        0.410      135.474       42.313        0.098      340.081       13.855      869.260
11/05/2014  18:36:00       45.487      100.727        1.112       40.428       53.522       41.002     1634.453     2864.651     1681.134        0.920        0.309      110.521       37.462        0.115      340.053       13.809      869.281
11/05/2014  18:37:00       43.124      155.291      -15.757       36.214       61.014       32.264     1311.429     3722.659     1040.937        1.615        0.304      161.168       38.588        0.057      340.078       13.849      869.288
11/05/2014  18:38:00       50.286      125.753      -14.832       36.883       57.423       33.933     1360.338     3297.386     1151.479        1.218        0.290      135.434       31.579        0.054      340.070       13.836      869.293
11/05/2014  18:39:00       46.196      157.986      -15.527       39.983       65.807       39.777     1598.625     4330.584     1582.239        1.742        0.376      164.601       41.233        0.063      340.115       13.911      869.306
11/05/2014  18:40:00       39.588      148.432      -16.786       38.167       44.601       35.714     1456.735     1989.292     1275.492        1.430        0.236      153.621       30.540        0.040      340.068       13.833      869.306
11/05/2014  18:41:00       33.369      126.067      -12.834       34.771       44.098       33.068     1208.996     1944.592     1093.460        1.071        0.212      130.409       31.284        0.058      340.038       13.783      869.298
11/05/2014  18:42:00       57.030      104.841       -4.990       42.988       64.629       43.228     1847.957     4176.879     1868.678        1.108        0.395      119.348       42.819        0.129      340.041       13.788      869.300
11/05/2014  18:43:00       25.002       94.734       -5.916       47.828       64.888       40.978     2287.557     4210.487     1679.235        0.890        0.409       97.978       40.227        0.169      339.981       13.686      869.300
11/05/2014  18:44:00       22.136      147.815      -15.603       34.527       58.489       26.762     1192.134     3420.912      716.224        1.395        0.266      149.463       29.393        0.039      339.975       13.676      869.289
11/05/2014  18:45:00       28.034      203.963      -31.373       32.963       39.952       22.713     1086.584     1596.187      515.885        2.328        0.160      205.881       21.400        0.011      340.083       13.859      869.281
11/05/2014  18:46:00       36.540      108.567       -9.969       38.981       58.350       26.895     1519.544     3404.681      723.314        0.943        0.282      114.551       26.572        0.054      339.992       13.704      869.293
11/05/2014  18:47:00       23.484       87.280        1.480       43.167       45.328       31.625     1863.363     2054.670     1000.128        0.654        0.246       90.384       26.543        0.086      339.977       13.679      869.295
11/05/2014  18:48:00       20.762       97.399        0.203       31.598       48.687       29.860      998.457     2370.414      891.619        0.709        0.213       99.587       31.913        0.103      339.982       13.688      869.303
11/05/2014  18:49:00       17.498      154.533      -21.653       25.352       36.582       22.190      642.719     1338.211      492.392        1.356        0.124      155.521       20.451        0.017      340.050       13.803      869.312
11/05/2014  18:50:00       14.134      176.154      -27.245       24.811       41.616       12.453      615.610     1731.872      155.073        1.724        0.125      176.720        9.322        0.003      340.058       13.815      869.325
11/05/2014  18:51:00       28.284      189.691      -26.605       31.575       46.258       25.268      996.986     2139.787      638.496        2.063        0.189      191.788       24.810        0.017      340.042       13.788      869.339
11/05/2014  18:52:00       29.371      179.151      -20.148       41.487       79.419       40.997     1721.183     6307.431     1680.733        2.153        0.485      181.542       45.440        0.063      339.997       13.711      869.351
11/05/2014  18:53:00       24.447      157.720        0.447       56.525       86.015       43.675     3195.084     7398.654     1907.534        1.898        0.625      159.604       46.983        0.087      339.958       13.647      869.362
11/05/2014  18:54:00        5.994      189.327      -21.263       34.974       32.344       25.107     1223.200     1046.136      630.376        1.962        0.145      189.421       15.938        0.007      339.979       13.683      869.370
11/05/2014  18:55:00        0.693      163.397      -24.601       41.561       42.680       16.884     1727.324     1821.552      285.056        1.557        0.192      163.398       19.114        0.014      340.125       13.929      869.387
11/05/2014  18:56:00       21.763      137.571      -13.547       49.193       41.575       30.425     2419.923     1728.504      925.656        1.233        0.254      139.282       28.007        0.040      340.052       13.807      869.384
11/05/2014  18:57:00        1.751      157.046      -21.216       37.453       31.413       24.740     1402.702      986.786      612.043        1.406        0.150      157.056       19.421        0.015      340.062       13.823      869.388
11/05/2014  18:58:00        5.460      169.374      -23.654       23.379       33.306       21.250      546.575     1109.287      451.579        1.569        0.105      169.462       17.784        0.011      340.080       13.853      869.398
11/05/2014  18:59:00       -3.302      118.945       -9.145       43.655       42.218       22.625     1905.742     1782.382      511.876        0.922        0.210      118.990       23.494        0.039      340.055       13.811      869.402
11/05/2014  19:00:00       15.186      193.346      -27.161       35.855       35.697       23.197     1285.569     1274.284      538.103        2.072        0.155      193.942       13.843        0.005      340.073       13.842      869.396
11/05/2014  19:01:00       -4.712      169.201      -31.523       26.141       38.118       22.221      683.343     1453.015      493.758        1.614        0.132      169.267       21.790        0.017      340.065       13.828      869.402
11/05/2014  19:02:00        7.974      163.603      -22.973       26.674       36.299       17.535      711.497     1317.645      307.476        1.485        0.117      163.797       16.571        0.010      340.050       13.804      869.413
11/05/2014  19:03:00       -7.578      195.033      -26.647       23.276       32.244       18.516      541.791     1039.658      342.839        2.036        0.096      195.181       16.593        0.007      340.066       13.829      869.413
11/05/2014  19:04:00       -2.177      191.968      -27.137       35.938       30.943       16.837     1291.549      957.457      283.475        2.006        0.127      191.981       13.471        0.005      340.027       13.765      869.408
11/05/2014  19:05:00       -8.051      167.974      -21.818       39.672       38.200       20.840     1573.840     1459.275      434.312        1.611        0.173      168.166       24.330        0.021      340.039       13.786      869.397
11/05/2014  19:06:00      -15.187       93.051       -9.455       28.598       34.734       18.315      817.818     1206.424      335.451        0.567        0.118       94.282       20.481        0.047      340.036       13.780      869.393
11/05/2014  19:07:00      -16.330      139.981      -20.476       30.324       48.975       19.983      919.520     2398.523      399.312        1.200        0.186      140.930       21.159        0.023      340.047       13.800      869.391
11/05/2014  19:08:00      -34.729       92.285      -15.139       24.709       58.410       20.935      610.532     3411.680      438.295        0.721        0.223       98.603       21.957        0.050      340.048       13.800      869.378
11/05/2014  19:09:00      -23.470      132.711      -12.256       46.784       75.536       23.962     2188.742     5705.680      574.189        1.339        0.423      134.770       21.530        0.026      339.980       13.687      869.374
11/05/2014  19:10:00      -16.800       80.106       -8.858       28.444       31.996       23.986      809.066     1023.750      575.334        0.459        0.120       81.849       20.979        0.066      340.000       13.721      869.370
11/05/2014  19:11:00       20.507       71.967        8.692       37.430       38.816       32.104     1401.031     1506.651     1030.685        0.481        0.197       74.832       29.233        0.153      339.901       13.553      869.350
11/05/2014  19:12:00        2.981       63.736        5.735       31.151       25.369       18.132      970.399      643.588      328.759        0.302        0.097       63.806       13.217        0.043      339.903       13.557      869.319
11/05/2014  19:13:00       18.142       57.658       -1.070       21.120       30.446       16.152      446.037      926.961      260.890        0.264        0.082       60.445       19.078        0.100      339.840       13.451      869.295
11/05/2014  19:14:00       25.853      109.334      -13.429       27.953       40.599       18.319      781.394     1648.262      335.595        0.778        0.138      112.349       17.712        0.025      339.881       13.517      869.274
11/05/2014  19:15:00       14.332      152.872      -10.644       39.611       47.378       33.633     1569.019     2244.692     1131.185        1.432        0.247      153.542       29.545        0.037      339.860       13.482      869.257
11/05/2014  19:16:00       29.753      164.260      -20.295       36.129       47.736       22.155     1305.338     2278.686      490.831        1.618        0.204      166.933       17.310        0.011      339.852       13.469      869.240
11/05/2014  19:17:00       31.134      123.745       -9.672       35.555       51.377       37.843     1264.132     2639.591     1432.087        1.085        0.267      127.602       33.314        0.068      339.778       13.345      869.214
11/05/2014  19:18:00       13.124      114.994       -7.777       37.866       60.676       29.451     1433.809     3681.601      867.369        0.972        0.299      115.741       31.434        0.074      339.744       13.286      869.196
11/05/2014  19:19:00       35.153      104.657       -3.255       37.390       44.928       35.908     1397.987     2018.549     1289.372        0.845        0.235      110.403       29.652        0.072      339.684       13.187      869.176
11/05/2014  19:20:00       37.346       96.608       -1.959       37.239       53.789       29.384     1386.721     2893.220      863.415        0.794        0.257      103.576       29.492        0.081      339.671       13.165      869.173
11/05/2014  19:21:00       36.089      138.461      -12.909       34.080       47.778       26.705     1161.467     2282.731      713.175        1.240        0.208      143.087       27.184        0.036      339.682       13.183      869.153
11/05/2014  19:22:00       45.072       79.210        0.086       30.324       43.822       30.262      919.563     1920.394      915.812        0.603        0.188       91.136       29.993        0.108      339.599       13.043      869.144
11/05/2014  19:23:00       41.276       67.227       -9.402       26.743       31.230       19.793      715.189      975.330      391.778        0.420        0.104       78.887       18.888        0.057      339.598       13.040      869.142
11/05/2014  19:24:00       38.089       38.827        7.648       21.680       25.107       19.416      470.020      630.349      376.971        0.225        0.074       54.390       13.253        0.059      339.590       13.028      869.146
11/05/2014  19:25:00       30.378       87.244       -9.617       34.087       26.939       15.819     1161.952      725.711      250.249        0.538        0.107       92.382       12.871        0.019      339.637       13.106      869.171
11/05/2014  19:26:00       34.736       72.612       -2.429       31.657       30.661       20.722     1002.145      940.112      429.413        0.443        0.119       80.493       16.876        0.044      339.582       13.015      869.177
11/05/2014  19:27:00       17.377       58.510        2.848       28.149       31.377       24.719      792.367      984.522      611.034        0.306        0.119       61.036       19.552        0.103      339.566       12.986      869.178
11/05/2014  19:28:00        5.298       74.906       -8.730       27.680       20.627       15.673      766.156      425.460      245.653        0.358        0.072       75.093       14.509        0.037      339.649       13.128      869.184
11/05/2014  19:29:00      -19.627       48.555      -11.470       20.045       23.586       14.875      401.818      556.279      221.274        0.203        0.059       52.372        9.233        0.031      339.644       13.118      869.196
11/05/2014  19:30:00      -30.066       59.276      -11.472       18.375       15.947        9.174      337.654      254.301       84.169        0.261        0.034       66.465        3.991        0.004      339.604       13.052      869.202
11/05/2014  19:31:00      -43.206       86.358      -12.097       18.525       16.781       14.891      343.178      281.599      221.750        0.516        0.042       96.563        9.637        0.010      339.572       12.997      869.203
11/05/2014  19:32:00      -29.885       85.174       -7.730       24.206       17.458       12.773      585.946      304.787      163.155        0.463        0.053       90.265        6.972        0.006      339.584       13.017      869.198
11/05/2014  19:33:00      -46.001       85.868      -10.331       21.288       19.122       11.796      453.159      365.654      139.142        0.528        0.048       97.414        7.610        0.006      339.539       12.943      869.184
11/05/2014  19:34:00      -15.172       77.015       -7.646       26.558       37.350       16.820      705.342     1394.988      282.902        0.430        0.119       78.495       17.688        0.051      339.580       13.012      869.177
11/05/2014  19:35:00      -28.459       93.655       -9.808       22.537       25.833       12.832      507.937      667.340      164.670        0.551        0.067       97.884       12.439        0.016      339.564       12.984      869.177
11/05/2014  19:36:00      -31.175       85.064      -12.799       22.490       29.008       13.541      505.809      841.490      183.352        0.495        0.077       90.597        4.291        0.002      339.564       12.984      869.162
11/05/2014  19:37:00      -24.238       81.202       -7.317       32.164       26.247       15.212     1034.544      688.887      231.416        0.459        0.098       84.742       13.388        0.025      339.538       12.939      869.158
11/05/2014  19:38:00       -2.425      114.390      -16.081       25.648       32.503       15.367      657.824     1056.438      236.154        0.765        0.098      114.415       14.450        0.016      339.662       13.149      869.144
11/05/2014  19:39:00       -8.612      100.159      -12.861       17.423       39.602       20.082      303.564     1568.335      403.273        0.627        0.114      100.529       23.847        0.056      339.663       13.150      869.130
11/05/2014  19:40:00       16.032      136.220      -19.013       25.613       30.720       13.851      656.018      943.735      191.839        1.048        0.090      137.160       11.191        0.007      339.719       13.245      869.136
11/05/2014  19:41:00        4.200       54.442        4.269       26.940       53.952       25.066      725.787     2910.789      628.290        0.363        0.213       54.604       30.568        0.313      339.592       13.032      869.147
11/05/2014  19:42:00      -17.395       57.311       -2.184       28.055       28.614       15.599      787.067      818.762      243.341        0.272        0.092       59.893       12.694        0.045      339.576       13.005      869.156
11/05/2014  19:43:00      -18.326       52.842        4.306       17.514       25.183       17.360      306.756      634.204      301.362        0.219        0.062       55.930       17.227        0.095      339.572       12.996      869.173
11/05/2014  19:44:00      -46.851       38.418      -12.090       17.214       24.472       11.909      296.316      598.899      141.813        0.243        0.052       60.589       11.529        0.036      339.403       12.712      869.189
11/05/2014  19:45:00      -36.188       71.891      -11.119       26.156       23.706       15.060      684.144      561.973      226.794        0.404        0.074       80.485        9.776        0.015      339.455       12.799      869.202
11/05/2014  19:46:00       14.972      116.148      -14.219       24.539       24.106       16.754      602.163      581.119      280.712        0.769        0.073      117.109       13.575        0.013      339.610       13.062      869.213
11/05/2014  19:47:00      -14.822      105.080      -12.459       31.174       24.474       17.497      971.819      598.967      306.145        0.665        0.094      106.120       14.813        0.019      339.585       13.019      869.216
11/05/2014  19:48:00       -8.556      114.536      -14.866       44.678       29.763       18.566     1996.154      885.847      344.700        0.832        0.161      114.855       16.870        0.022      339.614       13.068      869.219
11/05/2014  19:49:00      -12.162      118.410      -16.164       31.158       34.128       17.474      970.834     1164.705      305.340        0.843        0.122      119.033       17.083        0.021      339.620       13.077      869.202
11/05/2014  19:50:00        9.235      103.889       -5.573       20.677       33.080       17.952      427.550     1094.281      322.271        0.638        0.092      104.299       17.004        0.027      339.542       12.946      869.182
11/05/2014  19:51:00       19.056      127.166       -5.530       30.087       30.235       23.823      905.198      914.168      567.544        0.948        0.119      128.586       18.938        0.022      339.517       12.905      869.168
11/05/2014  19:52:00       28.983       80.340       -1.059       33.275       38.171       28.042     1107.230     1457.038      786.345        0.532        0.168       85.408       21.343        0.062      339.504       12.882      869.156
11/05/2014  19:53:00       77.829       88.428        8.502       59.363       31.837       35.843     3524.002     1013.567     1284.731        0.988        0.291      117.800       33.929        0.083      339.554       12.967      869.161
11/05/2014  19:54:00       83.891       84.087       22.083       38.578       51.502       46.277     1488.250     2652.424     2141.516        1.044        0.314      118.779       39.194        0.109      339.653       13.135      869.162
11/05/2014  19:55:00       56.148       65.574        8.891       45.113       26.486       26.173     2035.163      701.485      685.040        0.548        0.171       86.328       17.071        0.039      339.591       13.029      869.164
11/05/2014  19:56:00       22.500       52.515        4.180       29.768       29.484       21.105      886.131      869.333      445.411        0.274        0.110       57.132       19.086        0.112      339.517       12.904      869.173
11/05/2014  19:57:00        5.870      108.975      -18.073       30.399       23.786       15.460      924.089      565.758      239.008        0.698        0.086      109.133        7.153        0.004      339.612       13.066      869.178
11/05/2014  19:58:00      -17.720       84.005      -10.046       20.492       36.396       18.856      419.927     1324.696      355.551        0.479        0.105       85.854       20.145        0.055      339.514       12.899      869.187
11/05/2014  19:59:00        1.053       76.296       -6.724       33.084       26.104       16.573     1094.540      681.425      274.662        0.396        0.103       76.303       17.039        0.050      339.524       12.917      869.196
11/05/2014  20:00:00        2.101       63.450        3.361       25.798       35.991       20.966      665.530     1295.341      439.590        0.322        0.120       63.485       23.926        0.142      339.524       12.917      869.200
11/05/2014  20:01:00      -40.382       35.144      -10.965       27.051       29.990       14.581      731.737      899.392      212.601        0.241        0.092       53.533       14.165        0.070      339.357       12.635      869.195
11/05/2014  20:02:00      -12.277       65.160       -6.143       29.634       35.234       24.208      878.179     1241.410      586.020        0.357        0.135       66.307       23.416        0.125      339.460       12.808      869.193
11/05/2014  20:03:00       -2.365       47.617        2.768       26.110       22.808       17.049      681.709      520.185      290.652        0.189        0.075       47.676       15.114        0.100      339.385       12.681      869.186
11/05/2014  20:04:00        0.983       46.922        5.905       19.147       23.013       17.620      366.602      529.605      310.467        0.172        0.060       46.932       12.713        0.073      339.432       12.760      869.181
11/05/2014  20:05:00      -15.328       42.777        3.517       19.444       28.282       19.055      378.083      799.876      363.106        0.181        0.077       45.441       17.266        0.144      339.290       12.524      869.195
11/05/2014  20:06:00      -49.379       65.180       -7.555       19.303       31.405       13.779      372.608      986.303      189.853        0.415        0.077       81.772       15.229        0.035      339.326       12.583      869.216
11/05/2014  20:07:00      -28.884       50.384      -10.571       29.825       54.994       17.190      889.548     3024.315      295.513        0.385        0.210       58.076       18.039        0.096      339.347       12.619      869.226
11/05/2014  20:08:00      -25.676        6.372       -3.185       16.040       30.362       15.996      257.278      921.870      255.872        0.107        0.072       26.455       18.142        0.470      339.197       12.364      869.239
11/05/2014  20:09:00      -18.326       25.332       -2.104       16.679       28.854       16.986      278.192      832.556      288.520        0.119        0.070       31.266       18.017        0.332      339.131       12.253      869.245
11/05/2014  20:10:00      -18.605       14.567        1.596       15.264       22.834       13.802      232.986      521.397      190.483        0.075        0.047       23.629       13.591        0.331      339.069       12.150      869.253
11/05/2014  20:11:00        1.298       43.886        4.400       24.384       21.760       17.059      594.575      473.483      291.013        0.165        0.068       43.905       16.230        0.137      339.276       12.500      869.264
11/05/2014  20:12:00      -11.095       61.348        4.226       23.181       30.252       20.955      537.353      915.211      439.109        0.290        0.095       62.343       17.846        0.082      339.316       12.565      869.271
11/05/2014  20:13:00       -4.095       82.429       -7.814       21.704       36.076       10.744      471.053     1301.465      115.436        0.438        0.094       82.531       11.504        0.019      339.380       12.675      869.283
11/05/2014  20:14:00       -9.222       67.841       -6.927       22.571       29.223       14.700      509.435      854.002      216.099        0.316        0.079       68.465       12.751        0.035      339.343       12.611      869.280
11/05/2014  20:15:00        0.377      134.579      -13.899       31.094       21.165       18.106      966.854      447.970      327.831        1.002        0.087      134.579       11.974        0.008      339.465       12.817      869.270
11/05/2014  20:16:00       23.874       92.886       -7.007       30.413       42.343       18.873      924.969     1792.896      356.206        0.616        0.154       95.905       20.315        0.045      339.342       12.609      869.258
11/05/2014  20:17:00       12.319      126.132      -11.574       17.431       17.192       15.697      303.853      295.552      246.410        0.852        0.042      126.732        9.800        0.006      339.352       12.627      869.250
11/05/2014  20:18:00       16.286      100.933       -8.112       24.036       28.457       14.751      577.721      809.783      217.580        0.606        0.080      102.238       17.052        0.028      339.338       12.602      869.248
11/05/2014  20:19:00       -0.131       94.799       -7.871       17.535       24.145       13.454      307.471      583.002      181.015        0.506        0.054       94.799        9.849        0.011      339.399       12.706      869.241
11/05/2014  20:20:00       19.783       98.800      -13.819       26.821       27.167       11.387      719.378      738.034      129.666        0.597        0.079      100.761       11.411        0.013      339.378       12.671      869.240
11/05/2014  20:21:00       17.893      107.960       -8.841       17.829       18.883       14.524      317.861      356.583      210.935        0.647        0.044      109.432        9.242        0.007      339.321       12.574      869.229
11/05/2014  20:22:00        1.904      106.854       -6.980       17.716       26.718       11.500      313.865      713.844      132.256        0.631        0.058      106.871       10.855        0.010      339.362       12.644      869.220
11/05/2014  20:23:00      -13.831      106.326      -13.191       28.617       28.465       11.004      818.914      810.238      121.087        0.671        0.088      107.222        9.730        0.008      339.330       12.590      869.218
11/05/2014  20:24:00       11.548      101.811      -14.304       21.175       25.228       12.291      448.384      636.440      151.075        0.597        0.062      102.464       11.713        0.013      339.446       12.784      869.224
11/05/2014  20:25:00       28.119       79.424       -2.170       22.744       37.279       21.093      517.286     1389.718      444.917        0.473        0.118       84.255       21.385        0.064      339.379       12.671      869.235
11/05/2014  20:26:00       18.907       73.691       -2.365       29.205       33.739       16.895      852.920     1138.346      285.441        0.403        0.114       76.078       16.330        0.046      339.407       12.717      869.230
11/05/2014  20:27:00       -4.008       51.796       -1.936       26.304       27.491       15.811      691.878      755.738      250.000        0.220        0.085       51.951       14.290        0.076      339.320       12.572      869.233
11/05/2014  20:28:00       14.426       36.032        9.154       20.977       20.261       13.543      440.050      410.525      183.419        0.131        0.052       38.813       12.489        0.104      339.318       12.570      869.237
11/05/2014  20:29:00       10.387       43.016       11.354       22.710       32.788       17.993      515.726     1075.035      323.755        0.200        0.096       44.253       18.112        0.168      339.174       12.328      869.239
11/05/2014  20:30:00       25.558       72.753        1.000       34.201       35.785       26.643     1169.680     1280.598      709.842        0.455        0.158       77.112       26.231        0.116      339.281       12.507      869.236
11/05/2014  20:31:00       19.001       38.593        9.277       18.086       18.641       15.301      327.086      347.489      234.114        0.142        0.045       43.017       13.958        0.105      339.239       12.436      869.253
11/05/2014  20:32:00        6.008       59.595       -1.957       14.548       23.285       10.579      211.648      542.195      111.907        0.223        0.043       59.897       10.398        0.030      339.294       12.529      869.257
11/05/2014  20:33:00        3.772       57.610        0.211       20.783       20.949       11.455      431.928      438.852      131.212        0.217        0.050       57.733       11.451        0.039      339.263       12.477      869.256
11/05/2014  20:34:00        3.924       68.123       -8.481       19.498       19.181       10.753      380.170      367.896      115.628        0.280        0.043       68.235        8.621        0.016      339.229       12.418      869.254
11/05/2014  20:35:00        8.881       53.037       -2.427       16.630       24.027        8.753      276.563      577.297       76.617        0.191        0.047       53.775        6.509        0.015      339.245       12.446      869.250
11/05/2014  20:36:00      -15.500       15.253       -8.422       26.197       21.875        8.229      686.259      478.507       67.722        0.089        0.062       21.746        4.452        0.042      338.917       11.894      869.248
11/05/2014  20:37:00      -14.045       -5.555       -3.667       27.435       15.640       11.133      752.667      244.620      123.943        0.068        0.056       15.104       16.179        1.147      338.827       11.741      869.244
11/05/2014  20:38:00      -24.389      -28.432      -12.105       16.611        9.970        6.145      275.914       99.402       37.765        0.098        0.021       37.459        5.888        0.025      338.589       11.343      869.240
11/05/2014  20:39:00      -56.839      -21.990       -7.193       10.118        7.588        6.717      102.373       57.577       45.121        0.199        0.010       60.944        3.948        0.004      338.399       11.023      869.227
11/05/2014  20:40:00      -68.255      -24.772       -8.346       11.842        9.947        7.112      140.245       98.949       50.584        0.282        0.014       72.611        6.822        0.009      338.391       11.011      869.222
11/05/2014  20:41:00      -54.126      -22.167      -12.874        8.137        7.690        8.625       66.206       59.139       74.393        0.189        0.010       58.489        5.444        0.009      338.482       11.163      869.212
11/05/2014  20:42:00      -53.372      -20.742       -9.465        5.791        7.617        5.690       33.530       58.015       32.380        0.175        0.006       57.261        3.161        0.003      338.478       11.156      869.210
11/05/2014  20:43:00      -59.025       -6.509      -12.161        5.971        5.588        6.110       35.655       31.221       37.333        0.189        0.005       59.383        2.790        0.002      338.384       10.998      869.203
11/05/2014  20:44:00      -53.157      -16.266      -12.474        4.445        5.590        4.781       19.759       31.252       22.861        0.166        0.004       55.591        2.596        0.002      338.372       10.976      869.215
11/05/2014  20:45:00      -65.865      -20.060      -10.374        7.577        6.005        4.195       57.410       36.065       17.596        0.248        0.006       68.852        3.075        0.002      338.290       10.839      869.229
11/05/2014  20:46:00      -71.968      -19.697       -9.773        6.196        6.077        5.212       38.388       36.936       27.163        0.288        0.005       74.615        3.497        0.002      338.240       10.755      869.246
11/05/2014  20:47:00      -86.110      -12.774      -12.501        7.628        7.756        6.357       58.187       60.159       40.413        0.395        0.008       87.052        3.862        0.002      338.182       10.660      869.260
11/05/2014  20:48:00      -72.884      -13.638       -7.299       10.159       10.468        9.217      103.200      109.578       84.949        0.292        0.015       74.149        6.569        0.008      338.211       10.709      869.281
11/05/2014  20:49:00      -83.883       -9.857      -15.820       12.812       10.099        9.074      164.156      101.980       82.342        0.387        0.017       84.460        6.667        0.006      338.194       10.680      869.293
11/05/2014  20:50:00     -106.315      -11.832      -14.679       13.844       11.939        8.394      191.658      142.541       70.467        0.603        0.020      106.971        5.778        0.003      338.197       10.683      869.313
11/05/2014  20:51:00      -90.673      -33.901      -12.658       27.684        9.483        8.650      766.390       89.920       74.816        0.523        0.047       96.804       10.814        0.012      338.124       10.562      869.316
11/05/2014  20:52:00      -27.385      -20.232       -3.233       18.647       15.309       12.888      347.713      234.356      166.097        0.096        0.037       34.048       11.064        0.106      338.106       10.531      869.317
11/05/2014  20:53:00      -47.299      -22.274       -9.071       14.762       21.573       10.491      217.903      465.410      110.062        0.180        0.040       52.282        9.080        0.030      338.173       10.644      869.317
11/05/2014  20:54:00      -48.588      -19.551      -10.111       18.095       11.100       11.012      327.442      123.220      121.255        0.171        0.029       52.374       10.445        0.040      338.162       10.626      869.311
11/05/2014  20:55:00      -63.459      -29.568      -12.937       16.660       16.075        9.645      277.567      258.417       93.032        0.285        0.031       70.009        6.550        0.009      338.044       10.428      869.318
11/05/2014  20:56:00      -66.174      -43.476       -9.151       20.122       20.296       15.265      404.896      411.927      233.030        0.370        0.052       79.178        8.236        0.011      337.953       10.276      869.329
11/05/2014  20:57:00      -68.622      -53.674      -13.749       19.176       16.999       14.247      367.719      288.980      202.987        0.432        0.043       87.120       11.616        0.018      337.964       10.294      869.326
11/05/2014  20:58:00      -81.172      -50.100      -15.277       15.801       15.790       10.997      249.674      249.330      120.926        0.498        0.031       95.389        9.942        0.011      337.956       10.281      869.327
11/05/2014  20:59:00      -80.252      -49.536      -13.323       13.807       14.279        9.682      190.639      203.891       93.747        0.478        0.024       94.310        7.677        0.007      337.930       10.236      869.335
11/05/2014  21:00:00      -87.172      -36.711      -14.289       12.810        8.957        8.117      164.098       80.221       65.878        0.473        0.016       94.587        2.491        0.001      337.914       10.211      869.338
11/05/2014  21:01:00     -106.584      -26.767      -13.647       16.541       13.051       10.454      273.608      170.320      109.282        0.641        0.028      109.894        5.413        0.002      337.921       10.222      869.331
11/05/2014  21:02:00      -93.675      -22.792      -16.663       14.856       10.375        9.104      220.706      107.648       82.884        0.499        0.021       96.408        6.348        0.004      337.963       10.292      869.322
11/05/2014  21:03:00      -78.142      -21.825      -16.349       10.949       10.727        7.129      119.878      115.060       50.823        0.357        0.014       81.133        4.382        0.003      337.954       10.276      869.317
11/05/2014  21:04:00      -80.994      -17.333      -13.067       15.713       12.096        7.292      246.904      146.314       53.167        0.374        0.022       82.828        5.139        0.004      337.960       10.287      869.305
11/05/2014  21:05:00      -59.867      -26.450       -8.417       11.978       17.401       10.940      143.473      302.806      119.692        0.246        0.028       65.450        8.668        0.018      337.995       10.347      869.292
11/05/2014  21:06:00      -50.511       -8.080      -11.705       14.864       11.307        8.634      220.938      127.838       74.552        0.159        0.021       51.153        3.274        0.004      338.071       10.473      869.278
11/05/2014  21:07:00      -57.435       -5.173      -10.715        9.065        7.228        7.683       82.177       52.238       59.035        0.182        0.010       57.668        6.067        0.011      337.940       10.254      869.278
11/05/2014  21:08:00      -41.872      -17.096       -5.677       12.148        7.784        6.108      147.578       60.597       37.304        0.116        0.012       45.227        4.847        0.011      338.060       10.455      869.274
11/05/2014  21:09:00      -18.231      -13.457       -3.925       18.431       13.050        9.941      339.709      170.314       98.823        0.057        0.030       22.660        8.892        0.154      338.174       10.647      869.274
11/05/2014  21:10:00      -58.008      -14.536       -8.803       11.761       10.665        7.518      138.323      113.733       56.525        0.198        0.015       59.802        5.499        0.008      337.958       10.283      869.290
11/05/2014  21:11:00      -64.188      -16.622       -9.994       13.073        8.800        8.310      170.906       77.447       69.050        0.241        0.016       66.305        6.009        0.008      337.992       10.341      869.305
11/05/2014  21:12:00      -81.926       -4.416      -14.801       13.203       15.748        9.882      174.328      248.001       97.654        0.374        0.026       82.045        2.766        0.001      337.981       10.321      869.311
11/05/2014  21:13:00      -64.071      -10.815      -12.230       12.609        9.730        8.423      158.997       94.675       70.943        0.235        0.016       64.977        5.915        0.008      337.935       10.244      869.324
11/05/2014  21:14:00      -48.931      -11.458      -13.416       15.843       10.921        8.039      251.010      119.270       64.629        0.157        0.022       50.255        3.482        0.005      337.987       10.332      869.330
11/05/2014  21:15:00      -13.685      -28.995       -6.331        9.098        8.971       12.946       82.770       80.474      167.603        0.070        0.017       32.062        7.989        0.062      338.171       10.641      869.327
11/05/2014  21:16:00      -34.604      -25.096       -7.406       10.372       10.325        8.248      107.569      106.611       68.037        0.108        0.014       42.746        4.590        0.012      338.084       10.494      869.335
11/05/2014  21:17:00      -50.945      -19.652       -5.548       12.234       13.155       10.167      149.666      173.048      103.361        0.172        0.021       54.604        6.798        0.015      337.913       10.207      869.346
11/05/2014  21:18:00      -71.734      -37.617      -12.486       16.224       16.335       10.393      263.213      266.822      108.017        0.368        0.032       80.999        4.564        0.003      337.821       10.053      869.352
11/05/2014  21:19:00      -88.512      -47.181      -15.348       11.672       13.805       10.109      136.236      190.586      102.196        0.536        0.021      100.302        7.401        0.005      337.757        9.946      869.347
11/05/2014  21:20:00     -113.807      -35.382      -15.234       16.844       15.518       11.419      283.735      240.803      130.386        0.755        0.033      119.180        7.974        0.004      337.750        9.934      869.352
11/05/2014  21:21:00      -72.748      -57.881      -10.474       34.431       26.291       19.466     1185.472      691.205      378.934        0.550        0.113       92.965       12.795        0.019      337.727        9.896      869.346
11/05/2014  21:22:00      -81.902      -52.566       -8.669       21.405       16.935       10.668      458.171      286.787      113.803        0.520        0.043       97.319        7.503        0.006      337.738        9.915      869.332
11/05/2014  21:23:00      -73.905      -41.933       -4.258       17.301       16.819       11.220      299.320      282.871      125.881        0.397        0.035       84.973        9.510        0.013      337.754        9.941      869.322
11/05/2014  21:24:00      -57.229      -22.032       -8.563        9.148       11.963        6.840       83.684      143.124       46.779        0.205        0.014       61.324        5.096        0.007      337.779        9.983      869.310
11/05/2014  21:25:00      -51.092      -17.652       -7.799        6.080        7.538        5.280       36.965       56.825       27.878        0.155        0.006       54.055        1.994        0.001      337.863       10.123      869.281
11/05/2014  21:26:00      -48.926      -18.443      -10.980        7.130        6.724        5.919       50.835       45.207       35.032        0.149        0.007       52.287        2.584        0.002      337.890       10.169      869.265
11/05/2014  21:27:00      -52.697      -14.071      -13.639        5.900        7.637        6.451       34.805       58.329       41.613        0.165        0.007       54.544        2.074        0.001      337.902       10.189      869.250
11/05/2014  21:28:00      -49.248      -28.820       -7.942       18.009        8.288        9.879      324.327       68.692       97.588        0.190        0.025       57.061        4.187        0.005      337.752        9.937      869.235
11/05/2014  21:29:00      -50.524      -31.625      -12.728       22.702        9.939       11.205      515.393       98.779      125.560        0.223        0.037       59.605       10.219        0.029      337.671        9.803      869.231
11/05/2014  21:30:00      -59.463      -42.414       -3.376       14.408       13.428       13.144      207.591      180.321      172.766        0.295        0.028       73.039        3.877        0.003      337.645        9.759      869.228
11/05/2014  21:31:00      -67.331      -29.505       -7.159       14.233       13.593       10.620      202.590      184.767      112.778        0.298        0.025       73.512        4.712        0.004      337.577        9.645      869.217
11/05/2014  21:32:00      -59.897      -35.011       -8.931       10.479       12.903        8.956      109.820      166.483       80.212        0.262        0.018       69.379        5.961        0.007      337.638        9.748      869.205
11/05/2014  21:33:00      -61.821      -25.155      -11.032        9.001       10.604        6.326       81.017      112.446       40.017        0.240        0.012       66.743        1.007        0.000      337.617        9.712      869.211
11/05/2014  21:34:00      -61.818      -12.519       -8.227       11.565        9.001        9.431      133.738       81.010       88.941        0.217        0.015       63.073        7.118        0.013      337.628        9.729      869.217
11/05/2014  21:35:00      -64.781      -13.708      -11.065        8.720        8.235        7.875       76.036       67.812       62.011        0.236        0.010       66.215        4.829        0.005      337.641        9.751      869.212
11/05/2014  21:36:00      -56.990        2.683      -14.292        8.194        5.625        5.831       67.133       31.641       34.003        0.180        0.007       57.053        2.661        0.002      337.583        9.655      869.221
11/05/2014  21:37:00      -54.111      -11.724      -15.090        9.704       10.460        6.087       94.174      109.414       37.051        0.177        0.012       55.367        3.979        0.005      337.674        9.805      869.232
11/05/2014  21:38:00      -51.078      -24.348      -14.891        9.181        5.402        4.489       84.297       29.180       20.150        0.178        0.007       56.584        4.161        0.005      337.645        9.760      869.229
11/05/2014  21:39:00      -40.227      -17.730       -8.184        8.981        8.029        6.892       80.650       64.459       47.504        0.110        0.010       43.961        5.787        0.017      337.633        9.739      869.224
11/05/2014  21:40:00       -8.109       -6.933      -10.482       17.235        9.758        5.154      297.043       95.220       26.566        0.032        0.021       10.668        5.523        0.268      337.745        9.928      869.230
11/05/2014  21:41:00        7.565       20.207        1.458       14.008       12.707       10.409      196.238      161.477      108.351        0.047        0.023       21.577        5.813        0.073      338.000       10.353      869.237
11/05/2014  21:42:00       13.075       26.720        1.275       11.206       17.382       10.197      125.573      302.145      103.985        0.071        0.027       29.747        9.035        0.092      337.999       10.351      869.237
11/05/2014  21:43:00       28.264       21.969        4.265       14.748        9.447       10.184      217.501       89.237      103.715        0.085        0.021       35.798        5.670        0.025      337.968       10.299      869.235
11/05/2014  21:44:00       38.876       28.020        4.870       13.622       10.365       12.367      185.572      107.432      152.945        0.138        0.022       47.921        7.811        0.027      337.961       10.288      869.239
11/05/2014  21:45:00       58.782       40.526       14.393       13.162       11.504       12.987      173.242      132.341      168.665        0.289        0.024       71.398       10.417        0.021      337.938       10.248      869.249
11/05/2014  21:46:00       61.705       37.735       20.212       10.525       10.892        8.060      110.772      118.625       64.959        0.297        0.015       72.328        3.646        0.003      337.941       10.254      869.259
11/05/2014  21:47:00       48.649       31.839       19.338       16.652       12.478       15.515      277.275      155.710      240.729        0.221        0.034       58.141        6.051        0.011      337.883       10.156      869.268
11/05/2014  21:48:00       35.861       29.631       15.022       17.671       11.772       11.387      312.278      138.571      129.655        0.148        0.029       46.519        5.733        0.015      337.924       10.226      869.292
11/05/2014  21:49:00       13.534       33.003       25.559       17.643       13.911       16.074      311.285      193.503      258.368        0.134        0.038       35.670        6.329        0.031      337.778        9.980      869.313
11/05/2014  21:50:00        6.641       17.329        3.134       19.869       15.155       14.620      394.787      229.677      213.745        0.060        0.042       18.558        9.143        0.243      337.805       10.027      869.336
11/05/2014  21:51:00      -39.842       -9.884       -1.929       15.216        8.927        8.818      231.525       79.692       77.763        0.104        0.019       41.049       10.707        0.068      337.611        9.701      869.351
11/05/2014  21:52:00      -47.039      -24.074       -4.804        8.127       11.951        6.770       66.046      142.838       45.833        0.153        0.013       52.842        4.383        0.007      337.534        9.573      869.365
11/05/2014  21:53:00      -27.725      -30.435      -12.357       26.464       10.435        6.041      700.350      108.883       36.499        0.135        0.042       41.171        5.011        0.015      337.661        9.784      869.367
11/05/2014  21:54:00      -15.360       -1.878      -11.565       11.492       11.175        9.188      132.060      124.874       84.423        0.036        0.017       15.475        7.025        0.206      337.798       10.016      869.360
11/05/2014  21:55:00      -25.217      -12.016      -19.372       16.548       16.301       10.166      273.845      265.707      103.343        0.090        0.032       27.934        7.191        0.066      337.768        9.964      869.347
11/05/2014  21:56:00      -39.896      -13.044       -6.409       15.849       13.733        8.566      251.193      188.600       73.375        0.116        0.026       41.975        9.394        0.050      337.736        9.911      869.340
11/05/2014  21:57:00      -56.066      -14.479       -7.354       10.793        7.991        7.301      116.495       63.849       53.302        0.182        0.012       57.906        6.230        0.012      337.558        9.612      869.342
11/05/2014  21:58:00      -67.896      -24.626       -8.692        5.953        6.442        6.227       35.440       41.502       38.780        0.270        0.006       72.223        1.871        0.001      337.541        9.583      869.351
11/05/2014  21:59:00      -64.861      -12.235      -11.242        8.329        7.693        5.986       69.366       59.188       35.829        0.232        0.008       66.005        3.395        0.003      337.522        9.552      869.358
11/05/2014  22:00:00      -53.211      -17.742       -9.576        8.224        7.757        7.422       67.634       60.168       55.089        0.171        0.009       56.091        3.327        0.004      337.446        9.426      869.359
11/05/2014  22:01:00      -61.729       -7.759       -9.819        6.563        6.809        7.296       43.079       46.364       53.226        0.205        0.007       62.215        4.457        0.005      337.385        9.325      869.345
11/05/2014  22:02:00      -67.284      -10.730       -7.845        8.571       10.120        9.152       73.460      102.418       83.766        0.248        0.013       68.134        4.311        0.004      337.341        9.249      869.338
11/05/2014  22:03:00      -79.062       -5.125      -13.859       11.838        9.323        8.032      140.143       86.917       64.513        0.338        0.015       79.228        5.307        0.004      337.353        9.267      869.346
11/05/2014  22:04:00      -85.382      -17.242       -8.133       18.027       12.845       11.742      324.960      164.985      137.864        0.414        0.031       87.105        9.079        0.011      337.374        9.304      869.357
11/05/2014  22:05:00     -107.161      -33.225      -15.130       10.941       11.283        7.157      119.708      127.304       51.228        0.656        0.015      112.193        3.936        0.001      337.347        9.260      869.363
11/05/2014  22:06:00      -95.603      -22.206       -8.375       16.742       16.146       10.148      280.280      260.684      102.981        0.517        0.032       98.148        8.406        0.007      337.343        9.253      869.360
11/05/2014  22:07:00      -82.427       -8.433       -8.266       18.109       13.149       10.616      327.934      172.908      112.696        0.377        0.031       82.858       10.707        0.017      337.342        9.250      869.359
11/05/2014  22:08:00      -53.809      -13.187       -5.184       13.323       16.516       12.344      177.508      272.790      152.371        0.185        0.030       55.401        8.611        0.024      337.308        9.194      869.361
11/05/2014  22:09:00      -59.622       -8.288       -8.100        8.261        7.936        6.449       68.249       62.975       41.583        0.193        0.009       60.195        3.025        0.003      337.333        9.236      869.363
11/05/2014  22:10:00      -71.471      -21.164       -8.881        6.608        7.780        4.198       43.664       60.533       17.625        0.288        0.006       74.539        2.626        0.001      337.468        9.463      869.358
11/05/2014  22:11:00      -63.711      -29.583       -8.159        8.141        9.930        7.126       66.270       98.613       50.777        0.261        0.011       70.244        1.898        0.001      337.376        9.308      869.352
11/05/2014  22:12:00      -71.861      -30.454      -11.971        7.734        8.099        6.870       59.815       65.592       47.197        0.320        0.009       78.047        5.039        0.004      337.300        9.178      869.346
11/05/2014  22:13:00      -74.841      -30.568      -10.653       11.397        9.535       10.244      129.885       90.911      104.943        0.349        0.016       80.843        6.821        0.007      337.240        9.082      869.339
11/05/2014  22:14:00      -72.506      -25.841      -11.742       13.094        9.394        7.576      171.452       88.242       57.389        0.319        0.016       76.974        2.832        0.001      337.187        8.993      869.354
11/05/2014  22:15:00      -76.843       -8.493      -13.253        8.773        9.965        4.493       76.967       99.302       20.191        0.317        0.010       77.311        0.792        0.000      337.283        9.154      869.359
11/05/2014  22:16:00      -55.615       -6.407       -7.686        8.639        6.407        6.699       74.636       41.047       44.880        0.168        0.008       55.983        4.190        0.006      337.374        9.304      869.351
11/05/2014  22:17:00      -57.914       -9.050      -12.143        6.670        8.675        6.384       44.496       75.252       40.758        0.187        0.008       58.617        4.673        0.006      337.384        9.320      869.350
11/05/2014  22:18:00      -55.944      -20.365       -7.972        8.514        8.162        6.449       72.481       66.621       41.584        0.189        0.009       59.536        2.787        0.002      337.369        9.296      869.351
11/05/2014  22:19:00      -65.898      -15.770      -11.692        6.458        5.839        4.779       41.710       34.096       22.842        0.241        0.005       67.759        2.135        0.001      337.367        9.294      869.361
11/05/2014  22:20:00      -70.495      -10.813      -11.380       10.553       10.078        7.338      111.360      101.563       53.843        0.274        0.013       71.320        6.126        0.007      337.390        9.332      869.351
11/05/2014  22:21:00      -51.904      -17.067       -8.861        7.832        6.934        6.644       61.343       48.075       44.137        0.161        0.008       54.638        4.043        0.005      337.362        9.283      869.340
11/05/2014  22:22:00      -36.107      -19.127       -8.316       15.266       10.176        6.973      233.046      103.544       48.616        0.106        0.019       40.860        8.530        0.044      337.407        9.359      869.328
11/05/2014  22:23:00      -11.463      -22.523       -1.325       14.054        9.294        7.723      197.519       86.371       59.644        0.049        0.017       25.273        4.605        0.033      337.443        9.421      869.337
11/05/2014  22:24:00      -36.685      -24.932       -7.951       16.666        9.265        7.918      277.743       85.837       62.694        0.123        0.021       44.356        7.166        0.026      337.487        9.494      869.346
11/05/2014  22:25:00      -45.058      -29.126       -4.395       14.636       11.810        8.865      214.217      139.466       78.585        0.166        0.022       53.652        6.085        0.013      337.292        9.170      869.359
11/05/2014  22:26:00      -66.487      -22.326       -9.587       11.826        6.184        7.654      139.851       38.236       58.587        0.262        0.012       70.135        7.038        0.010      337.211        9.034      869.375
11/05/2014  22:27:00      -74.200      -18.627      -11.556        8.291        9.146        5.901       68.738       83.657       34.817        0.309        0.009       76.503        2.763        0.001      337.140        8.913      869.382
11/05/2014  22:28:00      -86.099      -12.692       -8.664       17.018       11.840       12.612      289.605      140.195      159.056        0.412        0.029       87.030        9.720        0.012      337.171        8.966      869.378
11/05/2014  22:29:00     -107.654      -30.381       -8.863       18.371       16.623       12.532      337.487      276.316      157.054        0.668        0.039      111.859       11.289        0.010      337.185        8.989      869.368
11/05/2014  22:30:00      -96.638      -50.116       -5.855       11.544       11.440        8.513      133.269      130.882       72.468        0.611        0.017      108.860        6.284        0.003      337.154        8.935      869.366
11/05/2014  22:31:00      -81.385      -42.731        0.380       19.675       17.840       11.156      387.110      318.251      124.465        0.464        0.041       91.921       11.917        0.017      337.119        8.879      869.365
11/05/2014  22:32:00      -94.136      -29.877       -4.639       24.109       15.062       14.538      581.235      226.865      211.353        0.540        0.051       98.763       13.937        0.020      337.197        9.009      869.354
11/05/2014  22:33:00      -79.419      -12.584       -6.876       22.318       10.199       11.711      498.101      104.025      137.150        0.363        0.037       80.410       10.992        0.019      337.232        9.067      869.329
11/05/2014  22:34:00      -61.065      -23.782       -9.195       12.869       11.180        7.174      165.622      124.995       51.468        0.236        0.017       65.533        5.803        0.008      337.193        9.002      869.321
11/05/2014  22:35:00      -49.707      -25.306       -5.228       13.146        8.971        6.811      172.826       80.481       46.384        0.172        0.015       55.778        3.636        0.004      337.257        9.110      869.313
11/05/2014  22:36:00      -51.852      -22.801        4.449       14.029       12.635       10.243      196.801      159.639      104.911        0.184        0.023       56.644       10.095        0.032      337.204        9.021      869.319
11/05/2014  22:37:00      -26.516      -12.334        8.480       25.029       13.532       13.073      626.449      183.117      170.896        0.095        0.049       29.244       14.725        0.254      337.118        8.876      869.336
11/05/2014  22:38:00      -65.138      -28.393       -7.185        9.312        8.122        6.814       86.718       65.967       46.433        0.265        0.010       71.057        1.779        0.001      337.094        8.834      869.340
11/05/2014  22:39:00      -63.334      -16.266       -9.243        6.959        7.415        6.730       48.428       54.980       45.295        0.225        0.007       65.390        3.208        0.002      337.104        8.851      869.339
11/05/2014  22:40:00      -74.949      -19.788      -10.253       10.502        9.578        5.717      110.283       91.730       32.684        0.317        0.012       77.517        2.025        0.001      337.126        8.889      869.334
11/05/2014  22:41:00      -75.403      -43.082      -12.450       16.810       11.335       10.979      282.581      128.477      120.530        0.411        0.027       86.843        4.879        0.003      337.066        8.788      869.336
11/05/2014  22:42:00      -89.290      -56.680       -9.531       19.408       16.081       12.847      376.679      258.611      165.037        0.604        0.040      105.761        7.468        0.005      337.036        8.738      869.351
11/05/2014  22:43:00      -84.861      -54.971        1.301       25.597       24.791       17.168      655.227      614.603      294.751        0.589        0.078      101.109       15.169        0.023      336.992        8.665      869.357
11/05/2014  22:44:00      -91.274      -66.072        0.594       30.834       21.481       20.778      950.712      461.450      431.724        0.727        0.092      112.679       18.190        0.026      337.073        8.801      869.340
11/05/2014  22:45:00     -104.942      -72.280       -5.848       44.075       23.153       24.792     1942.570      536.059      614.666        0.968        0.155      127.425       25.230        0.039      337.055        8.770      869.312
11/05/2014  22:46:00      -72.150      -55.457        1.766       33.848       23.123       18.831     1145.676      534.674      354.600        0.516        0.102       91.000       20.267        0.050      336.995        8.670      869.286
11/05/2014  22:47:00      -67.241      -43.837        0.917       32.086       21.142       16.644     1029.516      447.004      277.026        0.410        0.088       80.268       17.883        0.050      337.020        8.711      869.275
11/05/2014  22:48:00      -62.568      -46.407       -3.562       26.140       16.607       13.816      683.297      275.804      190.871        0.362        0.057       77.900       12.523        0.026      337.050        8.762      869.267
11/05/2014  22:49:00      -42.500      -50.975       -1.109       17.605       16.479       13.276      309.925      271.553      176.257        0.258        0.038       66.368        9.628        0.021      337.070        8.793      869.256
11/05/2014  22:50:00      -40.069      -30.078        0.440       14.091       14.206        9.909      198.550      201.799       98.192        0.150        0.025       50.101        6.111        0.015      337.015        8.701      869.245
11/05/2014  22:51:00      -62.288      -27.105       -4.908       11.293        7.664       10.964      127.536       58.731      120.212        0.247        0.015       67.930        6.076        0.008      337.045        8.752      869.241
11/05/2014  22:52:00      -70.782      -29.874      -12.106        6.343        7.816        6.069       40.232       61.086       36.827        0.309        0.007       76.828        4.019        0.003      337.018        8.709      869.245
11/05/2014  22:53:00      -75.837      -29.183       -6.090       11.360       13.043        9.462      129.044      170.118       89.529        0.351        0.019       81.259        6.540        0.006      336.983        8.650      869.236
11/05/2014  22:54:00     -102.590      -29.431      -13.594       11.522       12.059        9.716      132.747      145.409       94.395        0.597        0.019      106.729        6.391        0.004      337.006        8.687      869.215
11/05/2014  22:55:00     -108.018      -39.305       -8.834       10.711       12.122       10.970      114.729      146.946      120.339        0.684        0.019      114.946        4.406        0.001      336.966        8.622      869.210
11/05/2014  22:56:00     -106.912      -50.094       -8.491       14.872       10.028        7.095      221.185      100.554       50.341        0.719        0.019      118.066        3.759        0.001      336.932        8.564      869.232
11/05/2014  22:57:00      -88.004      -26.727       -9.441        6.867       13.272        6.538       47.155      176.156       42.743        0.441        0.013       91.973        5.037        0.003      336.858        8.440      869.244
11/05/2014  22:58:00      -66.766      -20.889       -6.815       14.766       15.616       10.720      218.037      243.859      114.915        0.276        0.029       69.958        8.576        0.015      336.903        8.517      869.233
11/05/2014  22:59:00      -26.332      -24.370        6.530       22.218       14.286       12.502      493.650      204.091      156.296        0.109        0.043       35.879       13.946        0.151      336.924        8.553      869.216
11/05/2014  23:00:00      -51.470      -53.981        4.734       18.423       21.362       11.999      339.393      456.332      143.967        0.326        0.047       74.586       11.907        0.025      337.055        8.769      869.229
11/05/2014  23:01:00      -64.279      -47.675        2.265       29.676       27.765       18.031      880.676      770.895      325.128        0.419        0.099       80.029       16.637        0.043      336.968        8.624      869.247
11/05/2014  23:02:00      -35.616      -22.088        0.176       38.574       17.759       15.039     1487.986      315.384      226.165        0.189        0.101       41.909       17.525        0.175      336.835        8.404      869.262
11/05/2014  23:03:00      -71.261      -35.991       -4.813       22.516       19.129       11.985      506.953      365.935      143.634        0.371        0.051       79.834        8.822        0.012      336.819        8.377      869.261
11/05/2014  23:04:00      -89.848      -57.226       -3.110       31.467       22.425       14.210      990.151      502.879      201.926        0.653        0.085      106.525       10.668        0.010      336.862        8.448      869.258
11/05/2014  23:05:00      -53.217      -37.234        4.013       37.372       23.804       18.289     1396.645      566.607      334.480        0.327        0.115       64.949       15.782        0.059      336.809        8.361      869.264
11/05/2014  23:06:00      -87.544      -43.114        1.794       33.897       23.764       16.312     1149.025      564.710      266.067        0.575        0.099       97.585       15.468        0.025      336.805        8.354      869.272
11/05/2014  23:07:00      -78.831      -36.238        0.115       32.641       18.408       12.770     1065.416      338.838      163.085        0.455        0.078       86.761       13.200        0.023      336.773        8.300      869.271
11/05/2014  23:08:00      -64.199      -27.959       -0.209       17.052       13.450       10.797      290.763      180.910      116.578        0.275        0.029       70.023        8.289        0.014      336.804        8.352      869.268
11/05/2014  23:09:00      -96.595      -22.438       -3.510       24.029       16.153       12.050      577.416      260.933      145.208        0.541        0.049       99.167       10.651        0.012      336.799        8.345      869.276
11/05/2014  23:10:00      -97.378      -35.283        2.878       24.091       18.886       14.706      580.374      356.665      216.256        0.594        0.058      103.574       11.282        0.012      336.804        8.351      869.288
11/05/2014  23:11:00      -89.861      -44.042        5.567       37.628       20.840       15.858     1415.844      434.300      251.475        0.607        0.105      100.074       15.578        0.024      336.829        8.392      869.284
11/05/2014  23:12:00      -60.898      -29.859        6.913       32.260       23.842       15.956     1040.727      568.426      254.582        0.326        0.093       67.824       17.819        0.069      336.845        8.420      869.273
11/05/2014  23:13:00      -79.043      -37.797        2.246       20.527       18.061       15.374      421.372      326.194      236.350        0.433        0.049       87.615        9.822        0.013      336.854        8.436      869.259
11/05/2014  23:14:00      -72.996      -33.240       -2.320       19.135       13.178       11.517      366.137      173.656      132.652        0.356        0.034       80.208        4.009        0.002      336.755        8.272      869.232
11/05/2014  23:15:00      -89.847      -35.702       -3.534       19.109       15.978       12.327      365.167      255.287      151.955        0.507        0.039       96.680       11.354        0.014      336.789        8.327      869.199
11/05/2014  23:16:00      -94.186      -45.130      -10.099       13.702        9.348       10.576      187.754       87.389      111.851        0.570        0.019      104.440        7.718        0.005      336.775        8.306      869.194
11/05/2014  23:17:00     -100.897      -49.084       -8.592        8.718        8.550        6.411       75.999       73.102       41.097        0.643        0.010      112.202        3.830        0.001      336.771        8.297      869.206
11/05/2014  23:18:00     -106.832      -50.871       -4.380        9.545        9.509        7.015       91.108       90.417       49.211        0.713        0.012      118.326        4.024        0.001      336.782        8.316      869.214
11/05/2014  23:19:00     -108.611      -36.454      -13.882        7.535       12.032        8.623       56.773      144.768       74.363        0.680        0.014      114.565        6.040        0.003      336.781        8.315      869.222
11/05/2014  23:20:00      -98.850      -13.051      -10.982       15.989       14.734       13.771      255.641      217.087      189.627        0.536        0.033       99.707       11.510        0.013      336.786        8.322      869.219
11/05/2014  23:21:00     -102.782      -24.667      -14.567       13.722       10.863        9.216      188.289      118.013       84.935        0.589        0.020      105.700        7.135        0.005      336.754        8.271      869.236
11/05/2014  23:22:00     -120.511      -49.949      -13.627       16.371       11.027       11.174      268.005      121.593      124.851        0.886        0.026      130.452        8.429        0.004      336.668        8.125      869.259
11/05/2014  23:23:00     -129.328      -35.334       -7.390       16.699       17.660       13.778      278.871      311.872      189.826        0.940        0.039      134.068        9.471        0.005      336.643        8.083      869.264
11/05/2014  23:24:00     -116.510      -21.546      -15.880       13.615       14.380       10.371      185.356      206.787      107.557        0.740        0.025      118.485        6.526        0.003      336.649        8.095      869.254
11/05/2014  23:25:00     -101.713      -13.654      -13.537        8.332        9.991        6.155       69.423       99.817       37.881        0.546        0.010      102.626        3.046        0.001      336.680        8.145      869.232
11/05/2014  23:26:00      -64.440      -56.246      -18.927       13.167       15.902       10.369      173.378      252.875      107.522        0.410        0.027       85.534       10.072        0.014      336.655        8.104      869.218
11/05/2014  23:27:00      -65.447      -43.653       -4.543       22.372       18.782       16.999      500.513      352.765      288.962        0.368        0.057       78.669        9.678        0.015      336.637        8.075      869.214
11/05/2014  23:28:00      -92.886      -24.764      -15.158       12.931       17.322       10.835      167.207      300.043      117.407        0.503        0.029       96.130        9.676        0.010      336.633        8.067      869.200
11/05/2014  23:29:00      -91.802      -25.091       -9.917       14.336       13.824       15.986      205.511      191.109      255.542        0.490        0.033       95.170       10.892        0.013      336.634        8.069      869.183
11/05/2014  23:30:00      -96.767      -28.181      -13.399       23.734       17.240       10.242      563.308      297.208      104.900        0.565        0.048      100.787        8.383        0.007      336.610        8.028      869.165
11/05/2014  23:31:00      -88.201      -50.705       -7.433       18.700       14.600       15.121      349.703      213.165      228.646        0.560        0.040      101.737       12.412        0.015      336.519        7.877      869.156
11/05/2014  23:32:00      -47.538      -21.130       -3.572       31.962       21.639       14.009     1021.539      468.261      196.263        0.220        0.084       52.022       14.157        0.074      336.479        7.807      869.160
11/05/2014  23:33:00      -68.208      -31.378        0.568       36.278       26.097       19.633     1316.092      681.055      385.450        0.401        0.119       75.080       20.390        0.074      336.511        7.863      869.180
11/05/2014  23:34:00      -59.823      -30.558      -10.696       25.010       18.549       19.599      625.493      344.076      384.128        0.299        0.068       67.176       12.374        0.034      336.479        7.808      869.173
11/05/2014  23:35:00      -50.027      -43.919       -9.169       31.646       23.755       16.393     1001.461      564.293      268.719        0.317        0.092       66.570       11.767        0.031      336.482        7.813      869.149
11/05/2014  23:36:00      -30.598      -49.410       -3.634       33.923       26.701       23.911     1150.779      712.966      571.720        0.291        0.122       58.117       16.253        0.078      336.484        7.816      869.131
11/05/2014  23:37:00      -61.721      -38.715      -13.195       29.293       17.392       14.320      858.072      302.486      205.056        0.342        0.068       72.858        8.546        0.014      336.465        7.786      869.138
11/05/2014  23:38:00      -78.338      -52.070       -8.357       45.781       27.738       18.664     2095.868      769.384      348.335        0.607        0.161       94.065       19.586        0.043      336.483        7.816      869.135
11/05/2014  23:39:00     -108.492      -38.739      -11.574       18.642       24.441       11.403      347.528      597.350      130.018        0.724        0.054      115.201       10.173        0.008      336.530        7.895      869.110
11/05/2014  23:40:00      -83.295      -35.966      -11.395       12.689        8.190        9.644      161.008       67.076       92.997        0.434        0.016       90.728        2.757        0.001      336.583        7.983      869.089
11/05/2014  23:41:00      -73.272      -17.966      -11.724       18.037       13.302       10.767      325.341      176.941      115.926        0.322        0.031       75.443        8.756        0.013      336.618        8.041      869.075
11/05/2014  23:42:00     -102.009      -37.192      -15.065       14.186       16.691        9.616      201.255      278.593       92.474        0.629        0.029      108.578        6.630        0.004      336.688        8.159      869.062
11/05/2014  23:43:00     -119.555      -73.146       -8.415       23.840       17.149       15.710      568.357      294.079      246.819        1.041        0.055      140.156       10.902        0.006      336.636        8.072      869.060
11/05/2014  23:44:00      -76.053      -65.401        0.047       41.849       30.878       19.730     1751.309      953.460      389.270        0.658        0.155      100.306       15.785        0.025      336.494        7.835      869.065
11/05/2014  23:45:00      -90.390      -59.044       -0.649       35.305       24.397       23.157     1246.473      595.200      536.249        0.702        0.119      107.965       13.981        0.017      336.497        7.839      869.072
11/05/2014  23:46:00     -103.273      -59.643        0.289       34.985       24.628       24.238     1223.920      606.537      587.490        0.832        0.121      119.259       22.371        0.035      336.453        7.763      869.064
11/05/2014  23:47:00      -95.758      -55.665       -3.589       17.999       19.183       11.815      323.965      367.979      139.588        0.656        0.042      110.762        8.497        0.006      336.527        7.889      869.058
11/05/2014  23:48:00     -107.185      -43.198      -15.973       13.434       11.542        8.089      180.473      133.219       65.428        0.699        0.019      115.562        4.041        0.001      336.505        7.853      869.063
11/05/2014  23:49:00     -110.228      -54.964       -8.939       18.713       18.202       11.677      350.193      331.306      136.354        0.803        0.041      123.171       11.391        0.009      336.503        7.849      869.070
11/05/2014  23:50:00     -101.108      -55.618       -1.746       29.371       27.350       18.295      862.641      748.032      334.695        0.763        0.097      115.396       15.934        0.019      336.530        7.894      869.067
11/05/2014  23:51:00     -112.041      -40.118      -10.853       29.694       19.498       15.280      881.734      380.179      233.492        0.789        0.075      119.007       13.034        0.012      336.479        7.810      869.059
11/05/2014  23:52:00     -150.148      -38.303      -11.405       19.262       20.686       16.104      371.020      427.890      259.330        1.260        0.053      154.957        9.877        0.004      336.461        7.779      869.054
11/05/2014  23:53:00     -113.620      -54.626       -1.561       29.230       32.482       18.005      854.403     1055.065      324.185        0.906        0.112      126.069       12.786        0.010      336.412        7.696      869.047
11/05/2014  23:54:00     -127.065      -59.040       -7.295       18.297       18.763       14.461      334.790      352.033      209.118        1.029        0.045      140.112       11.694        0.007      336.385        7.652      869.040
11/05/2014  23:55:00     -132.320      -64.475      -15.607       12.600       13.712       11.088      158.756      188.021      122.953        1.119        0.023      147.192        8.497        0.003      336.388        7.656      869.037
11/05/2014  23:56:00     -128.386      -72.819      -11.340       20.215       19.362       13.957      408.636      374.884      194.785        1.145        0.049      147.599        6.334        0.002      336.419        7.707      869.032
11/05/2014  23:57:00      -97.789      -63.662       -1.704       25.929       24.954       15.194      672.309      622.695      230.854        0.757        0.076      116.686       13.126        0.013      336.392        7.663      869.032
11/05/2014  23:58:00      -93.142      -51.100       -4.750       18.835       17.831       14.042      354.750      317.934      197.187        0.609        0.043      106.239        9.782        0.008      336.350        7.593      869.016
11/05/2014  23:59:00      -69.670      -42.652        0.498       36.627       13.637       18.288     1341.514      185.980      334.452        0.427        0.093       81.689       22.058        0.073      336.390        7.658      868.993
